Time,TemperatureF,DewpointF,PressureIn,WindDirection,WindDirectionDegrees,WindSpeedMPH,WindSpeedGustMPH,Humidity,HourlyPrecipIn,Conditions,Clouds,dailyrainin,SoftwareType,DateUTC
2013-10-24 00:00:00,63.3,33.8,29.47,SSE,159,0.0,0.0,33,0.00,,CLR,0.00,VWS V14.01,2013-10-24 05:00:00,
2013-10-24 00:01:00,63.1,33.6,29.47,SSE,160,0.0,0.0,33,0.00,,CLR,0.00,VWS V14.01,2013-10-24 05:01:00,
2013-10-24 00:02:00,63.1,33.6,29.47,SSE,160,0.0,0.0,33,0.00,,CLR,0.00,VWS V14.01,2013-10-24 05:02:00,
2013-10-24 00:03:00,63.0,34.2,29.47,SSE,161,0.0,0.0,34,0.00,,CLR,0.00,VWS V14.01,2013-10-24 05:03:00,
2013-10-24 00:04:00,63.0,34.2,29.47,SSE,159,0.0,0.0,34,0.00,,CLR,0.00,VWS V14.01,2013-10-24 05:04:00,
2013-10-24 00:05:00,63.0,34.2,29.47,SSE,160,0.0,0.0,34,0.00,,CLR,0.00,VWS V14.01,2013-10-24 05:05:00,
2013-10-24 00:06:00,62.8,34.0,29.47,SSE,161,0.0,0.0,34,0.00,,CLR,0.00,VWS V14.01,2013-10-24 05:06:00,
2013-10-24 00:07:00,62.8,34.0,29.47,SSE,160,0.0,0.0,34,0.00,,CLR,0.00,VWS V14.01,2013-10-24 05:07:00,
2013-10-24 00:08:00,62.6,33.9,29.47,SSE,159,0.0,0.0,34,0.00,,CLR,0.00,VWS V14.01,2013-10-24 05:08:00,
2013-10-24 00:09:00,62.6,33.9,29.47,SSE,160,0.0,0.0,34,0.00,,CLR,0.00,VWS V14.01,2013-10-24 05:09:00,
2013-10-24 00:10:00,62.4,33.7,29.47,SSE,160,0.0,0.0,34,0.00,,CLR,0.00,VWS V14.01,2013-10-24 05:10:00,
2013-10-24 00:11:00,62.4,33.7,29.47,SSE,159,0.0,0.0,34,0.00,,CLR,0.00,VWS V14.01,2013-10-24 05:11:00,
2013-10-24 00:12:00,62.2,33.5,29.47,SSE,161,0.0,0.0,34,0.00,,CLR,0.00,VWS V14.01,2013-10-24 05:12:00,
2013-10-24 00:13:00,62.2,33.5,29.47,SSE,160,0.0,0.0,34,0.00,,CLR,0.00,VWS V14.01,2013-10-24 05:13:00,
2013-10-24 00:14:00,62.1,33.4,29.47,SSE,160,0.0,0.0,34,0.00,,CLR,0.00,VWS V14.01,2013-10-24 05:14:00,
2013-10-24 00:15:00,62.1,34.1,29.47,SSE,161,0.0,0.0,35,0.00,,CLR,0.00,VWS V14.01,2013-10-24 05:15:00,
2013-10-24 00:16:00,61.9,34.0,29.47,SSE,160,0.0,0.0,35,0.00,,CLR,0.00,VWS V14.01,2013-10-24 05:16:00,
2013-10-24 00:17:00,61.9,34.0,29.47,SSE,160,0.0,0.0,35,0.00,,CLR,0.00,VWS V14.01,2013-10-24 05:17:00,
2013-10-24 00:18:00,61.9,34.0,29.47,SSE,160,0.0,0.0,35,0.00,,CLR,0.00,VWS V14.01,2013-10-24 05:18:00,
2013-10-24 00:19:00,61.7,33.8,29.47,SSE,159,0.0,0.0,35,0.00,,CLR,0.00,VWS V14.01,2013-10-24 05:19:00,
2013-10-24 00:20:00,61.7,33.8,29.47,SSE,160,0.0,0.0,35,0.00,,CLR,0.00,VWS V14.01,2013-10-24 05:20:00,
2013-10-24 00:21:00,61.5,33.6,29.47,SSE,159,0.0,0.0,35,0.00,,CLR,0.00,VWS V14.01,2013-10-24 05:21:00,
2013-10-24 00:22:00,61.5,33.6,29.47,SSE,159,0.0,0.0,35,0.00,,CLR,0.00,VWS V14.01,2013-10-24 05:22:00,
2013-10-24 00:23:00,61.5,33.6,29.47,SSE,160,0.0,0.0,35,0.00,,CLR,0.00,VWS V14.01,2013-10-24 05:23:00,
2013-10-24 00:24:00,61.5,33.6,29.47,SSE,160,0.0,0.0,35,0.00,,CLR,0.00,VWS V14.01,2013-10-24 05:24:00,
2013-10-24 00:25:00,61.5,33.6,29.47,SSE,159,0.0,0.0,35,0.00,,CLR,0.00,VWS V14.01,2013-10-24 05:25:00,
2013-10-24 00:26:00,61.3,33.5,29.47,SSE,159,0.0,0.0,35,0.00,,CLR,0.00,VWS V14.01,2013-10-24 05:26:00,
2013-10-24 00:27:00,61.3,33.5,29.47,SSE,160,0.0,0.0,35,0.00,,CLR,0.00,VWS V14.01,2013-10-24 05:27:00,
2013-10-24 00:28:00,61.3,33.5,29.47,SSE,161,0.0,0.0,35,0.00,,CLR,0.00,VWS V14.01,2013-10-24 05:28:00,
2013-10-24 00:29:00,61.3,33.5,29.47,SSE,159,0.0,0.0,35,0.00,,CLR,0.00,VWS V14.01,2013-10-24 05:29:00,
2013-10-24 00:30:00,61.3,33.5,29.47,SSE,160,0.0,0.0,35,0.00,,CLR,0.00,VWS V14.01,2013-10-24 05:30:00,
2013-10-24 00:31:00,61.3,33.5,29.47,SSE,160,0.0,0.0,35,0.00,,CLR,0.00,VWS V14.01,2013-10-24 05:31:00,
2013-10-24 00:32:00,61.3,33.5,29.47,SSE,159,0.0,0.0,35,0.00,,CLR,0.00,VWS V14.01,2013-10-24 05:32:00,
2013-10-24 00:33:00,61.3,33.5,29.47,SSE,160,0.0,0.0,35,0.00,,CLR,0.00,VWS V14.01,2013-10-24 05:33:00,
2013-10-24 00:34:00,61.3,33.5,29.47,SSE,160,0.0,0.0,35,0.00,,CLR,0.00,VWS V14.01,2013-10-24 05:34:00,
2013-10-24 00:35:00,61.3,34.2,29.47,SSE,160,0.0,0.0,36,0.00,,CLR,0.00,VWS V14.01,2013-10-24 05:35:00,
2013-10-24 00:36:00,61.3,34.2,29.47,SSE,160,0.0,0.0,36,0.00,,CLR,0.00,VWS V14.01,2013-10-24 05:36:00,
2013-10-24 00:37:00,61.3,34.2,29.47,SSE,160,0.0,0.0,36,0.00,,CLR,0.00,VWS V14.01,2013-10-24 05:37:00,
2013-10-24 00:38:00,61.5,34.3,29.47,SSE,160,0.0,0.0,36,0.00,,CLR,0.00,VWS V14.01,2013-10-24 05:38:00,
2013-10-24 00:39:00,61.5,34.3,29.47,SSE,161,0.0,0.0,36,0.00,,CLR,0.00,VWS V14.01,2013-10-24 05:39:00,
2013-10-24 00:40:00,61.5,34.3,29.47,SSW,199,0.0,2.2,36,0.00,,CLR,0.00,VWS V14.01,2013-10-24 05:40:00,
2013-10-24 00:41:00,61.5,33.6,29.47,South,188,0.0,0.0,35,0.00,,CLR,0.00,VWS V14.01,2013-10-24 05:41:00,
2013-10-24 00:42:00,61.5,33.6,29.47,South,188,0.0,0.0,35,0.00,,CLR,0.00,VWS V14.01,2013-10-24 05:42:00,
2013-10-24 00:43:00,61.7,33.8,29.47,South,188,0.0,0.0,35,0.00,,CLR,0.00,VWS V14.01,2013-10-24 05:43:00,
2013-10-24 00:44:00,61.7,33.8,29.47,West,270,0.0,2.7,35,0.00,,CLR,0.00,VWS V14.01,2013-10-24 05:44:00,
2013-10-24 00:45:00,61.7,33.8,29.47,West,271,0.0,0.0,35,0.00,,CLR,0.00,VWS V14.01,2013-10-24 05:45:00,
2013-10-24 00:46:00,61.7,33.8,29.47,South,177,0.0,0.0,35,0.00,,CLR,0.00,VWS V14.01,2013-10-24 05:46:00,
2013-10-24 00:47:00,61.7,33.8,29.47,South,176,0.0,0.0,35,0.00,,CLR,0.00,VWS V14.01,2013-10-24 05:47:00,
2013-10-24 00:48:00,61.7,33.8,29.47,South,180,0.0,0.0,35,0.00,,CLR,0.00,VWS V14.01,2013-10-24 05:48:00,
2013-10-24 00:49:00,61.7,33.8,29.47,South,181,0.0,0.0,35,0.00,,CLR,0.00,VWS V14.01,2013-10-24 05:49:00,
2013-10-24 00:50:00,61.7,33.8,29.47,South,181,0.0,0.0,35,0.00,,CLR,0.00,VWS V14.01,2013-10-24 05:50:00,
2013-10-24 00:51:00,61.7,33.8,29.47,South,183,0.0,0.0,35,0.00,,CLR,0.00,VWS V14.01,2013-10-24 05:51:00,
2013-10-24 00:52:00,61.7,33.8,29.47,SSE,164,0.0,0.0,35,0.00,,CLR,0.00,VWS V14.01,2013-10-24 05:52:00,
2013-10-24 00:53:00,61.7,33.8,29.47,SSE,164,0.0,0.0,35,0.00,,CLR,0.00,VWS V14.01,2013-10-24 05:53:00,
2013-10-24 00:54:00,61.7,33.8,29.47,SSE,163,0.0,2.2,35,0.00,,CLR,0.00,VWS V14.01,2013-10-24 05:54:00,
2013-10-24 00:55:00,61.7,33.8,29.47,SSE,165,0.0,0.0,35,0.00,,CLR,0.00,VWS V14.01,2013-10-24 05:55:00,
2013-10-24 00:56:00,61.7,33.8,29.47,SSE,165,0.0,0.0,35,0.00,,CLR,0.00,VWS V14.01,2013-10-24 05:56:00,
2013-10-24 00:57:00,61.7,33.8,29.47,SSE,165,0.0,0.0,35,0.00,,CLR,0.00,VWS V14.01,2013-10-24 05:57:00,
2013-10-24 00:58:00,61.9,34.0,29.47,SE,132,0.0,0.0,35,0.00,,CLR,0.00,VWS V14.01,2013-10-24 05:58:00,
2013-10-24 00:59:00,61.9,34.0,29.47,SE,133,0.0,0.0,35,0.00,,CLR,0.00,VWS V14.01,2013-10-24 05:59:00,
2013-10-24 01:00:00,61.9,34.0,29.47,South,178,0.0,0.0,35,0.00,,CLR,0.00,VWS V14.01,2013-10-24 06:00:00,
2013-10-24 01:01:00,61.9,34.0,29.47,SSW,206,0.0,0.0,35,0.00,,CLR,0.00,VWS V14.01,2013-10-24 06:01:00,
2013-10-24 01:02:00,62.1,34.1,29.47,SSW,206,0.0,0.0,35,0.00,,CLR,0.00,VWS V14.01,2013-10-24 06:02:00,
2013-10-24 01:03:00,62.1,34.1,29.47,SSW,206,0.0,0.0,35,0.00,,CLR,0.00,VWS V14.01,2013-10-24 06:03:00,
2013-10-24 01:04:00,62.1,34.1,29.47,South,180,0.0,0.0,35,0.00,,CLR,0.00,VWS V14.01,2013-10-24 06:04:00,
2013-10-24 01:05:00,62.1,34.1,29.47,South,181,0.0,0.0,35,0.00,,CLR,0.00,VWS V14.01,2013-10-24 06:05:00,
2013-10-24 01:06:00,62.2,34.3,29.47,SSW,212,0.0,0.0,35,0.00,,CLR,0.00,VWS V14.01,2013-10-24 06:06:00,
2013-10-24 01:07:00,62.2,34.3,29.47,SSW,212,0.0,0.0,35,0.00,,CLR,0.00,VWS V14.01,2013-10-24 06:07:00,
2013-10-24 01:08:00,62.2,33.5,29.47,West,281,0.0,0.0,34,0.00,,CLR,0.00,VWS V14.01,2013-10-24 06:08:00,
2013-10-24 01:09:00,62.2,33.5,29.47,SSE,164,0.0,0.0,34,0.00,,CLR,0.00,VWS V14.01,2013-10-24 06:09:00,
2013-10-24 01:10:00,62.2,33.5,29.47,South,180,0.0,0.0,34,0.00,,CLR,0.00,VWS V14.01,2013-10-24 06:10:00,
2013-10-24 01:11:00,62.4,33.7,29.47,South,186,0.0,0.0,34,0.00,,CLR,0.00,VWS V14.01,2013-10-24 06:11:00,
2013-10-24 01:12:00,62.4,33.7,29.47,South,186,0.0,0.0,34,0.00,,CLR,0.00,VWS V14.01,2013-10-24 06:12:00,
2013-10-24 01:13:00,62.4,33.7,29.47,South,187,0.0,0.0,34,0.00,,CLR,0.00,VWS V14.01,2013-10-24 06:13:00,
2013-10-24 01:14:00,62.4,33.7,29.47,SSW,196,0.0,0.0,34,0.00,,CLR,0.00,VWS V14.01,2013-10-24 06:14:00,
2013-10-24 01:15:00,62.4,33.7,29.47,SSW,195,0.0,0.0,34,0.00,,CLR,0.00,VWS V14.01,2013-10-24 06:15:00,
2013-10-24 01:16:00,62.4,33.7,29.47,SE,144,0.0,0.0,34,0.00,,CLR,0.00,VWS V14.01,2013-10-24 06:16:00,
2013-10-24 01:17:00,62.4,33.7,29.47,WNW,290,0.0,0.0,34,0.00,,CLR,0.00,VWS V14.01,2013-10-24 06:17:00,
2013-10-24 01:18:00,62.4,33.7,29.47,West,265,0.0,0.0,34,0.00,,CLR,0.00,VWS V14.01,2013-10-24 06:18:00,
2013-10-24 01:19:00,62.4,33.7,29.47,West,267,0.0,0.0,34,0.00,,CLR,0.00,VWS V14.01,2013-10-24 06:19:00,
2013-10-24 01:20:00,62.4,33.7,29.47,West,265,0.0,0.0,34,0.00,,CLR,0.00,VWS V14.01,2013-10-24 06:20:00,
2013-10-24 01:21:00,62.4,33.7,29.47,WSW,249,0.0,0.0,34,0.00,,CLR,0.00,VWS V14.01,2013-10-24 06:21:00,
2013-10-24 01:22:00,62.4,33.7,29.47,WSW,248,0.0,0.0,34,0.00,,CLR,0.00,VWS V14.01,2013-10-24 06:22:00,
2013-10-24 01:23:00,62.4,33.7,29.47,WSW,249,0.0,0.0,34,0.00,,CLR,0.00,VWS V14.01,2013-10-24 06:23:00,
2013-10-24 01:24:00,62.4,33.7,29.47,WSW,250,0.0,0.0,34,0.00,,CLR,0.00,VWS V14.01,2013-10-24 06:24:00,
2013-10-24 01:25:00,62.4,33.7,29.47,South,187,0.0,3.1,34,0.00,,CLR,0.00,VWS V14.01,2013-10-24 06:25:00,
2013-10-24 01:26:00,62.4,33.7,29.47,South,185,0.0,0.0,34,0.00,,CLR,0.00,VWS V14.01,2013-10-24 06:26:00,
2013-10-24 01:27:00,62.4,33.7,29.47,SSE,153,0.0,0.0,34,0.00,,CLR,0.00,VWS V14.01,2013-10-24 06:27:00,
2013-10-24 01:28:00,62.4,33.7,29.47,SSE,152,0.0,0.0,34,0.00,,CLR,0.00,VWS V14.01,2013-10-24 06:28:00,
2013-10-24 01:29:00,62.4,33.7,29.47,SE,142,0.0,0.0,34,0.00,,CLR,0.00,VWS V14.01,2013-10-24 06:29:00,
2013-10-24 01:30:00,62.4,33.7,29.47,SW,217,0.0,2.2,34,0.00,,CLR,0.00,VWS V14.01,2013-10-24 06:30:00,
2013-10-24 01:31:00,62.4,33.7,29.47,South,169,0.0,0.0,34,0.00,,CLR,0.00,VWS V14.01,2013-10-24 06:31:00,
2013-10-24 01:32:00,62.4,33.7,29.47,South,177,0.0,0.0,34,0.00,,CLR,0.00,VWS V14.01,2013-10-24 06:32:00,
2013-10-24 01:33:00,62.4,33.7,29.47,South,176,0.0,0.0,34,0.00,,CLR,0.00,VWS V14.01,2013-10-24 06:33:00,
2013-10-24 01:34:00,62.4,33.7,29.47,South,177,0.0,0.0,34,0.00,,CLR,0.00,VWS V14.01,2013-10-24 06:34:00,
2013-10-24 01:35:00,62.4,33.7,29.47,South,177,0.0,0.0,34,0.00,,CLR,0.00,VWS V14.01,2013-10-24 06:35:00,
2013-10-24 01:36:00,62.4,33.7,29.47,South,177,0.0,0.0,34,0.00,,CLR,0.00,VWS V14.01,2013-10-24 06:36:00,
2013-10-24 01:37:00,62.4,33.7,29.47,South,177,0.0,0.0,34,0.00,,CLR,0.00,VWS V14.01,2013-10-24 06:37:00,
2013-10-24 01:38:00,62.2,33.5,29.47,South,176,0.0,0.0,34,0.00,,CLR,0.00,VWS V14.01,2013-10-24 06:38:00,
2013-10-24 01:39:00,62.2,33.5,29.47,South,177,0.0,0.0,34,0.00,,CLR,0.00,VWS V14.01,2013-10-24 06:39:00,
2013-10-24 01:40:00,62.2,33.5,29.47,South,182,0.0,0.0,34,0.00,,CLR,0.00,VWS V14.01,2013-10-24 06:40:00,
2013-10-24 01:41:00,62.2,33.5,29.47,South,183,0.0,0.0,34,0.00,,CLR,0.00,VWS V14.01,2013-10-24 06:41:00,
2013-10-24 01:42:00,62.2,33.5,29.47,South,190,0.0,3.1,34,0.00,,CLR,0.00,VWS V14.01,2013-10-24 06:42:00,
2013-10-24 01:43:00,62.2,33.5,29.47,South,190,0.0,0.0,34,0.00,,CLR,0.00,VWS V14.01,2013-10-24 06:43:00,
2013-10-24 01:44:00,62.2,33.5,29.47,SSE,167,0.0,0.0,34,0.00,,CLR,0.00,VWS V14.01,2013-10-24 06:44:00,
2013-10-24 01:45:00,62.2,33.5,29.47,SSE,168,0.0,0.0,34,0.00,,CLR,0.00,VWS V14.01,2013-10-24 06:45:00,
2013-10-24 01:46:00,62.2,33.5,29.47,SSE,164,0.0,0.0,34,0.00,,CLR,0.00,VWS V14.01,2013-10-24 06:46:00,
2013-10-24 01:47:00,62.2,33.5,29.47,SSE,164,0.0,0.0,34,0.00,,CLR,0.00,VWS V14.01,2013-10-24 06:47:00,
2013-10-24 01:48:00,62.1,33.4,29.47,SSE,164,0.0,0.0,34,0.00,,CLR,0.00,VWS V14.01,2013-10-24 06:48:00,
2013-10-24 01:49:00,62.1,33.4,29.47,SSE,165,0.0,0.0,34,0.00,,CLR,0.00,VWS V14.01,2013-10-24 06:49:00,
2013-10-24 01:50:00,62.1,33.4,29.47,South,169,0.0,0.0,34,0.00,,CLR,0.00,VWS V14.01,2013-10-24 06:50:00,
2013-10-24 01:51:00,62.1,33.4,29.47,South,170,0.0,0.0,34,0.00,,CLR,0.00,VWS V14.01,2013-10-24 06:51:00,
2013-10-24 01:52:00,62.1,33.4,29.47,SSE,168,0.0,0.0,34,0.00,,CLR,0.00,VWS V14.01,2013-10-24 06:52:00,
2013-10-24 01:53:00,62.1,33.4,29.47,South,170,0.0,0.0,34,0.00,,CLR,0.00,VWS V14.01,2013-10-24 06:53:00,
2013-10-24 01:54:00,62.1,33.4,29.47,South,170,0.0,0.0,34,0.00,,CLR,0.00,VWS V14.01,2013-10-24 06:54:00,
2013-10-24 01:55:00,62.1,33.4,29.47,South,170,0.0,0.0,34,0.00,,CLR,0.00,VWS V14.01,2013-10-24 06:55:00,
2013-10-24 01:56:00,62.1,33.4,29.47,South,170,0.0,0.0,34,0.00,,CLR,0.00,VWS V14.01,2013-10-24 06:56:00,
2013-10-24 01:57:00,61.9,33.2,29.47,South,170,0.0,0.0,34,0.00,,CLR,0.00,VWS V14.01,2013-10-24 06:57:00,
2013-10-24 01:58:00,61.9,33.2,29.47,South,170,0.0,0.0,34,0.00,,CLR,0.00,VWS V14.01,2013-10-24 06:58:00,
2013-10-24 01:59:00,61.9,33.2,29.47,South,169,0.0,0.0,34,0.00,,CLR,0.00,VWS V14.01,2013-10-24 06:59:00,
2013-10-24 02:00:00,61.9,33.2,29.47,SSE,168,0.0,0.0,34,0.00,,CLR,0.00,VWS V14.01,2013-10-24 07:00:00,
2013-10-24 02:01:00,61.9,33.2,29.47,South,170,0.0,0.0,34,0.00,,CLR,0.00,VWS V14.01,2013-10-24 07:01:00,
2013-10-24 02:02:00,61.9,33.2,29.47,South,169,0.0,0.0,34,0.00,,CLR,0.00,VWS V14.01,2013-10-24 07:02:00,
2013-10-24 02:03:00,61.9,33.2,29.47,South,170,0.0,0.0,34,0.00,,CLR,0.00,VWS V14.01,2013-10-24 07:03:00,
2013-10-24 02:04:00,61.9,33.2,29.47,South,169,0.0,0.0,34,0.00,,CLR,0.00,VWS V14.01,2013-10-24 07:04:00,
2013-10-24 02:05:00,61.9,33.2,29.47,SE,138,0.0,0.0,34,0.00,,CLR,0.00,VWS V14.01,2013-10-24 07:05:00,
2013-10-24 02:06:00,61.9,33.2,29.47,South,175,0.0,0.0,34,0.00,,CLR,0.00,VWS V14.01,2013-10-24 07:06:00,
2013-10-24 02:07:00,61.9,33.2,29.47,SE,133,0.0,0.0,34,0.00,,CLR,0.00,VWS V14.01,2013-10-24 07:07:00,
2013-10-24 02:08:00,61.9,33.2,29.47,SE,133,0.0,0.0,34,0.00,,CLR,0.00,VWS V14.01,2013-10-24 07:08:00,
2013-10-24 02:09:00,61.9,33.2,29.47,SE,133,0.0,0.0,34,0.00,,CLR,0.00,VWS V14.01,2013-10-24 07:09:00,
2013-10-24 02:10:00,61.9,33.2,29.47,SE,131,0.0,0.0,34,0.00,,CLR,0.00,VWS V14.01,2013-10-24 07:10:00,
2013-10-24 02:11:00,61.7,33.1,29.47,SE,132,0.0,0.0,34,0.00,,CLR,0.00,VWS V14.01,2013-10-24 07:11:00,
2013-10-24 02:12:00,61.7,33.1,29.47,SE,133,0.0,0.0,34,0.00,,CLR,0.00,VWS V14.01,2013-10-24 07:12:00,
2013-10-24 02:13:00,61.7,33.1,29.47,SE,132,0.0,0.0,34,0.00,,CLR,0.00,VWS V14.01,2013-10-24 07:13:00,
2013-10-24 02:14:00,61.7,33.1,29.47,SE,133,0.0,0.0,34,0.00,,CLR,0.00,VWS V14.01,2013-10-24 07:14:00,
2013-10-24 02:15:00,61.5,32.9,29.47,SE,132,0.0,0.0,34,0.00,,CLR,0.00,VWS V14.01,2013-10-24 07:15:00,
2013-10-24 02:16:00,61.5,32.9,29.47,SE,131,0.0,0.0,34,0.00,,CLR,0.00,VWS V14.01,2013-10-24 07:16:00,
2013-10-24 02:17:00,61.5,32.9,29.47,SE,132,0.0,0.0,34,0.00,,CLR,0.00,VWS V14.01,2013-10-24 07:17:00,
2013-10-24 02:18:00,61.3,32.8,29.47,SE,132,0.0,0.0,34,0.00,,CLR,0.00,VWS V14.01,2013-10-24 07:18:00,
2013-10-24 02:19:00,61.3,32.8,29.47,SE,133,0.0,0.0,34,0.00,,CLR,0.00,VWS V14.01,2013-10-24 07:19:00,
2013-10-24 02:20:00,61.3,32.8,29.47,SE,133,0.0,0.0,34,0.00,,CLR,0.00,VWS V14.01,2013-10-24 07:20:00,
2013-10-24 02:21:00,61.3,32.8,29.47,SE,132,0.0,0.0,34,0.00,,CLR,0.00,VWS V14.01,2013-10-24 07:21:00,
2013-10-24 02:22:00,61.3,32.8,29.47,SSE,149,0.0,0.0,34,0.00,,CLR,0.00,VWS V14.01,2013-10-24 07:22:00,
2013-10-24 02:23:00,61.3,32.0,29.47,SSE,149,0.0,0.0,33,0.00,,CLR,0.00,VWS V14.01,2013-10-24 07:23:00,
2013-10-24 02:24:00,61.3,32.0,29.47,SSE,149,0.0,0.0,33,0.00,,CLR,0.00,VWS V14.01,2013-10-24 07:24:00,
2013-10-24 02:25:00,61.3,32.0,29.47,SSE,149,0.0,0.0,33,0.00,,CLR,0.00,VWS V14.01,2013-10-24 07:25:00,
2013-10-24 02:26:00,61.3,32.0,29.47,SSE,149,0.0,0.0,33,0.00,,CLR,0.00,VWS V14.01,2013-10-24 07:26:00,
2013-10-24 02:27:00,61.3,32.0,29.47,SSE,150,0.0,0.0,33,0.00,,CLR,0.00,VWS V14.01,2013-10-24 07:27:00,
2013-10-24 02:28:00,61.3,32.0,29.47,SSE,150,0.0,0.0,33,0.00,,CLR,0.00,VWS V14.01,2013-10-24 07:28:00,
2013-10-24 02:29:00,61.3,32.0,29.47,SSE,150,0.0,0.0,33,0.00,,CLR,0.00,VWS V14.01,2013-10-24 07:29:00,
2013-10-24 02:30:00,61.3,32.0,29.47,SSE,149,0.0,0.0,33,0.00,,CLR,0.00,VWS V14.01,2013-10-24 07:30:00,
2013-10-24 02:31:00,61.3,32.0,29.47,SSE,148,0.0,0.0,33,0.00,,CLR,0.00,VWS V14.01,2013-10-24 07:31:00,
2013-10-24 02:32:00,61.3,32.0,29.47,SSE,149,0.0,0.0,33,0.00,,CLR,0.00,VWS V14.01,2013-10-24 07:32:00,
2013-10-24 02:33:00,61.3,32.0,29.47,SSE,150,0.0,0.0,33,0.00,,CLR,0.00,VWS V14.01,2013-10-24 07:33:00,
2013-10-24 02:34:00,61.3,32.0,29.47,SSE,149,0.0,0.0,33,0.00,,CLR,0.00,VWS V14.01,2013-10-24 07:34:00,
2013-10-24 02:35:00,61.3,32.0,29.47,SSE,149,0.0,0.0,33,0.00,,CLR,0.00,VWS V14.01,2013-10-24 07:35:00,
2013-10-24 02:36:00,61.2,31.9,29.47,SSE,149,0.0,0.0,33,0.00,,CLR,0.00,VWS V14.01,2013-10-24 07:36:00,
2013-10-24 02:37:00,61.2,31.1,29.47,SSE,159,0.0,0.0,32,0.00,,CLR,0.00,VWS V14.01,2013-10-24 07:37:00,
2013-10-24 02:38:00,61.2,31.1,29.47,SSE,159,0.0,0.0,32,0.00,,CLR,0.00,VWS V14.01,2013-10-24 07:38:00,
2013-10-24 02:39:00,61.3,31.2,29.47,SSE,158,0.0,0.0,32,0.00,,CLR,0.00,VWS V14.01,2013-10-24 07:39:00,
2013-10-24 02:40:00,61.3,31.2,29.47,SSE,160,0.0,0.0,32,0.00,,CLR,0.00,VWS V14.01,2013-10-24 07:40:00,
2013-10-24 02:41:00,61.3,31.2,29.47,ESE,120,2.2,2.7,32,0.00,,CLR,0.00,VWS V14.01,2013-10-24 07:41:00,
2013-10-24 02:42:00,61.3,30.5,29.47,ESE,120,0.0,2.2,31,0.00,,CLR,0.00,VWS V14.01,2013-10-24 07:42:00,
2013-10-24 02:43:00,61.5,30.6,29.47,SSW,202,0.0,2.2,31,0.00,,CLR,0.00,VWS V14.01,2013-10-24 07:43:00,
2013-10-24 02:44:00,61.5,30.6,29.47,South,186,0.0,2.2,31,0.00,,CLR,0.00,VWS V14.01,2013-10-24 07:44:00,
2013-10-24 02:45:00,61.7,30.8,29.47,South,187,0.0,0.0,31,0.00,,CLR,0.00,VWS V14.01,2013-10-24 07:45:00,
2013-10-24 02:46:00,61.7,30.0,29.47,South,185,0.0,0.0,30,0.00,,CLR,0.00,VWS V14.01,2013-10-24 07:46:00,
2013-10-24 02:47:00,61.9,30.1,29.47,South,191,0.0,0.0,30,0.00,,CLR,0.00,VWS V14.01,2013-10-24 07:47:00,
2013-10-24 02:48:00,61.9,30.1,29.47,SSW,192,0.0,0.0,30,0.00,,CLR,0.00,VWS V14.01,2013-10-24 07:48:00,
2013-10-24 02:49:00,62.1,30.3,29.47,South,191,0.0,0.0,30,0.00,,CLR,0.00,VWS V14.01,2013-10-24 07:49:00,
2013-10-24 02:50:00,62.1,30.3,29.47,SSW,192,0.0,0.0,30,0.00,,CLR,0.00,VWS V14.01,2013-10-24 07:50:00,
2013-10-24 02:51:00,62.2,30.5,29.47,South,191,0.0,0.0,30,0.00,,CLR,0.00,VWS V14.01,2013-10-24 07:51:00,
2013-10-24 02:52:00,62.2,29.6,29.47,SE,144,0.0,2.2,29,0.00,,CLR,0.00,VWS V14.01,2013-10-24 07:52:00,
2013-10-24 02:53:00,62.2,29.6,29.47,SE,143,0.0,0.0,29,0.00,,CLR,0.00,VWS V14.01,2013-10-24 07:53:00,
2013-10-24 02:54:00,62.2,29.6,29.47,SE,143,0.0,0.0,29,0.00,,CLR,0.00,VWS V14.01,2013-10-24 07:54:00,
2013-10-24 02:55:00,62.2,29.6,29.47,SE,144,0.0,0.0,29,0.00,,CLR,0.00,VWS V14.01,2013-10-24 07:55:00,
2013-10-24 02:56:00,62.2,29.6,29.47,SSE,152,0.0,0.0,29,0.00,,CLR,0.00,VWS V14.01,2013-10-24 07:56:00,
2013-10-24 02:57:00,62.1,29.5,29.47,SSE,153,0.0,0.0,29,0.00,,CLR,0.00,VWS V14.01,2013-10-24 07:57:00,
2013-10-24 02:58:00,62.1,29.5,29.47,SSE,154,0.0,0.0,29,0.00,,CLR,0.00,VWS V14.01,2013-10-24 07:58:00,
2013-10-24 02:59:00,62.1,29.5,29.47,SSE,153,0.0,0.0,29,0.00,,CLR,0.00,VWS V14.01,2013-10-24 07:59:00,
2013-10-24 03:00:00,62.1,29.5,29.47,SSE,154,0.0,0.0,29,0.00,,CLR,0.00,VWS V14.01,2013-10-24 08:00:00,
2013-10-24 03:01:00,62.1,29.5,29.47,SSE,154,0.0,0.0,29,0.00,,CLR,0.00,VWS V14.01,2013-10-24 08:01:00,
2013-10-24 03:02:00,62.1,29.5,29.47,SSE,153,0.0,0.0,29,0.00,,CLR,0.00,VWS V14.01,2013-10-24 08:02:00,
2013-10-24 03:03:00,61.9,29.3,29.47,SSE,153,0.0,0.0,29,0.00,,CLR,0.00,VWS V14.01,2013-10-24 08:03:00,
2013-10-24 03:04:00,61.9,29.3,29.47,SSE,153,0.0,0.0,29,0.00,,CLR,0.00,VWS V14.01,2013-10-24 08:04:00,
2013-10-24 03:05:00,61.9,29.3,29.47,SSE,153,0.0,0.0,29,0.00,,CLR,0.00,VWS V14.01,2013-10-24 08:05:00,
2013-10-24 03:06:00,61.9,29.3,29.47,SSE,152,0.0,0.0,29,0.00,,CLR,0.00,VWS V14.01,2013-10-24 08:06:00,
2013-10-24 03:07:00,61.9,29.3,29.47,South,171,0.0,0.0,29,0.00,,CLR,0.00,VWS V14.01,2013-10-24 08:07:00,
2013-10-24 03:08:00,61.7,29.1,29.47,South,174,0.0,0.0,29,0.00,,CLR,0.00,VWS V14.01,2013-10-24 08:08:00,
2013-10-24 03:09:00,61.7,29.1,29.47,South,173,0.0,0.0,29,0.00,,CLR,0.00,VWS V14.01,2013-10-24 08:09:00,
2013-10-24 03:10:00,61.7,29.1,29.47,South,175,0.0,0.0,29,0.00,,CLR,0.00,VWS V14.01,2013-10-24 08:10:00,
2013-10-24 03:11:00,61.7,29.1,29.47,South,173,0.0,0.0,29,0.00,,CLR,0.00,VWS V14.01,2013-10-24 08:11:00,
2013-10-24 03:12:00,61.7,29.1,29.47,South,175,0.0,0.0,29,0.00,,CLR,0.00,VWS V14.01,2013-10-24 08:12:00,
2013-10-24 03:13:00,61.7,29.1,29.47,South,173,0.0,0.0,29,0.00,,CLR,0.00,VWS V14.01,2013-10-24 08:13:00,
2013-10-24 03:14:00,61.7,29.1,29.47,South,173,0.0,0.0,29,0.00,,CLR,0.00,VWS V14.01,2013-10-24 08:14:00,
2013-10-24 03:15:00,61.7,29.1,29.47,South,173,0.0,0.0,29,0.00,,CLR,0.00,VWS V14.01,2013-10-24 08:15:00,
2013-10-24 03:16:00,61.7,29.1,29.47,South,174,0.0,0.0,29,0.00,,CLR,0.00,VWS V14.01,2013-10-24 08:16:00,
2013-10-24 03:17:00,61.7,29.1,29.47,South,173,0.0,0.0,29,0.00,,CLR,0.00,VWS V14.01,2013-10-24 08:17:00,
2013-10-24 03:18:00,61.5,29.0,29.47,South,173,0.0,0.0,29,0.00,,CLR,0.00,VWS V14.01,2013-10-24 08:18:00,
2013-10-24 03:19:00,61.5,29.0,29.47,South,174,0.0,0.0,29,0.00,,CLR,0.00,VWS V14.01,2013-10-24 08:19:00,
2013-10-24 03:20:00,61.5,29.0,29.47,South,173,0.0,0.0,29,0.00,,CLR,0.00,VWS V14.01,2013-10-24 08:20:00,
2013-10-24 03:21:00,61.3,28.8,29.47,South,173,0.0,0.0,29,0.00,,CLR,0.00,VWS V14.01,2013-10-24 08:21:00,
2013-10-24 03:22:00,61.3,28.8,29.47,South,173,0.0,0.0,29,0.00,,CLR,0.00,VWS V14.01,2013-10-24 08:22:00,
2013-10-24 03:23:00,61.3,28.8,29.47,South,173,0.0,0.0,29,0.00,,CLR,0.00,VWS V14.01,2013-10-24 08:23:00,
2013-10-24 03:24:00,61.2,29.5,29.47,South,174,0.0,0.0,30,0.00,,CLR,0.00,VWS V14.01,2013-10-24 08:24:00,
2013-10-24 03:25:00,61.2,29.5,29.47,South,173,0.0,0.0,30,0.00,,CLR,0.00,VWS V14.01,2013-10-24 08:25:00,
2013-10-24 03:26:00,61.0,29.4,29.47,South,173,0.0,0.0,30,0.00,,CLR,0.00,VWS V14.01,2013-10-24 08:26:00,
2013-10-24 03:27:00,61.0,29.4,29.47,South,174,0.0,0.0,30,0.00,,CLR,0.00,VWS V14.01,2013-10-24 08:27:00,
2013-10-24 03:28:00,61.0,29.4,29.47,South,173,0.0,0.0,30,0.00,,CLR,0.00,VWS V14.01,2013-10-24 08:28:00,
2013-10-24 03:29:00,60.8,29.2,29.47,South,175,0.0,0.0,30,0.00,,CLR,0.00,VWS V14.01,2013-10-24 08:29:00,
2013-10-24 03:30:00,60.6,29.8,29.47,South,175,0.0,0.0,31,0.00,,CLR,0.00,VWS V14.01,2013-10-24 08:30:00,
2013-10-24 03:31:00,60.6,29.8,29.47,South,174,0.0,0.0,31,0.00,,CLR,0.00,VWS V14.01,2013-10-24 08:31:00,
2013-10-24 03:32:00,60.4,29.7,29.47,South,175,0.0,0.0,31,0.00,,CLR,0.00,VWS V14.01,2013-10-24 08:32:00,
2013-10-24 03:33:00,60.4,29.7,29.47,South,174,0.0,0.0,31,0.00,,CLR,0.00,VWS V14.01,2013-10-24 08:33:00,
2013-10-24 03:34:00,60.3,29.5,29.47,South,174,0.0,0.0,31,0.00,,CLR,0.00,VWS V14.01,2013-10-24 08:34:00,
2013-10-24 03:35:00,60.3,29.5,29.47,South,174,0.0,0.0,31,0.00,,CLR,0.00,VWS V14.01,2013-10-24 08:35:00,
2013-10-24 03:36:00,60.1,30.1,29.47,South,173,0.0,0.0,32,0.00,,CLR,0.00,VWS V14.01,2013-10-24 08:36:00,
2013-10-24 03:37:00,60.1,30.1,29.47,South,173,0.0,0.0,32,0.00,,CLR,0.00,VWS V14.01,2013-10-24 08:37:00,
2013-10-24 03:38:00,60.1,30.1,29.47,South,175,0.0,0.0,32,0.00,,CLR,0.00,VWS V14.01,2013-10-24 08:38:00,
2013-10-24 03:39:00,59.9,30.8,29.47,South,173,0.0,0.0,33,0.00,,CLR,0.00,VWS V14.01,2013-10-24 08:39:00,
2013-10-24 03:40:00,59.7,30.6,29.47,South,174,0.0,0.0,33,0.00,,CLR,0.00,VWS V14.01,2013-10-24 08:40:00,
2013-10-24 03:41:00,59.7,30.6,29.47,South,173,0.0,0.0,33,0.00,,CLR,0.00,VWS V14.01,2013-10-24 08:41:00,
2013-10-24 03:42:00,59.5,31.2,29.47,South,173,0.0,0.0,34,0.00,,CLR,0.00,VWS V14.01,2013-10-24 08:42:00,
2013-10-24 03:43:00,59.5,31.2,29.47,South,174,0.0,0.0,34,0.00,,CLR,0.00,VWS V14.01,2013-10-24 08:43:00,
2013-10-24 03:44:00,59.4,31.0,29.47,South,173,0.0,0.0,34,0.00,,CLR,0.00,VWS V14.01,2013-10-24 08:44:00,
2013-10-24 03:45:00,59.4,31.0,29.47,South,173,0.0,0.0,34,0.00,,CLR,0.00,VWS V14.01,2013-10-24 08:45:00,
2013-10-24 03:46:00,59.4,31.0,29.47,South,174,0.0,0.0,34,0.00,,CLR,0.00,VWS V14.01,2013-10-24 08:46:00,
2013-10-24 03:47:00,59.2,30.9,29.47,South,175,0.0,0.0,34,0.00,,CLR,0.00,VWS V14.01,2013-10-24 08:47:00,
2013-10-24 03:48:00,59.2,30.9,29.47,South,173,0.0,0.0,34,0.00,,CLR,0.00,VWS V14.01,2013-10-24 08:48:00,
2013-10-24 03:49:00,59.0,30.7,29.47,South,173,0.0,0.0,34,0.00,,CLR,0.00,VWS V14.01,2013-10-24 08:49:00,
2013-10-24 03:50:00,58.8,31.2,29.47,South,173,0.0,0.0,35,0.00,,CLR,0.00,VWS V14.01,2013-10-24 08:50:00,
2013-10-24 03:51:00,58.8,31.2,29.47,South,173,0.0,0.0,35,0.00,,CLR,0.00,VWS V14.01,2013-10-24 08:51:00,
2013-10-24 03:52:00,58.8,31.2,29.47,South,174,0.0,0.0,35,0.00,,CLR,0.00,VWS V14.01,2013-10-24 08:52:00,
2013-10-24 03:53:00,58.6,31.1,29.47,South,174,0.0,0.0,35,0.00,,CLR,0.00,VWS V14.01,2013-10-24 08:53:00,
2013-10-24 03:54:00,58.5,30.9,29.47,South,174,0.0,0.0,35,0.00,,CLR,0.00,VWS V14.01,2013-10-24 08:54:00,
2013-10-24 03:55:00,58.5,30.9,29.47,South,173,0.0,0.0,35,0.00,,CLR,0.00,VWS V14.01,2013-10-24 08:55:00,
2013-10-24 03:56:00,58.3,30.8,29.47,South,174,0.0,0.0,35,0.00,,CLR,0.00,VWS V14.01,2013-10-24 08:56:00,
2013-10-24 03:57:00,58.3,30.8,29.47,South,173,0.0,0.0,35,0.00,,CLR,0.00,VWS V14.01,2013-10-24 08:57:00,
2013-10-24 03:58:00,58.1,30.6,29.47,South,174,0.0,0.0,35,0.00,,CLR,0.00,VWS V14.01,2013-10-24 08:58:00,
2013-10-24 03:59:00,58.1,30.6,29.47,South,173,0.0,0.0,35,0.00,,CLR,0.00,VWS V14.01,2013-10-24 08:59:00,
2013-10-24 04:00:00,57.9,30.5,29.47,South,173,0.0,0.0,35,0.00,,CLR,0.00,VWS V14.01,2013-10-24 09:00:00,
2013-10-24 04:01:00,57.9,31.1,29.47,South,174,0.0,0.0,36,0.00,,CLR,0.00,VWS V14.01,2013-10-24 09:01:00,
2013-10-24 04:02:00,57.7,31.0,29.47,South,173,0.0,0.0,36,0.00,,CLR,0.00,VWS V14.01,2013-10-24 09:02:00,
2013-10-24 04:03:00,57.7,31.0,29.47,South,173,0.0,0.0,36,0.00,,CLR,0.00,VWS V14.01,2013-10-24 09:03:00,
2013-10-24 04:04:00,57.6,30.8,29.47,South,174,0.0,0.0,36,0.00,,CLR,0.00,VWS V14.01,2013-10-24 09:04:00,
2013-10-24 04:05:00,57.6,30.8,29.47,South,173,0.0,0.0,36,0.00,,CLR,0.00,VWS V14.01,2013-10-24 09:05:00,
2013-10-24 04:06:00,57.4,30.7,29.47,South,173,0.0,0.0,36,0.00,,CLR,0.00,VWS V14.01,2013-10-24 09:06:00,
2013-10-24 04:07:00,57.4,30.7,29.47,South,173,0.0,0.0,36,0.00,,CLR,0.00,VWS V14.01,2013-10-24 09:07:00,
2013-10-24 04:08:00,57.4,31.3,29.47,South,173,0.0,0.0,37,0.00,,CLR,0.00,VWS V14.01,2013-10-24 09:08:00,
2013-10-24 04:09:00,57.2,31.2,29.47,South,175,0.0,0.0,37,0.00,,CLR,0.00,VWS V14.01,2013-10-24 09:09:00,
2013-10-24 04:10:00,57.2,31.2,29.47,South,174,0.0,0.0,37,0.00,,CLR,0.00,VWS V14.01,2013-10-24 09:10:00,
2013-10-24 04:11:00,57.2,31.2,29.47,South,174,0.0,0.0,37,0.00,,CLR,0.00,VWS V14.01,2013-10-24 09:11:00,
2013-10-24 04:12:00,57.2,31.2,29.47,South,174,0.0,0.0,37,0.00,,CLR,0.00,VWS V14.01,2013-10-24 09:12:00,
2013-10-24 04:13:00,57.0,31.7,29.47,South,174,0.0,0.0,38,0.00,,CLR,0.00,VWS V14.01,2013-10-24 09:13:00,
2013-10-24 04:14:00,57.0,31.7,29.47,South,174,0.0,0.0,38,0.00,,CLR,0.00,VWS V14.01,2013-10-24 09:14:00,
2013-10-24 04:15:00,57.0,31.7,29.47,South,173,0.0,0.0,38,0.00,,CLR,0.00,VWS V14.01,2013-10-24 09:15:00,
2013-10-24 04:16:00,56.8,31.5,29.47,South,174,0.0,0.0,38,0.00,,CLR,0.00,VWS V14.01,2013-10-24 09:16:00,
2013-10-24 04:17:00,56.8,31.5,29.47,South,173,0.0,0.0,38,0.00,,CLR,0.00,VWS V14.01,2013-10-24 09:17:00,
2013-10-24 04:18:00,56.8,31.5,29.47,South,173,0.0,0.0,38,0.00,,CLR,0.00,VWS V14.01,2013-10-24 09:18:00,
2013-10-24 04:19:00,56.8,32.2,29.47,South,174,0.0,0.0,39,0.00,,CLR,0.00,VWS V14.01,2013-10-24 09:19:00,
2013-10-24 04:20:00,56.8,32.2,29.47,South,174,0.0,0.0,39,0.00,,CLR,0.00,VWS V14.01,2013-10-24 09:20:00,
2013-10-24 04:21:00,56.8,32.2,29.47,South,174,0.0,0.0,39,0.00,,CLR,0.00,VWS V14.01,2013-10-24 09:21:00,
2013-10-24 04:22:00,56.8,32.2,29.47,South,174,0.0,0.0,39,0.00,,CLR,0.00,VWS V14.01,2013-10-24 09:22:00,
2013-10-24 04:23:00,56.8,32.8,29.47,South,173,0.0,0.0,40,0.00,,CLR,0.00,VWS V14.01,2013-10-24 09:23:00,
2013-10-24 04:24:00,56.8,32.8,29.47,South,175,0.0,0.0,40,0.00,,CLR,0.00,VWS V14.01,2013-10-24 09:24:00,
2013-10-24 04:25:00,56.8,32.8,29.47,South,173,0.0,0.0,40,0.00,,CLR,0.00,VWS V14.01,2013-10-24 09:25:00,
2013-10-24 04:26:00,56.8,32.8,29.47,South,174,0.0,0.0,40,0.00,,CLR,0.00,VWS V14.01,2013-10-24 09:26:00,
2013-10-24 04:27:00,56.8,32.8,29.47,South,174,0.0,0.0,40,0.00,,CLR,0.00,VWS V14.01,2013-10-24 09:27:00,
2013-10-24 04:28:00,56.8,32.8,29.47,South,174,0.0,0.0,40,0.00,,CLR,0.00,VWS V14.01,2013-10-24 09:28:00,
2013-10-24 04:29:00,56.8,32.2,29.47,South,175,0.0,0.0,39,0.00,,CLR,0.00,VWS V14.01,2013-10-24 09:29:00,
2013-10-24 04:30:00,56.8,32.2,29.47,SW,217,0.0,0.0,39,0.00,,CLR,0.00,VWS V14.01,2013-10-24 09:30:00,
2013-10-24 04:31:00,56.8,32.2,29.47,SW,216,0.0,0.0,39,0.00,,CLR,0.00,VWS V14.01,2013-10-24 09:31:00,
2013-10-24 04:32:00,56.8,32.2,29.47,SW,215,0.0,0.0,39,0.00,,CLR,0.00,VWS V14.01,2013-10-24 09:32:00,
2013-10-24 04:33:00,57.0,32.3,29.47,SW,217,0.0,0.0,39,0.00,,CLR,0.00,VWS V14.01,2013-10-24 09:33:00,
2013-10-24 04:34:00,57.2,31.8,29.47,SW,216,0.0,0.0,38,0.00,,CLR,0.00,VWS V14.01,2013-10-24 09:34:00,
2013-10-24 04:35:00,57.2,31.8,29.47,SW,217,0.0,0.0,38,0.00,,CLR,0.00,VWS V14.01,2013-10-24 09:35:00,
2013-10-24 04:36:00,57.4,32.0,29.47,SW,215,0.0,0.0,38,0.00,,CLR,0.00,VWS V14.01,2013-10-24 09:36:00,
2013-10-24 04:37:00,57.6,31.5,29.47,SW,217,0.0,0.0,37,0.00,,CLR,0.00,VWS V14.01,2013-10-24 09:37:00,
2013-10-24 04:38:00,57.7,31.7,29.47,SW,217,0.0,0.0,37,0.00,,CLR,0.00,VWS V14.01,2013-10-24 09:38:00,
2013-10-24 04:39:00,57.7,31.7,29.47,SW,215,0.0,0.0,37,0.00,,CLR,0.00,VWS V14.01,2013-10-24 09:39:00,
2013-10-24 04:40:00,57.9,31.8,29.50,SW,217,0.0,0.0,37,0.00,,CLR,0.00,VWS V14.01,2013-10-24 09:40:00,
2013-10-24 04:41:00,58.1,32.0,29.50,SW,216,0.0,0.0,37,0.00,,CLR,0.00,VWS V14.01,2013-10-24 09:41:00,
2013-10-24 04:42:00,58.1,31.3,29.50,SW,216,0.0,0.0,36,0.00,,CLR,0.00,VWS V14.01,2013-10-24 09:42:00,
2013-10-24 04:43:00,58.5,31.6,29.50,SW,216,0.0,0.0,36,0.00,,CLR,0.00,VWS V14.01,2013-10-24 09:43:00,
2013-10-24 04:44:00,58.5,31.6,29.50,SW,216,0.0,0.0,36,0.00,,CLR,0.00,VWS V14.01,2013-10-24 09:44:00,
2013-10-24 04:45:00,58.6,31.8,29.50,SW,216,0.0,0.0,36,0.00,,CLR,0.00,VWS V14.01,2013-10-24 09:45:00,
2013-10-24 04:46:00,58.6,31.8,29.50,SW,216,0.0,0.0,36,0.00,,CLR,0.00,VWS V14.01,2013-10-24 09:46:00,
2013-10-24 04:47:00,58.8,32.0,29.50,SW,216,0.0,0.0,36,0.00,,CLR,0.00,VWS V14.01,2013-10-24 09:47:00,
2013-10-24 04:48:00,59.0,31.4,29.50,SW,216,0.0,0.0,35,0.00,,CLR,0.00,VWS V14.01,2013-10-24 09:48:00,
2013-10-24 04:49:00,59.0,31.4,29.50,SW,216,0.0,0.0,35,0.00,,CLR,0.00,VWS V14.01,2013-10-24 09:49:00,
2013-10-24 04:50:00,59.2,31.6,29.50,SW,217,0.0,0.0,35,0.00,,CLR,0.00,VWS V14.01,2013-10-24 09:50:00,
2013-10-24 04:51:00,59.2,31.6,29.50,SW,217,0.0,0.0,35,0.00,,CLR,0.00,VWS V14.01,2013-10-24 09:51:00,
2013-10-24 04:52:00,59.2,31.6,29.50,SW,216,0.0,0.0,35,0.00,,CLR,0.00,VWS V14.01,2013-10-24 09:52:00,
2013-10-24 04:53:00,59.2,31.6,29.50,SW,217,0.0,0.0,35,0.00,,CLR,0.00,VWS V14.01,2013-10-24 09:53:00,
2013-10-24 04:54:00,59.2,31.6,29.50,SW,215,0.0,0.0,35,0.00,,CLR,0.00,VWS V14.01,2013-10-24 09:54:00,
2013-10-24 04:55:00,59.2,31.6,29.50,SW,216,0.0,0.0,35,0.00,,CLR,0.00,VWS V14.01,2013-10-24 09:55:00,
2013-10-24 04:56:00,59.2,31.6,29.50,SW,215,0.0,0.0,35,0.00,,CLR,0.00,VWS V14.01,2013-10-24 09:56:00,
2013-10-24 04:57:00,59.2,31.6,29.50,SW,216,0.0,0.0,35,0.00,,CLR,0.00,VWS V14.01,2013-10-24 09:57:00,
2013-10-24 04:58:00,59.2,31.6,29.50,SW,216,0.0,0.0,35,0.00,,CLR,0.00,VWS V14.01,2013-10-24 09:58:00,
2013-10-24 04:59:00,59.0,31.4,29.50,SW,215,0.0,0.0,35,0.00,,CLR,0.00,VWS V14.01,2013-10-24 09:59:00,
2013-10-24 05:00:00,59.0,31.4,29.50,SW,216,0.0,0.0,35,0.00,,CLR,0.00,VWS V14.01,2013-10-24 10:00:00,
2013-10-24 05:01:00,59.0,31.4,29.50,SW,216,0.0,0.0,35,0.00,,CLR,0.00,VWS V14.01,2013-10-24 10:01:00,
2013-10-24 05:02:00,58.8,32.0,29.50,WSW,254,0.0,0.0,36,0.00,,CLR,0.00,VWS V14.01,2013-10-24 10:02:00,
2013-10-24 05:03:00,58.8,32.0,29.50,WSW,253,0.0,0.0,36,0.00,,CLR,0.00,VWS V14.01,2013-10-24 10:03:00,
2013-10-24 05:04:00,58.8,32.0,29.50,WSW,253,0.0,0.0,36,0.00,,CLR,0.00,VWS V14.01,2013-10-24 10:04:00,
2013-10-24 05:05:00,58.8,32.0,29.50,West,277,0.0,0.0,36,0.00,,CLR,0.00,VWS V14.01,2013-10-24 10:05:00,
2013-10-24 05:06:00,58.8,32.0,29.50,West,277,0.0,0.0,36,0.00,,CLR,0.00,VWS V14.01,2013-10-24 10:06:00,
2013-10-24 05:07:00,58.8,32.0,29.50,WSW,245,0.0,0.0,36,0.00,,CLR,0.00,VWS V14.01,2013-10-24 10:07:00,
2013-10-24 05:08:00,58.8,32.0,29.50,WSW,246,0.0,0.0,36,0.00,,CLR,0.00,VWS V14.01,2013-10-24 10:08:00,
2013-10-24 05:09:00,58.8,32.0,29.50,West,272,0.0,2.7,36,0.00,,CLR,0.00,VWS V14.01,2013-10-24 10:09:00,
2013-10-24 05:10:00,58.8,32.0,29.50,West,269,0.0,0.0,36,0.00,,CLR,0.00,VWS V14.01,2013-10-24 10:10:00,
2013-10-24 05:11:00,58.8,32.0,29.50,West,269,0.0,0.0,36,0.00,,CLR,0.00,VWS V14.01,2013-10-24 10:11:00,
2013-10-24 05:12:00,58.8,32.0,29.50,NW,326,2.2,2.2,36,0.00,,CLR,0.00,VWS V14.01,2013-10-24 10:12:00,
2013-10-24 05:13:00,58.8,32.0,29.50,WSW,237,0.0,2.2,36,0.00,,CLR,0.00,VWS V14.01,2013-10-24 10:13:00,
2013-10-24 05:14:00,59.0,32.1,29.50,South,190,0.0,2.2,36,0.00,,CLR,0.00,VWS V14.01,2013-10-24 10:14:00,
2013-10-24 05:15:00,59.2,32.3,29.50,West,273,2.7,2.7,36,0.00,,CLR,0.00,VWS V14.01,2013-10-24 10:15:00,
2013-10-24 05:16:00,59.2,32.3,29.50,West,272,0.0,2.7,36,0.00,,CLR,0.00,VWS V14.01,2013-10-24 10:16:00,
2013-10-24 05:17:00,59.2,32.3,29.50,WSW,240,0.0,3.1,36,0.00,,CLR,0.00,VWS V14.01,2013-10-24 10:17:00,
2013-10-24 05:18:00,59.2,32.3,29.50,WSW,256,0.0,0.0,36,0.00,,CLR,0.00,VWS V14.01,2013-10-24 10:18:00,
2013-10-24 05:19:00,59.4,32.4,29.50,WSW,251,0.0,0.0,36,0.00,,CLR,0.00,VWS V14.01,2013-10-24 10:19:00,
2013-10-24 05:20:00,59.4,32.4,29.50,WSW,248,0.0,0.0,36,0.00,,CLR,0.00,VWS V14.01,2013-10-24 10:20:00,
2013-10-24 05:21:00,59.4,32.4,29.50,SW,234,3.6,3.6,36,0.00,,CLR,0.00,VWS V14.01,2013-10-24 10:21:00,
2013-10-24 05:22:00,59.4,31.7,29.50,SSW,205,2.7,4.0,35,0.00,,CLR,0.00,VWS V14.01,2013-10-24 10:22:00,
2013-10-24 05:23:00,59.4,31.7,29.50,SSW,204,0.0,2.7,35,0.00,,CLR,0.00,VWS V14.01,2013-10-24 10:23:00,
2013-10-24 05:24:00,59.5,32.6,29.50,SSW,205,0.0,0.0,36,0.00,,CLR,0.00,VWS V14.01,2013-10-24 10:24:00,
2013-10-24 05:25:00,59.4,32.4,29.50,SSW,204,0.0,0.0,36,0.00,,CLR,0.00,VWS V14.01,2013-10-24 10:25:00,
2013-10-24 05:26:00,59.4,32.4,29.50,SSW,204,0.0,0.0,36,0.00,,CLR,0.00,VWS V14.01,2013-10-24 10:26:00,
2013-10-24 05:27:00,59.4,32.4,29.50,SSW,206,0.0,0.0,36,0.00,,CLR,0.00,VWS V14.01,2013-10-24 10:27:00,
2013-10-24 05:28:00,59.4,32.4,29.50,WSW,239,0.0,0.0,36,0.00,,CLR,0.00,VWS V14.01,2013-10-24 10:28:00,
2013-10-24 05:29:00,59.4,32.4,29.50,WSW,241,0.0,0.0,36,0.00,,CLR,0.00,VWS V14.01,2013-10-24 10:29:00,
2013-10-24 05:30:00,59.2,32.3,29.50,SW,225,0.0,0.0,36,0.00,,CLR,0.00,VWS V14.01,2013-10-24 10:30:00,
2013-10-24 05:31:00,59.2,32.3,29.50,SW,225,0.0,0.0,36,0.00,,CLR,0.00,VWS V14.01,2013-10-24 10:31:00,
2013-10-24 05:32:00,59.2,32.3,29.50,WNW,293,0.0,0.0,36,0.00,,CLR,0.00,VWS V14.01,2013-10-24 10:32:00,
2013-10-24 05:33:00,59.2,32.3,29.50,SSW,207,0.0,2.7,36,0.00,,CLR,0.00,VWS V14.01,2013-10-24 10:33:00,
2013-10-24 05:34:00,59.2,32.3,29.50,SSW,208,0.0,0.0,36,0.00,,CLR,0.00,VWS V14.01,2013-10-24 10:34:00,
2013-10-24 05:35:00,59.2,31.6,29.50,SW,236,0.0,2.2,35,0.00,,CLR,0.00,VWS V14.01,2013-10-24 10:35:00,
2013-10-24 05:36:00,59.2,31.6,29.50,SSW,199,2.7,2.7,35,0.00,,CLR,0.00,VWS V14.01,2013-10-24 10:36:00,
2013-10-24 05:37:00,59.2,31.6,29.50,WSW,243,0.0,3.6,35,0.00,,CLR,0.00,VWS V14.01,2013-10-24 10:37:00,
2013-10-24 05:38:00,59.2,31.6,29.50,WSW,250,0.0,0.0,35,0.00,,CLR,0.00,VWS V14.01,2013-10-24 10:38:00,
2013-10-24 05:39:00,59.2,31.6,29.50,WSW,247,0.0,0.0,35,0.00,,CLR,0.00,VWS V14.01,2013-10-24 10:39:00,
2013-10-24 05:40:00,59.2,31.6,29.50,WSW,241,0.0,0.0,35,0.00,,CLR,0.00,VWS V14.01,2013-10-24 10:40:00,
2013-10-24 05:41:00,59.2,31.6,29.50,WSW,242,0.0,0.0,35,0.00,,CLR,0.00,VWS V14.01,2013-10-24 10:41:00,
2013-10-24 05:42:00,59.2,31.6,29.50,WSW,241,0.0,0.0,35,0.00,,CLR,0.00,VWS V14.01,2013-10-24 10:42:00,
2013-10-24 05:43:00,59.2,31.6,29.50,West,262,0.0,0.0,35,0.00,,CLR,0.00,VWS V14.01,2013-10-24 10:43:00,
2013-10-24 05:44:00,59.2,31.6,29.50,WSW,253,0.0,0.0,35,0.00,,CLR,0.00,VWS V14.01,2013-10-24 10:44:00,
2013-10-24 05:45:00,59.2,31.6,29.50,West,280,0.0,0.0,35,0.00,,CLR,0.00,VWS V14.01,2013-10-24 10:45:00,
2013-10-24 05:46:00,59.2,31.6,29.50,West,281,0.0,0.0,35,0.00,,CLR,0.00,VWS V14.01,2013-10-24 10:46:00,
2013-10-24 05:47:00,59.2,31.6,29.50,WSW,237,0.0,0.0,35,0.00,,CLR,0.00,VWS V14.01,2013-10-24 10:47:00,
2013-10-24 05:48:00,59.2,31.6,29.50,WSW,238,0.0,0.0,35,0.00,,CLR,0.00,VWS V14.01,2013-10-24 10:48:00,
2013-10-24 05:49:00,59.2,31.6,29.50,WSW,238,0.0,0.0,35,0.00,,CLR,0.00,VWS V14.01,2013-10-24 10:49:00,
2013-10-24 05:50:00,59.0,31.4,29.50,West,261,0.0,0.0,35,0.00,,CLR,0.00,VWS V14.01,2013-10-24 10:50:00,
2013-10-24 05:51:00,59.0,31.4,29.50,West,260,0.0,0.0,35,0.00,,CLR,0.00,VWS V14.01,2013-10-24 10:51:00,
2013-10-24 05:52:00,59.0,31.4,29.50,West,262,0.0,0.0,35,0.00,,CLR,0.00,VWS V14.01,2013-10-24 10:52:00,
2013-10-24 05:53:00,59.0,31.4,29.50,WSW,252,0.0,0.0,35,0.00,,CLR,0.00,VWS V14.01,2013-10-24 10:53:00,
2013-10-24 05:54:00,58.8,32.0,29.50,SW,223,0.0,0.0,36,0.00,,CLR,0.00,VWS V14.01,2013-10-24 10:54:00,
2013-10-24 05:55:00,59.0,31.4,29.53,WSW,238,0.0,0.0,35,0.00,,CLR,0.00,VWS V14.01,2013-10-24 10:55:00,
2013-10-24 05:56:00,59.0,31.4,29.53,SW,231,0.0,0.0,35,0.00,,CLR,0.00,VWS V14.01,2013-10-24 10:56:00,
2013-10-24 05:57:00,59.0,31.4,29.53,WSW,237,0.0,0.0,35,0.00,,CLR,0.00,VWS V14.01,2013-10-24 10:57:00,
2013-10-24 05:58:00,59.0,31.4,29.53,WSW,247,0.0,0.0,35,0.00,,CLR,0.00,VWS V14.01,2013-10-24 10:58:00,
2013-10-24 05:59:00,59.2,31.6,29.53,West,260,2.7,2.7,35,0.00,,CLR,0.00,VWS V14.01,2013-10-24 10:59:00,
2013-10-24 06:00:00,59.2,31.6,29.53,West,260,2.7,2.7,35,0.00,,CLR,0.00,VWS V14.01,2013-10-24 11:00:00,
2013-10-24 06:01:00,59.2,31.6,29.53,West,260,0.0,2.7,35,0.00,,CLR,0.00,VWS V14.01,2013-10-24 11:01:00,
2013-10-24 06:02:00,59.2,31.6,29.53,SW,228,0.0,0.0,35,0.00,,CLR,0.00,VWS V14.01,2013-10-24 11:02:00,
2013-10-24 06:03:00,59.2,31.6,29.53,SW,227,0.0,2.7,35,0.00,,CLR,0.00,VWS V14.01,2013-10-24 11:03:00,
2013-10-24 06:04:00,59.2,31.6,29.53,SW,227,0.0,0.0,35,0.00,,CLR,0.00,VWS V14.01,2013-10-24 11:04:00,
2013-10-24 06:05:00,59.2,31.6,29.53,SW,227,0.0,0.0,35,0.00,,CLR,0.00,VWS V14.01,2013-10-24 11:05:00,
2013-10-24 06:06:00,59.2,31.6,29.53,SW,227,0.0,0.0,35,0.00,,CLR,0.00,VWS V14.01,2013-10-24 11:06:00,
2013-10-24 06:07:00,59.0,31.4,29.53,West,273,2.2,2.2,35,0.00,,CLR,0.00,VWS V14.01,2013-10-24 11:07:00,
2013-10-24 06:08:00,59.0,31.4,29.53,WSW,243,0.0,2.7,35,0.00,,CLR,0.00,VWS V14.01,2013-10-24 11:08:00,
2013-10-24 06:09:00,59.0,31.4,29.53,West,271,0.0,3.1,35,0.00,,CLR,0.00,VWS V14.01,2013-10-24 11:09:00,
2013-10-24 06:10:00,59.0,31.4,29.53,SW,221,0.0,0.0,35,0.00,,CLR,0.00,VWS V14.01,2013-10-24 11:10:00,
2013-10-24 06:11:00,59.0,31.4,29.53,SW,221,0.0,0.0,35,0.00,,CLR,0.00,VWS V14.01,2013-10-24 11:11:00,
2013-10-24 06:12:00,59.0,31.4,29.53,SW,222,0.0,0.0,35,0.00,,CLR,0.00,VWS V14.01,2013-10-24 11:12:00,
2013-10-24 06:13:00,58.8,32.0,29.53,WSW,245,0.0,0.0,36,0.00,,CLR,0.00,VWS V14.01,2013-10-24 11:13:00,
2013-10-24 06:14:00,58.8,32.0,29.53,WSW,244,0.0,0.0,36,0.00,,CLR,0.00,VWS V14.01,2013-10-24 11:14:00,
2013-10-24 06:15:00,58.8,32.0,29.53,WSW,250,0.0,0.0,36,0.00,,CLR,0.00,VWS V14.01,2013-10-24 11:15:00,
2013-10-24 06:16:00,59.0,32.1,29.53,SW,215,0.0,0.0,36,0.00,,CLR,0.00,VWS V14.01,2013-10-24 11:16:00,
2013-10-24 06:17:00,59.0,32.1,29.53,SW,234,0.0,0.0,36,0.00,,CLR,0.00,VWS V14.01,2013-10-24 11:17:00,
2013-10-24 06:18:00,59.0,32.1,29.53,WSW,247,0.0,0.0,36,0.00,,CLR,0.00,VWS V14.01,2013-10-24 11:18:00,
2013-10-24 06:19:00,59.0,32.1,29.53,WSW,245,0.0,0.0,36,0.00,,CLR,0.00,VWS V14.01,2013-10-24 11:19:00,
2013-10-24 06:20:00,59.0,32.1,29.53,WSW,244,0.0,0.0,36,0.00,,CLR,0.00,VWS V14.01,2013-10-24 11:20:00,
2013-10-24 06:21:00,59.0,32.1,29.53,WSW,244,0.0,0.0,36,0.00,,CLR,0.00,VWS V14.01,2013-10-24 11:21:00,
2013-10-24 06:22:00,59.0,32.1,29.53,SW,219,0.0,0.0,36,0.00,,CLR,0.00,VWS V14.01,2013-10-24 11:22:00,
2013-10-24 06:23:00,59.0,31.4,29.53,SW,217,0.0,0.0,35,0.00,,CLR,0.00,VWS V14.01,2013-10-24 11:23:00,
2013-10-24 06:24:00,59.0,31.4,29.53,WSW,248,0.0,0.0,35,0.00,,CLR,0.00,VWS V14.01,2013-10-24 11:24:00,
2013-10-24 06:25:00,59.2,31.6,29.53,WSW,240,0.0,0.0,35,0.00,,CLR,0.00,VWS V14.01,2013-10-24 11:25:00,
2013-10-24 06:26:00,59.2,31.6,29.53,WSW,241,0.0,0.0,35,0.00,,CLR,0.00,VWS V14.01,2013-10-24 11:26:00,
2013-10-24 06:27:00,59.2,31.6,29.53,SW,230,2.2,2.2,35,0.00,,CLR,0.00,VWS V14.01,2013-10-24 11:27:00,
2013-10-24 06:28:00,59.2,31.6,29.53,SW,230,0.0,2.2,35,0.00,,CLR,0.00,VWS V14.01,2013-10-24 11:28:00,
2013-10-24 06:29:00,59.2,31.6,29.53,WSW,252,0.0,2.2,35,0.00,,CLR,0.00,VWS V14.01,2013-10-24 11:29:00,
2013-10-24 06:30:00,59.0,32.1,29.53,SW,222,0.0,2.2,36,0.00,,CLR,0.00,VWS V14.01,2013-10-24 11:30:00,
2013-10-24 06:31:00,59.0,32.1,29.53,SW,221,0.0,2.2,36,0.00,,CLR,0.00,VWS V14.01,2013-10-24 11:31:00,
2013-10-24 06:32:00,59.0,32.1,29.53,SW,220,0.0,0.0,36,0.00,,CLR,0.00,VWS V14.01,2013-10-24 11:32:00,
2013-10-24 06:33:00,59.0,32.1,29.53,SW,225,0.0,0.0,36,0.00,,CLR,0.00,VWS V14.01,2013-10-24 11:33:00,
2013-10-24 06:34:00,58.8,32.0,29.53,SW,224,0.0,0.0,36,0.00,,CLR,0.00,VWS V14.01,2013-10-24 11:34:00,
2013-10-24 06:35:00,58.8,32.0,29.53,SW,225,0.0,0.0,36,0.00,,CLR,0.00,VWS V14.01,2013-10-24 11:35:00,
2013-10-24 06:36:00,58.8,32.0,29.53,SW,224,0.0,0.0,36,0.00,,CLR,0.00,VWS V14.01,2013-10-24 11:36:00,
2013-10-24 06:37:00,58.8,32.0,29.53,SW,224,0.0,0.0,36,0.00,,CLR,0.00,VWS V14.01,2013-10-24 11:37:00,
2013-10-24 06:38:00,58.6,31.8,29.53,SW,228,0.0,0.0,36,0.00,,CLR,0.00,VWS V14.01,2013-10-24 11:38:00,
2013-10-24 06:39:00,58.6,31.8,29.53,SW,229,0.0,0.0,36,0.00,,CLR,0.00,VWS V14.01,2013-10-24 11:39:00,
2013-10-24 06:40:00,58.5,31.6,29.53,SW,228,0.0,0.0,36,0.00,,CLR,0.00,VWS V14.01,2013-10-24 11:40:00,
2013-10-24 06:41:00,58.5,31.6,29.53,SW,227,0.0,0.0,36,0.00,,CLR,0.00,VWS V14.01,2013-10-24 11:41:00,
2013-10-24 06:42:00,58.3,32.2,29.53,SW,227,0.0,0.0,37,0.00,,CLR,0.00,VWS V14.01,2013-10-24 11:42:00,
2013-10-24 06:43:00,58.3,32.2,29.53,SW,227,0.0,0.0,37,0.00,,CLR,0.00,VWS V14.01,2013-10-24 11:43:00,
2013-10-24 06:44:00,58.3,32.2,29.53,SW,228,0.0,0.0,37,0.00,,CLR,0.00,VWS V14.01,2013-10-24 11:44:00,
2013-10-24 06:45:00,58.1,32.0,29.53,SW,229,0.0,0.0,37,0.00,,CLR,0.00,VWS V14.01,2013-10-24 11:45:00,
2013-10-24 06:46:00,58.1,32.0,29.53,SW,228,0.0,0.0,37,0.00,,CLR,0.00,VWS V14.01,2013-10-24 11:46:00,
2013-10-24 06:47:00,57.9,31.8,29.53,SW,228,0.0,0.0,37,0.00,,CLR,0.00,VWS V14.01,2013-10-24 11:47:00,
2013-10-24 06:48:00,57.9,31.8,29.53,SW,229,0.0,0.0,37,0.00,,CLR,0.00,VWS V14.01,2013-10-24 11:48:00,
2013-10-24 06:49:00,57.7,31.7,29.53,SW,230,0.0,0.0,37,0.00,,CLR,0.00,VWS V14.01,2013-10-24 11:49:00,
2013-10-24 06:50:00,57.7,31.7,29.53,SW,228,0.0,0.0,37,0.00,,CLR,0.00,VWS V14.01,2013-10-24 11:50:00,
2013-10-24 06:51:00,57.7,31.7,29.53,SW,229,0.0,0.0,37,0.00,,CLR,0.00,VWS V14.01,2013-10-24 11:51:00,
2013-10-24 06:52:00,57.6,31.5,29.53,SW,229,0.0,0.0,37,0.00,,CLR,0.00,VWS V14.01,2013-10-24 11:52:00,
2013-10-24 06:53:00,57.6,31.5,29.53,SW,228,0.0,0.0,37,0.00,,CLR,0.00,VWS V14.01,2013-10-24 11:53:00,
2013-10-24 06:54:00,57.6,31.5,29.53,SW,229,0.0,0.0,37,0.00,,CLR,0.00,VWS V14.01,2013-10-24 11:54:00,
2013-10-24 06:55:00,57.4,31.3,29.53,SW,229,0.0,0.0,37,0.00,,CLR,0.00,VWS V14.01,2013-10-24 11:55:00,
2013-10-24 06:56:00,57.4,31.3,29.53,SW,229,0.0,0.0,37,0.00,,CLR,0.00,VWS V14.01,2013-10-24 11:56:00,
2013-10-24 06:57:00,57.4,32.0,29.53,SW,227,0.0,0.0,38,0.00,,CLR,0.00,VWS V14.01,2013-10-24 11:57:00,
2013-10-24 06:58:00,57.2,31.8,29.53,SW,229,0.0,0.0,38,0.00,,CLR,0.00,VWS V14.01,2013-10-24 11:58:00,
2013-10-24 06:59:00,57.2,31.8,29.53,SW,227,0.0,0.0,38,0.00,,CLR,0.00,VWS V14.01,2013-10-24 11:59:00,
2013-10-24 07:00:00,57.2,31.8,29.53,SW,229,0.0,0.0,38,0.00,,CLR,0.00,VWS V14.01,2013-10-24 12:00:00,
2013-10-24 07:01:00,57.0,31.7,29.53,SW,229,0.0,0.0,38,0.00,,CLR,0.00,VWS V14.01,2013-10-24 12:01:00,
2013-10-24 07:02:00,57.0,31.7,29.53,SW,229,0.0,0.0,38,0.00,,CLR,0.00,VWS V14.01,2013-10-24 12:02:00,
2013-10-24 07:03:00,57.0,32.3,29.53,SW,228,0.0,0.0,39,0.00,,CLR,0.00,VWS V14.01,2013-10-24 12:03:00,
2013-10-24 07:04:00,57.0,32.3,29.53,SW,228,0.0,0.0,39,0.00,,CLR,0.00,VWS V14.01,2013-10-24 12:04:00,
2013-10-24 07:05:00,56.8,32.2,29.53,SW,229,0.0,0.0,39,0.00,,CLR,0.00,VWS V14.01,2013-10-24 12:05:00,
2013-10-24 07:06:00,56.8,32.2,29.53,SW,228,0.0,0.0,39,0.00,,CLR,0.00,VWS V14.01,2013-10-24 12:06:00,
2013-10-24 07:07:00,56.8,32.2,29.53,SW,229,0.0,0.0,39,0.00,,CLR,0.00,VWS V14.01,2013-10-24 12:07:00,
2013-10-24 07:08:00,56.8,32.2,29.53,SW,229,0.0,0.0,39,0.00,,CLR,0.00,VWS V14.01,2013-10-24 12:08:00,
2013-10-24 07:09:00,56.8,32.2,29.53,SW,228,0.0,0.0,39,0.00,,CLR,0.00,VWS V14.01,2013-10-24 12:09:00,
2013-10-24 07:10:00,56.7,32.0,29.53,SW,230,0.0,0.0,39,0.00,,CLR,0.00,VWS V14.01,2013-10-24 12:10:00,
2013-10-24 07:11:00,56.7,32.0,29.53,SW,230,0.0,0.0,39,0.00,,CLR,0.00,VWS V14.01,2013-10-24 12:11:00,
2013-10-24 07:12:00,56.7,32.0,29.53,SW,229,0.0,0.0,39,0.00,,CLR,0.00,VWS V14.01,2013-10-24 12:12:00,
2013-10-24 07:13:00,56.7,32.0,29.53,SW,228,0.0,0.0,39,0.00,,CLR,0.00,VWS V14.01,2013-10-24 12:13:00,
2013-10-24 07:14:00,56.7,32.0,29.53,SW,229,0.0,0.0,39,0.00,,CLR,0.00,VWS V14.01,2013-10-24 12:14:00,
2013-10-24 07:15:00,56.5,32.5,29.53,SW,229,0.0,0.0,40,0.00,,CLR,0.00,VWS V14.01,2013-10-24 12:15:00,
2013-10-24 07:16:00,56.5,32.5,29.53,SW,228,0.0,0.0,40,0.00,,CLR,0.00,VWS V14.01,2013-10-24 12:16:00,
2013-10-24 07:17:00,56.5,32.5,29.53,SW,229,0.0,0.0,40,0.00,,CLR,0.00,VWS V14.01,2013-10-24 12:17:00,
2013-10-24 07:18:00,56.5,32.5,29.53,SW,227,0.0,0.0,40,0.00,,CLR,0.00,VWS V14.01,2013-10-24 12:18:00,
2013-10-24 07:19:00,56.3,32.3,29.53,SW,228,0.0,0.0,40,0.00,,CLR,0.00,VWS V14.01,2013-10-24 12:19:00,
2013-10-24 07:20:00,56.3,32.3,29.53,SW,229,0.0,0.0,40,0.00,,CLR,0.00,VWS V14.01,2013-10-24 12:20:00,
2013-10-24 07:21:00,56.3,32.3,29.53,SW,229,0.0,0.0,40,0.00,,CLR,0.00,VWS V14.01,2013-10-24 12:21:00,
2013-10-24 07:22:00,56.3,32.3,29.53,SW,228,0.0,0.0,40,0.00,,CLR,0.00,VWS V14.01,2013-10-24 12:22:00,
2013-10-24 07:23:00,56.1,32.2,29.53,SW,229,0.0,0.0,40,0.00,,CLR,0.00,VWS V14.01,2013-10-24 12:23:00,
2013-10-24 07:24:00,56.1,32.8,29.53,SW,228,0.0,0.0,41,0.00,,CLR,0.00,VWS V14.01,2013-10-24 12:24:00,
2013-10-24 07:25:00,56.1,32.8,29.53,SW,229,0.0,0.0,41,0.00,,CLR,0.00,VWS V14.01,2013-10-24 12:25:00,
2013-10-24 07:26:00,56.1,32.8,29.53,SW,229,0.0,0.0,41,0.00,,CLR,0.00,VWS V14.01,2013-10-24 12:26:00,
2013-10-24 07:27:00,56.1,32.8,29.53,SW,229,0.0,0.0,41,0.00,,CLR,0.00,VWS V14.01,2013-10-24 12:27:00,
2013-10-24 07:28:00,56.1,32.8,29.53,SW,229,0.0,0.0,41,0.00,,CLR,0.00,VWS V14.01,2013-10-24 12:28:00,
2013-10-24 07:29:00,55.9,32.6,29.53,SW,229,0.0,0.0,41,0.00,,CLR,0.00,VWS V14.01,2013-10-24 12:29:00,
2013-10-24 07:30:00,55.9,32.6,29.53,SW,228,0.0,0.0,41,0.00,,CLR,0.00,VWS V14.01,2013-10-24 12:30:00,
2013-10-24 07:31:00,55.9,32.6,29.53,SW,229,0.0,0.0,41,0.00,,CLR,0.00,VWS V14.01,2013-10-24 12:31:00,
2013-10-24 07:32:00,55.9,32.6,29.53,SW,229,0.0,0.0,41,0.00,,CLR,0.00,VWS V14.01,2013-10-24 12:32:00,
2013-10-24 07:33:00,55.9,32.6,29.53,SW,229,0.0,0.0,41,0.00,,CLR,0.00,VWS V14.01,2013-10-24 12:33:00,
2013-10-24 07:34:00,55.9,33.2,29.53,SW,229,0.0,0.0,42,0.00,,CLR,0.00,VWS V14.01,2013-10-24 12:34:00,
2013-10-24 07:35:00,55.9,33.2,29.53,SW,229,0.0,0.0,42,0.00,,CLR,0.00,VWS V14.01,2013-10-24 12:35:00,
2013-10-24 07:36:00,55.9,33.2,29.53,SW,229,0.0,0.0,42,0.00,,CLR,0.00,VWS V14.01,2013-10-24 12:36:00,
2013-10-24 07:37:00,55.9,33.2,29.53,SW,228,0.0,0.0,42,0.00,,CLR,0.00,VWS V14.01,2013-10-24 12:37:00,
2013-10-24 07:38:00,55.9,33.2,29.53,SW,228,0.0,0.0,42,0.00,,CLR,0.00,VWS V14.01,2013-10-24 12:38:00,
2013-10-24 07:39:00,55.9,33.2,29.53,SW,228,0.0,0.0,42,0.00,,CLR,0.00,VWS V14.01,2013-10-24 12:39:00,
2013-10-24 07:40:00,56.1,33.4,29.56,SW,228,0.0,0.0,42,0.00,,CLR,0.00,VWS V14.01,2013-10-24 12:40:00,
2013-10-24 07:41:00,56.1,33.4,29.56,SW,229,0.0,0.0,42,0.00,,CLR,0.00,VWS V14.01,2013-10-24 12:41:00,
2013-10-24 07:42:00,56.1,33.4,29.56,SW,229,0.0,0.0,42,0.00,,CLR,0.00,VWS V14.01,2013-10-24 12:42:00,
2013-10-24 07:43:00,56.3,33.5,29.56,SW,229,0.0,0.0,42,0.00,,CLR,0.00,VWS V14.01,2013-10-24 12:43:00,
2013-10-24 07:44:00,56.3,33.5,29.56,SW,229,0.0,0.0,42,0.00,,CLR,0.00,VWS V14.01,2013-10-24 12:44:00,
2013-10-24 07:45:00,56.3,33.5,29.56,SW,228,0.0,0.0,42,0.00,,CLR,0.00,VWS V14.01,2013-10-24 12:45:00,
2013-10-24 07:46:00,56.3,33.5,29.56,SW,228,0.0,0.0,42,0.00,,CLR,0.00,VWS V14.01,2013-10-24 12:46:00,
2013-10-24 07:47:00,56.3,33.5,29.56,SSW,213,0.0,0.0,42,0.00,,CLR,0.00,VWS V14.01,2013-10-24 12:47:00,
2013-10-24 07:48:00,56.5,33.7,29.56,SSW,194,0.0,0.0,42,0.00,,CLR,0.00,VWS V14.01,2013-10-24 12:48:00,
2013-10-24 07:49:00,56.5,33.7,29.56,WSW,250,0.0,0.0,42,0.00,,CLR,0.00,VWS V14.01,2013-10-24 12:49:00,
2013-10-24 07:50:00,56.7,33.8,29.56,SW,236,0.0,0.0,42,0.00,,CLR,0.00,VWS V14.01,2013-10-24 12:50:00,
2013-10-24 07:51:00,56.7,33.8,29.56,SW,236,0.0,0.0,42,0.00,,CLR,0.00,VWS V14.01,2013-10-24 12:51:00,
2013-10-24 07:52:00,56.7,33.8,29.56,SW,236,0.0,0.0,42,0.00,,CLR,0.00,VWS V14.01,2013-10-24 12:52:00,
2013-10-24 07:53:00,56.7,33.8,29.56,SW,236,0.0,0.0,42,0.00,,CLR,0.00,VWS V14.01,2013-10-24 12:53:00,
2013-10-24 07:54:00,56.7,33.2,29.56,SW,236,0.0,0.0,41,0.00,,CLR,0.00,VWS V14.01,2013-10-24 12:54:00,
2013-10-24 07:55:00,56.7,33.2,29.56,SW,235,0.0,0.0,41,0.00,,CLR,0.00,VWS V14.01,2013-10-24 12:55:00,
2013-10-24 07:56:00,56.7,33.2,29.56,SW,236,0.0,0.0,41,0.00,,CLR,0.00,VWS V14.01,2013-10-24 12:56:00,
2013-10-24 07:57:00,56.7,33.2,29.56,SW,236,0.0,0.0,41,0.00,,CLR,0.00,VWS V14.01,2013-10-24 12:57:00,
2013-10-24 07:58:00,56.7,33.2,29.56,SW,236,0.0,0.0,41,0.00,,CLR,0.00,VWS V14.01,2013-10-24 12:58:00,
2013-10-24 07:59:00,56.7,33.2,29.56,SW,236,0.0,0.0,41,0.00,,CLR,0.00,VWS V14.01,2013-10-24 12:59:00,
2013-10-24 08:00:00,56.8,33.4,29.56,SW,236,0.0,0.0,41,0.00,,CLR,0.00,VWS V14.01,2013-10-24 13:00:00,
2013-10-24 08:01:00,56.8,33.4,29.56,SW,235,0.0,0.0,41,0.00,,CLR,0.00,VWS V14.01,2013-10-24 13:01:00,
2013-10-24 08:02:00,56.8,33.4,29.56,SW,236,0.0,0.0,41,0.00,,CLR,0.00,VWS V14.01,2013-10-24 13:02:00,
2013-10-24 08:03:00,56.7,33.2,29.56,SW,236,0.0,0.0,41,0.00,,CLR,0.00,VWS V14.01,2013-10-24 13:03:00,
2013-10-24 08:04:00,56.7,33.2,29.56,WSW,237,0.0,0.0,41,0.00,,CLR,0.00,VWS V14.01,2013-10-24 13:04:00,
2013-10-24 08:05:00,56.7,33.2,29.56,SW,235,0.0,0.0,41,0.00,,CLR,0.00,VWS V14.01,2013-10-24 13:05:00,
2013-10-24 08:06:00,56.7,33.2,29.56,SW,235,0.0,0.0,41,0.00,,CLR,0.00,VWS V14.01,2013-10-24 13:06:00,
2013-10-24 08:07:00,56.7,33.8,29.56,SW,235,0.0,0.0,42,0.00,,CLR,0.00,VWS V14.01,2013-10-24 13:07:00,
2013-10-24 08:08:00,56.7,33.8,29.56,SW,236,0.0,0.0,42,0.00,,CLR,0.00,VWS V14.01,2013-10-24 13:08:00,
2013-10-24 08:09:00,56.7,33.2,29.56,SW,236,0.0,0.0,41,0.00,,CLR,0.00,VWS V14.01,2013-10-24 13:09:00,
2013-10-24 08:10:00,56.8,34.0,29.56,SW,235,0.0,0.0,42,0.00,,CLR,0.00,VWS V14.01,2013-10-24 13:10:00,
2013-10-24 08:11:00,56.8,34.0,29.56,SW,236,0.0,0.0,42,0.00,,CLR,0.00,VWS V14.01,2013-10-24 13:11:00,
2013-10-24 08:12:00,56.8,33.4,29.56,SW,235,0.0,0.0,41,0.00,,CLR,0.00,VWS V14.01,2013-10-24 13:12:00,
2013-10-24 08:13:00,56.8,33.4,29.56,SW,235,0.0,0.0,41,0.00,,CLR,0.00,VWS V14.01,2013-10-24 13:13:00,
2013-10-24 08:14:00,56.8,33.4,29.56,SW,236,0.0,0.0,41,0.00,,CLR,0.00,VWS V14.01,2013-10-24 13:14:00,
2013-10-24 08:15:00,56.8,33.4,29.56,SW,236,0.0,0.0,41,0.00,,CLR,0.00,VWS V14.01,2013-10-24 13:15:00,
2013-10-24 08:16:00,56.8,33.4,29.56,SW,236,0.0,0.0,41,0.00,,CLR,0.00,VWS V14.01,2013-10-24 13:16:00,
2013-10-24 08:17:00,56.8,33.4,29.56,SW,236,0.0,0.0,41,0.00,,CLR,0.00,VWS V14.01,2013-10-24 13:17:00,
2013-10-24 08:18:00,57.0,33.6,29.56,SW,236,0.0,0.0,41,0.00,,CLR,0.00,VWS V14.01,2013-10-24 13:18:00,
2013-10-24 08:19:00,57.0,33.6,29.56,SW,235,0.0,0.0,41,0.00,,CLR,0.00,VWS V14.01,2013-10-24 13:19:00,
2013-10-24 08:20:00,57.0,33.6,29.56,SW,235,0.0,0.0,41,0.00,,CLR,0.00,VWS V14.01,2013-10-24 13:20:00,
2013-10-24 08:21:00,57.0,33.6,29.56,SW,235,0.0,0.0,41,0.00,,CLR,0.00,VWS V14.01,2013-10-24 13:21:00,
2013-10-24 08:22:00,57.0,33.6,29.56,WSW,246,0.0,0.0,41,0.00,,CLR,0.00,VWS V14.01,2013-10-24 13:22:00,
2013-10-24 08:23:00,57.2,33.7,29.56,WSW,246,0.0,0.0,41,0.00,,CLR,0.00,VWS V14.01,2013-10-24 13:23:00,
2013-10-24 08:24:00,57.2,33.7,29.56,WSW,245,0.0,0.0,41,0.00,,CLR,0.00,VWS V14.01,2013-10-24 13:24:00,
2013-10-24 08:25:00,57.2,33.7,29.56,WSW,243,0.0,0.0,41,0.00,,CLR,0.00,VWS V14.01,2013-10-24 13:25:00,
2013-10-24 08:26:00,57.2,33.7,29.56,WSW,244,0.0,0.0,41,0.00,,CLR,0.00,VWS V14.01,2013-10-24 13:26:00,
2013-10-24 08:27:00,57.2,33.7,29.56,WSW,243,0.0,0.0,41,0.00,,CLR,0.00,VWS V14.01,2013-10-24 13:27:00,
2013-10-24 08:28:00,57.4,33.9,29.56,WSW,243,0.0,0.0,41,0.00,,CLR,0.00,VWS V14.01,2013-10-24 13:28:00,
2013-10-24 08:29:00,57.6,33.4,29.56,WSW,257,0.0,0.0,40,0.00,,CLR,0.00,VWS V14.01,2013-10-24 13:29:00,
2013-10-24 08:30:00,57.7,33.6,29.56,WSW,257,0.0,0.0,40,0.00,,CLR,0.00,VWS V14.01,2013-10-24 13:30:00,
2013-10-24 08:31:00,57.9,33.8,29.56,WSW,256,0.0,0.0,40,0.00,,CLR,0.00,VWS V14.01,2013-10-24 13:31:00,
2013-10-24 08:32:00,57.9,33.8,29.56,WSW,245,0.0,0.0,40,0.00,,CLR,0.00,VWS V14.01,2013-10-24 13:32:00,
2013-10-24 08:33:00,57.9,33.8,29.56,WSW,244,0.0,0.0,40,0.00,,CLR,0.00,VWS V14.01,2013-10-24 13:33:00,
2013-10-24 08:34:00,58.1,33.9,29.56,WSW,245,0.0,0.0,40,0.00,,CLR,0.00,VWS V14.01,2013-10-24 13:34:00,
2013-10-24 08:35:00,58.3,33.5,29.56,West,261,2.7,2.7,39,0.00,,FEW250,0.00,VWS V14.01,2013-10-24 13:35:00,
2013-10-24 08:36:00,58.5,33.6,29.56,West,261,2.7,2.7,39,0.00,,CLR,0.00,VWS V14.01,2013-10-24 13:36:00,
2013-10-24 08:37:00,58.5,33.0,29.56,West,265,0.0,3.6,38,0.00,,CLR,0.00,VWS V14.01,2013-10-24 13:37:00,
2013-10-24 08:38:00,58.8,33.3,29.56,West,265,0.0,0.0,38,0.00,,CLR,0.00,VWS V14.01,2013-10-24 13:38:00,
2013-10-24 08:39:00,58.8,33.3,29.56,WSW,253,2.7,3.6,38,0.00,,CLR,0.00,VWS V14.01,2013-10-24 13:39:00,
2013-10-24 08:40:00,59.0,33.5,29.56,WSW,255,2.2,2.7,38,0.00,,FEW250,0.00,VWS V14.01,2013-10-24 13:40:00,
2013-10-24 08:41:00,59.2,33.0,29.56,WSW,254,2.2,2.7,37,0.00,,CLR,0.00,VWS V14.01,2013-10-24 13:41:00,
2013-10-24 08:42:00,59.2,33.0,29.56,WSW,255,2.7,2.7,37,0.00,,CLR,0.00,VWS V14.01,2013-10-24 13:42:00,
2013-10-24 08:43:00,59.4,33.1,29.56,WSW,255,0.0,2.7,37,0.00,,CLR,0.00,VWS V14.01,2013-10-24 13:43:00,
2013-10-24 08:44:00,59.4,33.1,29.56,WSW,255,0.0,0.0,37,0.00,,CLR,0.00,VWS V14.01,2013-10-24 13:44:00,
2013-10-24 08:45:00,59.5,33.3,29.56,WSW,255,0.0,0.0,37,0.00,,FEW250,0.00,VWS V14.01,2013-10-24 13:45:00,
2013-10-24 08:46:00,59.5,33.3,29.56,WSW,254,0.0,0.0,37,0.00,,CLR,0.00,VWS V14.01,2013-10-24 13:46:00,
2013-10-24 08:47:00,59.7,33.4,29.56,WSW,256,0.0,0.0,37,0.00,,CLR,0.00,VWS V14.01,2013-10-24 13:47:00,
2013-10-24 08:48:00,59.7,33.4,29.56,WSW,240,2.7,2.7,37,0.00,,CLR,0.00,VWS V14.01,2013-10-24 13:48:00,
2013-10-24 08:49:00,59.9,33.6,29.56,WSW,240,2.2,2.7,37,0.00,,CLR,0.00,VWS V14.01,2013-10-24 13:49:00,
2013-10-24 08:50:00,59.9,33.6,29.56,WSW,239,0.0,0.0,37,0.00,,FEW250,0.00,VWS V14.01,2013-10-24 13:50:00,
2013-10-24 08:51:00,60.1,33.8,29.56,WSW,239,0.0,0.0,37,0.00,,CLR,0.00,VWS V14.01,2013-10-24 13:51:00,
2013-10-24 08:52:00,60.1,33.1,29.56,WSW,245,2.2,3.1,36,0.00,,CLR,0.00,VWS V14.01,2013-10-24 13:52:00,
2013-10-24 08:53:00,60.3,33.2,29.56,WSW,237,0.0,2.7,36,0.00,,CLR,0.00,VWS V14.01,2013-10-24 13:53:00,
2013-10-24 08:54:00,60.4,33.4,29.56,WSW,248,2.7,3.6,36,0.00,,CLR,0.00,VWS V14.01,2013-10-24 13:54:00,
2013-10-24 08:55:00,60.6,33.5,29.59,WSW,243,0.0,0.0,36,0.00,,FEW250,0.00,VWS V14.01,2013-10-24 13:55:00,
2013-10-24 08:56:00,60.6,33.5,29.59,WSW,244,0.0,0.0,36,0.00,,CLR,0.00,VWS V14.01,2013-10-24 13:56:00,
2013-10-24 08:57:00,60.6,33.5,29.59,SW,236,0.0,0.0,36,0.00,,CLR,0.00,VWS V14.01,2013-10-24 13:57:00,
2013-10-24 08:58:00,60.8,33.0,29.59,WSW,243,0.0,0.0,35,0.00,,CLR,0.00,VWS V14.01,2013-10-24 13:58:00,
2013-10-24 08:59:00,61.0,33.2,29.59,WSW,239,0.0,0.0,35,0.00,,CLR,0.00,VWS V14.01,2013-10-24 13:59:00,
2013-10-24 09:00:00,61.0,33.2,29.59,WSW,246,0.0,0.0,35,0.00,,CLR,0.00,VWS V14.01,2013-10-24 14:00:00,
2013-10-24 09:01:00,61.0,33.2,29.59,WSW,246,0.0,0.0,35,0.00,,FEW250,0.00,VWS V14.01,2013-10-24 14:01:00,
2013-10-24 09:02:00,61.2,33.3,29.59,WSW,238,3.6,3.6,35,0.00,,CLR,0.00,VWS V14.01,2013-10-24 14:02:00,
2013-10-24 09:03:00,61.2,33.3,29.59,WSW,243,3.6,3.6,35,0.00,,CLR,0.00,VWS V14.01,2013-10-24 14:03:00,
2013-10-24 09:04:00,61.3,33.5,29.59,WSW,254,0.0,3.6,35,0.00,,CLR,0.00,VWS V14.01,2013-10-24 14:04:00,
2013-10-24 09:05:00,61.5,33.6,29.59,WSW,253,0.0,0.0,35,0.00,,CLR,0.00,VWS V14.01,2013-10-24 14:05:00,
2013-10-24 09:06:00,61.5,33.6,29.59,WSW,255,0.0,0.0,35,0.00,,FEW250,0.00,VWS V14.01,2013-10-24 14:06:00,
2013-10-24 09:07:00,61.7,33.1,29.59,WSW,244,0.0,0.0,34,0.00,,CLR,0.00,VWS V14.01,2013-10-24 14:07:00,
2013-10-24 09:08:00,61.9,33.2,29.59,WSW,237,0.0,0.0,34,0.00,,CLR,0.00,VWS V14.01,2013-10-24 14:08:00,
2013-10-24 09:09:00,61.9,33.2,29.59,WNW,287,0.0,0.0,34,0.00,,CLR,0.00,VWS V14.01,2013-10-24 14:09:00,
2013-10-24 09:10:00,62.1,33.4,29.59,SW,232,2.7,2.7,34,0.00,,CLR,0.00,VWS V14.01,2013-10-24 14:10:00,
2013-10-24 09:11:00,62.1,33.4,29.59,WSW,246,4.0,4.0,34,0.00,,FEW250,0.00,VWS V14.01,2013-10-24 14:11:00,
2013-10-24 09:12:00,62.2,33.5,29.59,WSW,250,2.2,4.0,34,0.00,,CLR,0.00,VWS V14.01,2013-10-24 14:12:00,
2013-10-24 09:13:00,62.4,33.7,29.59,WSW,239,0.0,2.2,34,0.00,,CLR,0.00,VWS V14.01,2013-10-24 14:13:00,
2013-10-24 09:14:00,62.4,33.7,29.59,WSW,256,0.0,3.6,34,0.00,,CLR,0.00,VWS V14.01,2013-10-24 14:14:00,
2013-10-24 09:15:00,62.6,33.9,29.59,WSW,241,0.0,0.0,34,0.00,,CLR,0.00,VWS V14.01,2013-10-24 14:15:00,
2013-10-24 09:16:00,62.8,34.0,29.59,SW,234,3.6,3.6,34,0.00,,FEW250,0.00,VWS V14.01,2013-10-24 14:16:00,
2013-10-24 09:17:00,63.0,33.4,29.59,WSW,239,2.7,3.6,33,0.00,,CLR,0.00,VWS V14.01,2013-10-24 14:17:00,
2013-10-24 09:18:00,63.1,33.6,29.59,WSW,245,2.7,3.1,33,0.00,,CLR,0.00,VWS V14.01,2013-10-24 14:18:00,
2013-10-24 09:19:00,63.5,33.9,29.59,WSW,238,2.2,3.6,33,0.00,,CLR,0.00,VWS V14.01,2013-10-24 14:19:00,
2013-10-24 09:20:00,63.5,33.9,29.59,WSW,239,2.7,3.6,33,0.00,,CLR,0.00,VWS V14.01,2013-10-24 14:20:00,
2013-10-24 09:21:00,63.9,34.2,29.59,SW,217,0.0,3.6,33,0.00,,FEW250,0.00,VWS V14.01,2013-10-24 14:21:00,
2013-10-24 09:22:00,64.0,34.4,29.59,SW,217,0.0,0.0,33,0.00,,CLR,0.00,VWS V14.01,2013-10-24 14:22:00,
2013-10-24 09:23:00,64.0,34.4,29.59,NNW,340,0.0,4.0,33,0.00,,CLR,0.00,VWS V14.01,2013-10-24 14:23:00,
2013-10-24 09:24:00,64.2,33.8,29.59,WNW,282,2.2,3.1,32,0.00,,CLR,0.00,VWS V14.01,2013-10-24 14:24:00,
2013-10-24 09:25:00,64.4,33.9,29.59,NE,34,2.2,3.1,32,0.00,,CLR,0.00,VWS V14.01,2013-10-24 14:25:00,
2013-10-24 09:26:00,64.6,34.1,29.59,WSW,238,2.7,2.7,32,0.00,,FEW250,0.00,VWS V14.01,2013-10-24 14:26:00,
2013-10-24 09:27:00,64.6,34.1,29.59,WNW,284,0.0,2.2,32,0.00,,CLR,0.00,VWS V14.01,2013-10-24 14:27:00,
2013-10-24 09:28:00,64.8,34.2,29.59,SW,232,0.0,0.0,32,0.00,,CLR,0.00,VWS V14.01,2013-10-24 14:28:00,
2013-10-24 09:29:00,64.9,33.6,29.59,WSW,243,0.0,2.7,31,0.00,,CLR,0.00,VWS V14.01,2013-10-24 14:29:00,
2013-10-24 09:30:00,64.9,33.6,29.59,WSW,247,4.0,4.0,31,0.00,,CLR,0.00,VWS V14.01,2013-10-24 14:30:00,
2013-10-24 09:31:00,65.1,32.9,29.59,NW,323,2.7,4.0,30,0.00,,FEW250,0.00,VWS V14.01,2013-10-24 14:31:00,
2013-10-24 09:32:00,65.3,33.1,29.59,WSW,249,2.2,2.7,30,0.00,,CLR,0.00,VWS V14.01,2013-10-24 14:32:00,
2013-10-24 09:33:00,65.5,33.3,29.59,West,274,0.0,2.2,30,0.00,,CLR,0.00,VWS V14.01,2013-10-24 14:33:00,
2013-10-24 09:34:00,65.5,33.3,29.59,WNW,288,0.0,2.2,30,0.00,,CLR,0.00,VWS V14.01,2013-10-24 14:34:00,
2013-10-24 09:35:00,65.7,33.4,29.59,WNW,296,0.0,2.7,30,0.00,,CLR,0.00,VWS V14.01,2013-10-24 14:35:00,
2013-10-24 09:36:00,65.8,33.6,29.59,WNW,301,0.0,0.0,30,0.00,,FEW250,0.00,VWS V14.01,2013-10-24 14:36:00,
2013-10-24 09:37:00,65.8,33.6,29.59,WSW,256,0.0,0.0,30,0.00,,CLR,0.00,VWS V14.01,2013-10-24 14:37:00,
2013-10-24 09:38:00,66.0,33.7,29.59,WSW,253,0.0,2.7,30,0.00,,CLR,0.00,VWS V14.01,2013-10-24 14:38:00,
2013-10-24 09:39:00,66.2,33.0,29.59,West,272,0.0,2.7,29,0.00,,CLR,0.00,VWS V14.01,2013-10-24 14:39:00,
2013-10-24 09:40:00,66.4,33.2,29.59,NNW,333,0.0,0.0,29,0.00,,CLR,0.00,VWS V14.01,2013-10-24 14:40:00,
2013-10-24 09:41:00,66.4,32.3,29.59,NNW,331,0.0,2.2,28,0.00,,FEW250,0.00,VWS V14.01,2013-10-24 14:41:00,
2013-10-24 09:42:00,66.6,32.5,29.59,West,268,0.0,0.0,28,0.00,,CLR,0.00,VWS V14.01,2013-10-24 14:42:00,
2013-10-24 09:43:00,66.6,32.5,29.59,West,279,2.7,2.7,28,0.00,,CLR,0.00,VWS V14.01,2013-10-24 14:43:00,
2013-10-24 09:44:00,66.7,31.7,29.59,West,271,4.0,4.0,27,0.00,,CLR,0.00,VWS V14.01,2013-10-24 14:44:00,
2013-10-24 09:45:00,66.9,31.9,29.59,West,272,3.1,4.0,27,0.00,,CLR,0.00,VWS V14.01,2013-10-24 14:45:00,
2013-10-24 09:46:00,66.9,31.9,29.59,West,272,2.7,3.1,27,0.00,,FEW250,0.00,VWS V14.01,2013-10-24 14:46:00,
2013-10-24 09:47:00,67.1,31.1,29.59,WNW,298,2.7,3.6,26,0.00,,CLR,0.00,VWS V14.01,2013-10-24 14:47:00,
2013-10-24 09:48:00,67.1,31.1,29.59,NW,312,3.1,3.1,26,0.00,,CLR,0.00,VWS V14.01,2013-10-24 14:48:00,
2013-10-24 09:49:00,67.1,31.1,29.59,WSW,244,2.2,3.6,26,0.00,,CLR,0.00,VWS V14.01,2013-10-24 14:49:00,
2013-10-24 09:50:00,67.3,31.2,29.59,West,266,0.0,2.2,26,0.00,,CLR,0.00,VWS V14.01,2013-10-24 14:50:00,
2013-10-24 09:51:00,67.3,31.2,29.59,WSW,256,2.7,2.7,26,0.00,,FEW250,0.00,VWS V14.01,2013-10-24 14:51:00,
2013-10-24 09:52:00,67.5,31.4,29.59,West,267,3.6,3.6,26,0.00,,CLR,0.00,VWS V14.01,2013-10-24 14:52:00,
2013-10-24 09:53:00,67.5,31.4,29.59,WNW,287,2.7,3.6,26,0.00,,CLR,0.00,VWS V14.01,2013-10-24 14:53:00,
2013-10-24 09:54:00,67.5,31.4,29.59,WSW,258,2.7,2.7,26,0.00,,CLR,0.00,VWS V14.01,2013-10-24 14:54:00,
2013-10-24 09:55:00,67.6,31.6,29.59,NNW,344,2.7,4.0,26,0.00,,FEW250,0.00,VWS V14.01,2013-10-24 14:55:00,
2013-10-24 09:56:00,67.6,31.6,29.59,NNW,344,0.0,4.0,26,0.00,,CLR,0.00,VWS V14.01,2013-10-24 14:56:00,
2013-10-24 09:57:00,67.8,30.7,29.59,NNW,341,4.0,4.9,25,0.00,,CLR,0.00,VWS V14.01,2013-10-24 14:57:00,
2013-10-24 09:58:00,67.8,30.7,29.59,SW,229,0.0,4.0,25,0.00,,CLR,0.00,VWS V14.01,2013-10-24 14:58:00,
2013-10-24 09:59:00,68.0,29.9,29.59,NNW,328,2.7,4.0,24,0.00,,CLR,0.00,VWS V14.01,2013-10-24 14:59:00,
2013-10-24 10:00:00,68.0,30.9,29.59,WNW,295,2.7,4.9,25,0.00,,FEW250,0.00,VWS V14.01,2013-10-24 15:00:00,
2013-10-24 10:01:00,68.0,30.9,29.59,WNW,294,2.7,4.9,25,0.00,,CLR,0.00,VWS V14.01,2013-10-24 15:01:00,
2013-10-24 10:02:00,68.0,29.9,29.59,WNW,293,0.0,2.7,24,0.00,,CLR,0.00,VWS V14.01,2013-10-24 15:02:00,
2013-10-24 10:03:00,68.2,31.0,29.59,NNW,329,3.1,3.1,25,0.00,,CLR,0.00,VWS V14.01,2013-10-24 15:03:00,
2013-10-24 10:04:00,68.2,30.0,29.59,NNW,334,3.1,3.6,24,0.00,,CLR,0.00,VWS V14.01,2013-10-24 15:04:00,
2013-10-24 10:05:00,68.4,30.2,29.59,NW,323,2.7,3.1,24,0.00,,FEW250,0.00,VWS V14.01,2013-10-24 15:05:00,
2013-10-24 10:06:00,68.4,30.2,29.59,NW,323,2.7,3.1,24,0.00,,CLR,0.00,VWS V14.01,2013-10-24 15:06:00,
2013-10-24 10:07:00,68.4,30.2,29.59,WNW,293,2.7,3.6,24,0.00,,CLR,0.00,VWS V14.01,2013-10-24 15:07:00,
2013-10-24 10:08:00,68.5,30.4,29.59,NE,43,2.2,3.1,24,0.00,,CLR,0.00,VWS V14.01,2013-10-24 15:08:00,
2013-10-24 10:09:00,68.5,30.4,29.59,WNW,298,0.0,2.7,24,0.00,,CLR,0.00,VWS V14.01,2013-10-24 15:09:00,
2013-10-24 10:10:00,68.7,29.5,29.59,WNW,294,0.0,3.6,23,0.00,,FEW250,0.00,VWS V14.01,2013-10-24 15:10:00,
2013-10-24 10:11:00,68.7,29.5,29.59,WNW,289,2.7,3.6,23,0.00,,CLR,0.00,VWS V14.01,2013-10-24 15:11:00,
2013-10-24 10:12:00,68.9,29.6,29.59,WNW,290,2.2,4.0,23,0.00,,CLR,0.00,VWS V14.01,2013-10-24 15:12:00,
2013-10-24 10:13:00,68.9,30.6,29.59,NW,317,2.7,3.1,24,0.00,,CLR,0.00,VWS V14.01,2013-10-24 15:13:00,
2013-10-24 10:14:00,69.1,29.8,29.59,WNW,286,3.1,4.0,23,0.00,,CLR,0.00,VWS V14.01,2013-10-24 15:14:00,
2013-10-24 10:15:00,69.1,29.8,29.59,NW,317,0.0,0.0,23,0.00,,FEW250,0.00,VWS V14.01,2013-10-24 15:15:00,
2013-10-24 10:16:00,69.1,29.8,29.59,NW,317,0.0,0.0,23,0.00,,CLR,0.00,VWS V14.01,2013-10-24 15:16:00,
2013-10-24 10:17:00,69.3,29.9,29.59,SW,224,2.7,2.7,23,0.00,,CLR,0.00,VWS V14.01,2013-10-24 15:17:00,
2013-10-24 10:18:00,69.3,29.9,29.59,NW,313,2.2,3.6,23,0.00,,CLR,0.00,VWS V14.01,2013-10-24 15:18:00,
2013-10-24 10:19:00,69.4,30.1,29.59,NNE,15,2.7,2.7,23,0.00,,CLR,0.00,VWS V14.01,2013-10-24 15:19:00,
2013-10-24 10:20:00,69.6,30.2,29.59,NW,320,2.7,2.7,23,0.00,,FEW250,0.00,VWS V14.01,2013-10-24 15:20:00,
2013-10-24 10:21:00,69.6,30.2,29.59,NW,321,2.7,2.7,23,0.00,,CLR,0.00,VWS V14.01,2013-10-24 15:21:00,
2013-10-24 10:22:00,69.6,30.2,29.59,West,264,0.0,3.1,23,0.00,,CLR,0.00,VWS V14.01,2013-10-24 15:22:00,
2013-10-24 10:23:00,69.6,30.2,29.59,West,264,0.0,2.2,23,0.00,,CLR,0.00,VWS V14.01,2013-10-24 15:23:00,
2013-10-24 10:24:00,69.8,30.4,29.59,WNW,299,2.7,2.7,23,0.00,,CLR,0.00,VWS V14.01,2013-10-24 15:24:00,
2013-10-24 10:25:00,70.0,30.5,29.62,WNW,292,2.2,2.2,23,0.00,,FEW250,0.00,VWS V14.01,2013-10-24 15:25:00,
2013-10-24 10:26:00,70.0,30.5,29.62,WNW,292,2.2,2.2,23,0.00,,CLR,0.00,VWS V14.01,2013-10-24 15:26:00,
2013-10-24 10:27:00,70.0,30.5,29.62,WNW,292,2.7,2.7,23,0.00,,CLR,0.00,VWS V14.01,2013-10-24 15:27:00,
2013-10-24 10:28:00,70.0,30.5,29.62,WNW,289,0.0,2.7,23,0.00,,CLR,0.00,VWS V14.01,2013-10-24 15:28:00,
2013-10-24 10:29:00,70.2,30.7,29.62,WNW,291,0.0,2.7,23,0.00,,CLR,0.00,VWS V14.01,2013-10-24 15:29:00,
2013-10-24 10:30:00,70.3,30.8,29.62,NNW,333,2.7,2.7,23,0.00,,FEW250,0.00,VWS V14.01,2013-10-24 15:30:00,
2013-10-24 10:31:00,70.3,30.8,29.62,NNW,333,2.7,2.7,23,0.00,,CLR,0.00,VWS V14.01,2013-10-24 15:31:00,
2013-10-24 10:32:00,70.5,31.0,29.62,WNW,291,2.2,2.7,23,0.00,,CLR,0.00,VWS V14.01,2013-10-24 15:32:00,
2013-10-24 10:33:00,70.5,31.0,29.62,WNW,290,0.0,2.7,23,0.00,,CLR,0.00,VWS V14.01,2013-10-24 15:33:00,
2013-10-24 10:34:00,70.7,31.1,29.62,WNW,300,2.7,3.6,23,0.00,,CLR,0.00,VWS V14.01,2013-10-24 15:34:00,
2013-10-24 10:35:00,70.7,31.1,29.62,WNW,302,0.0,0.0,23,0.00,,FEW250,0.00,VWS V14.01,2013-10-24 15:35:00,
2013-10-24 10:36:00,70.7,31.1,29.62,WNW,302,0.0,0.0,23,0.00,,CLR,0.00,VWS V14.01,2013-10-24 15:36:00,
2013-10-24 10:37:00,70.9,31.3,29.62,WNW,302,0.0,0.0,23,0.00,,CLR,0.00,VWS V14.01,2013-10-24 15:37:00,
2013-10-24 10:38:00,70.9,31.3,29.62,WNW,287,0.0,2.7,23,0.00,,CLR,0.00,VWS V14.01,2013-10-24 15:38:00,
2013-10-24 10:39:00,70.9,31.3,29.62,WNW,298,0.0,0.0,23,0.00,,CLR,0.00,VWS V14.01,2013-10-24 15:39:00,
2013-10-24 10:40:00,71.1,31.4,29.62,WNW,299,2.7,2.7,23,0.00,,FEW250,0.00,VWS V14.01,2013-10-24 15:40:00,
2013-10-24 10:41:00,71.1,31.4,29.62,WNW,290,2.7,2.7,23,0.00,,CLR,0.00,VWS V14.01,2013-10-24 15:41:00,
2013-10-24 10:42:00,71.2,31.6,29.62,WNW,292,0.0,4.0,23,0.00,,CLR,0.00,VWS V14.01,2013-10-24 15:42:00,
2013-10-24 10:43:00,71.4,31.7,29.62,WNW,292,0.0,0.0,23,0.00,,CLR,0.00,VWS V14.01,2013-10-24 15:43:00,
2013-10-24 10:44:00,71.4,31.7,29.62,NNW,329,2.7,4.0,23,0.00,,CLR,0.00,VWS V14.01,2013-10-24 15:44:00,
2013-10-24 10:45:00,71.4,30.6,29.62,NW,316,0.0,0.0,22,0.00,,FEW250,0.00,VWS V14.01,2013-10-24 15:45:00,
2013-10-24 10:46:00,71.4,30.6,29.62,NW,317,0.0,0.0,22,0.00,,CLR,0.00,VWS V14.01,2013-10-24 15:46:00,
2013-10-24 10:47:00,71.6,30.8,29.62,NW,305,0.0,3.6,22,0.00,,CLR,0.00,VWS V14.01,2013-10-24 15:47:00,
2013-10-24 10:48:00,71.6,30.8,29.62,West,276,2.2,2.7,22,0.00,,CLR,0.00,VWS V14.01,2013-10-24 15:48:00,
2013-10-24 10:49:00,71.6,30.8,29.62,West,276,0.0,2.2,22,0.00,,CLR,0.00,VWS V14.01,2013-10-24 15:49:00,
2013-10-24 10:50:00,71.6,30.8,29.62,ENE,57,0.0,2.7,22,0.00,,FEW250,0.00,VWS V14.01,2013-10-24 15:50:00,
2013-10-24 10:51:00,71.8,30.9,29.62,NW,322,0.0,2.7,22,0.00,,CLR,0.00,VWS V14.01,2013-10-24 15:51:00,
2013-10-24 10:52:00,71.8,30.9,29.62,NW,306,0.0,3.1,22,0.00,,CLR,0.00,VWS V14.01,2013-10-24 15:52:00,
2013-10-24 10:53:00,71.8,30.9,29.62,NW,313,0.0,2.7,22,0.00,,CLR,0.00,VWS V14.01,2013-10-24 15:53:00,
2013-10-24 10:54:00,72.0,31.1,29.62,NW,316,0.0,0.0,22,0.00,,CLR,0.00,VWS V14.01,2013-10-24 15:54:00,
2013-10-24 10:55:00,72.0,31.1,29.62,NW,316,2.7,2.7,22,0.00,,FEW250,0.00,VWS V14.01,2013-10-24 15:55:00,
2013-10-24 10:56:00,72.0,31.1,29.62,NW,316,2.7,2.7,22,0.00,,CLR,0.00,VWS V14.01,2013-10-24 15:56:00,
2013-10-24 10:57:00,72.0,31.1,29.62,NW,316,2.7,2.7,22,0.00,,CLR,0.00,VWS V14.01,2013-10-24 15:57:00,
2013-10-24 10:58:00,72.0,31.1,29.62,NW,316,2.7,2.7,22,0.00,,CLR,0.00,VWS V14.01,2013-10-24 15:58:00,
2013-10-24 10:59:00,72.0,31.1,29.62,NW,316,2.7,2.7,22,0.00,,CLR,0.00,VWS V14.01,2013-10-24 15:59:00,
2013-10-24 11:00:00,72.0,31.1,29.62,NW,316,2.7,2.7,22,0.00,,FEW250,0.00,VWS V14.01,2013-10-24 16:00:00,
2013-10-24 11:01:00,72.0,31.1,29.62,NW,316,2.7,2.7,22,0.00,,CLR,0.00,VWS V14.01,2013-10-24 16:01:00,
2013-10-24 11:02:00,72.0,31.1,29.62,NW,316,2.7,2.7,22,0.00,,CLR,0.00,VWS V14.01,2013-10-24 16:02:00,
2013-10-24 11:03:00,72.1,31.2,29.62,NW,316,2.7,2.7,22,0.00,,CLR,0.00,VWS V14.01,2013-10-24 16:03:00,
2013-10-24 11:04:00,72.1,31.2,29.62,NW,316,2.7,2.7,22,0.00,,CLR,0.00,VWS V14.01,2013-10-24 16:04:00,
2013-10-24 11:05:00,72.1,31.2,29.62,NW,316,2.7,2.7,22,0.00,,FEW250,0.00,VWS V14.01,2013-10-24 16:05:00,
2013-10-24 11:06:00,72.1,31.2,29.62,NW,316,2.7,2.7,22,0.00,,CLR,0.00,VWS V14.01,2013-10-24 16:06:00,
2013-10-24 11:07:00,72.1,31.2,29.62,NW,316,2.7,2.7,22,0.00,,CLR,0.00,VWS V14.01,2013-10-24 16:07:00,
2013-10-24 11:08:00,72.1,31.2,29.62,NW,316,2.7,2.7,22,0.00,,CLR,0.00,VWS V14.01,2013-10-24 16:08:00,
2013-10-24 11:09:00,72.3,31.4,29.62,NW,316,2.7,2.7,22,0.00,,CLR,0.00,VWS V14.01,2013-10-24 16:09:00,
2013-10-24 11:10:00,72.3,31.4,29.62,NW,316,2.7,2.7,22,0.00,,FEW250,0.00,VWS V14.01,2013-10-24 16:10:00,
2013-10-24 11:11:00,72.3,31.4,29.62,NW,316,2.7,2.7,22,0.00,,CLR,0.00,VWS V14.01,2013-10-24 16:11:00,
2013-10-24 11:12:00,72.3,31.4,29.62,NW,316,2.7,2.7,22,0.00,,CLR,0.00,VWS V14.01,2013-10-24 16:12:00,
2013-10-24 11:13:00,72.5,31.5,29.62,NW,316,2.7,2.7,22,0.00,,CLR,0.00,VWS V14.01,2013-10-24 16:13:00,
2013-10-24 11:14:00,72.5,31.5,29.62,NW,316,2.7,2.7,22,0.00,,CLR,0.00,VWS V14.01,2013-10-24 16:14:00,
2013-10-24 11:15:00,72.5,31.5,29.62,NW,316,2.7,2.7,22,0.00,,FEW250,0.00,VWS V14.01,2013-10-24 16:15:00,
2013-10-24 11:16:00,72.5,31.5,29.62,NW,316,2.7,2.7,22,0.00,,CLR,0.00,VWS V14.01,2013-10-24 16:16:00,
2013-10-24 11:17:00,72.7,31.7,29.62,NW,316,2.7,2.7,22,0.00,,CLR,0.00,VWS V14.01,2013-10-24 16:17:00,
2013-10-24 11:18:00,72.7,31.7,29.62,NW,316,2.7,2.7,22,0.00,,CLR,0.00,VWS V14.01,2013-10-24 16:18:00,
2013-10-24 11:19:00,72.7,31.7,29.62,NW,316,2.7,2.7,22,0.00,,CLR,0.00,VWS V14.01,2013-10-24 16:19:00,
2013-10-24 11:20:00,72.7,31.7,29.62,NW,316,2.7,2.7,22,0.00,,FEW250,0.00,VWS V14.01,2013-10-24 16:20:00,
2013-10-24 11:21:00,72.7,31.7,29.62,NW,316,2.7,2.7,22,0.00,,CLR,0.00,VWS V14.01,2013-10-24 16:21:00,
2013-10-24 11:22:00,72.7,31.7,29.62,NW,316,2.7,2.7,22,0.00,,CLR,0.00,VWS V14.01,2013-10-24 16:22:00,
2013-10-24 11:23:00,72.7,31.7,29.62,NW,316,2.7,2.7,22,0.00,,CLR,0.00,VWS V14.01,2013-10-24 16:23:00,
2013-10-24 11:24:00,72.7,31.7,29.62,NW,316,2.7,2.7,22,0.00,,CLR,0.00,VWS V14.01,2013-10-24 16:24:00,
2013-10-24 11:25:00,72.9,31.8,29.62,NW,316,2.7,2.7,22,0.00,,FEW250,0.00,VWS V14.01,2013-10-24 16:25:00,
2013-10-24 11:26:00,72.9,31.8,29.62,NW,316,2.7,2.7,22,0.00,,CLR,0.00,VWS V14.01,2013-10-24 16:26:00,
2013-10-24 11:27:00,72.9,31.8,29.62,NW,316,2.7,2.7,22,0.00,,CLR,0.00,VWS V14.01,2013-10-24 16:27:00,
2013-10-24 11:28:00,72.9,31.8,29.62,NW,316,2.7,2.7,22,0.00,,CLR,0.00,VWS V14.01,2013-10-24 16:28:00,
2013-10-24 11:29:00,72.9,31.8,29.62,NW,316,2.7,2.7,22,0.00,,CLR,0.00,VWS V14.01,2013-10-24 16:29:00,
2013-10-24 11:30:00,73.0,32.0,29.62,NW,316,2.7,2.7,22,0.00,,FEW250,0.00,VWS V14.01,2013-10-24 16:30:00,
2013-10-24 11:31:00,73.0,32.0,29.62,NW,316,2.7,2.7,22,0.00,,CLR,0.00,VWS V14.01,2013-10-24 16:31:00,
2013-10-24 11:32:00,73.0,32.0,29.62,NW,316,2.7,2.7,22,0.00,,CLR,0.00,VWS V14.01,2013-10-24 16:32:00,
2013-10-24 11:33:00,73.0,32.0,29.62,NW,316,2.7,2.7,22,0.00,,CLR,0.00,VWS V14.01,2013-10-24 16:33:00,
2013-10-24 11:34:00,73.0,32.0,29.62,NW,316,2.7,2.7,22,0.00,,CLR,0.00,VWS V14.01,2013-10-24 16:34:00,
2013-10-24 11:35:00,73.2,32.1,29.62,NW,316,2.7,2.7,22,0.00,,BKN250,0.00,VWS V14.01,2013-10-24 16:35:00,
2013-10-24 11:36:00,73.2,32.1,29.62,NW,316,2.7,2.7,22,0.00,,CLR,0.00,VWS V14.01,2013-10-24 16:36:00,
2013-10-24 11:37:00,73.2,32.1,29.62,WNW,291,3.1,3.1,22,0.00,,CLR,0.00,VWS V14.01,2013-10-24 16:37:00,
2013-10-24 11:38:00,73.2,32.1,29.62,WNW,294,3.1,3.1,22,0.00,,CLR,0.00,VWS V14.01,2013-10-24 16:38:00,
2013-10-24 11:39:00,73.0,32.0,29.62,WNW,294,3.1,3.1,22,0.00,,CLR,0.00,VWS V14.01,2013-10-24 16:39:00,
2013-10-24 11:40:00,73.0,32.0,29.62,WNW,294,3.1,3.1,22,0.00,,BKN250,0.00,VWS V14.01,2013-10-24 16:40:00,
2013-10-24 11:41:00,73.0,32.0,29.62,WNW,294,3.1,3.1,22,0.00,,CLR,0.00,VWS V14.01,2013-10-24 16:41:00,
2013-10-24 11:42:00,73.0,32.0,29.62,WNW,301,0.0,3.1,22,0.00,,CLR,0.00,VWS V14.01,2013-10-24 16:42:00,
2013-10-24 11:43:00,73.0,32.0,29.62,WNW,301,0.0,0.0,22,0.00,,CLR,0.00,VWS V14.01,2013-10-24 16:43:00,
2013-10-24 11:44:00,73.0,32.0,29.62,WNW,301,0.0,0.0,22,0.00,,CLR,0.00,VWS V14.01,2013-10-24 16:44:00,
2013-10-24 11:45:00,73.0,32.0,29.62,ENE,64,0.0,0.0,22,0.00,,BKN250,0.00,VWS V14.01,2013-10-24 16:45:00,
2013-10-24 11:46:00,73.0,32.0,29.62,ENE,64,0.0,0.0,22,0.00,,CLR,0.00,VWS V14.01,2013-10-24 16:46:00,
2013-10-24 11:47:00,73.0,32.0,29.62,ENE,64,0.0,0.0,22,0.00,,CLR,0.00,VWS V14.01,2013-10-24 16:47:00,
2013-10-24 11:48:00,73.0,32.0,29.62,ENE,64,0.0,0.0,22,0.00,,CLR,0.00,VWS V14.01,2013-10-24 16:48:00,
2013-10-24 11:49:00,73.0,32.0,29.62,ENE,64,0.0,0.0,22,0.00,,CLR,0.00,VWS V14.01,2013-10-24 16:49:00,
2013-10-24 11:50:00,72.9,31.8,29.62,WNW,297,0.0,2.7,22,0.00,,BKN250,0.00,VWS V14.01,2013-10-24 16:50:00,
2013-10-24 11:51:00,72.9,31.8,29.62,WNW,297,0.0,2.7,22,0.00,,CLR,0.00,VWS V14.01,2013-10-24 16:51:00,
2013-10-24 11:52:00,72.9,31.8,29.62,NNE,28,2.7,3.1,22,0.00,,CLR,0.00,VWS V14.01,2013-10-24 16:52:00,
2013-10-24 11:53:00,72.7,31.7,29.62,WSW,253,0.0,2.7,22,0.00,,CLR,0.00,VWS V14.01,2013-10-24 16:53:00,
2013-10-24 11:54:00,72.5,31.5,29.62,ENE,69,0.0,0.0,22,0.00,,CLR,0.00,VWS V14.01,2013-10-24 16:54:00,
2013-10-24 11:55:00,72.3,31.4,29.62,ENE,63,0.0,0.0,22,0.00,,BKN250,0.00,VWS V14.01,2013-10-24 16:55:00,
2013-10-24 11:56:00,72.3,31.4,29.62,ENE,63,0.0,0.0,22,0.00,,CLR,0.00,VWS V14.01,2013-10-24 16:56:00,
2013-10-24 11:57:00,72.1,31.2,29.62,ENE,63,0.0,0.0,22,0.00,,CLR,0.00,VWS V14.01,2013-10-24 16:57:00,
2013-10-24 11:58:00,72.1,31.2,29.62,ENE,63,0.0,0.0,22,0.00,,CLR,0.00,VWS V14.01,2013-10-24 16:58:00,
2013-10-24 11:59:00,72.1,31.2,29.62,ENE,63,0.0,0.0,22,0.00,,CLR,0.00,VWS V14.01,2013-10-24 16:59:00,
2013-10-24 12:00:00,72.1,31.2,29.62,ENE,63,0.0,0.0,22,0.00,,BKN250,0.00,VWS V14.01,2013-10-24 17:00:00,
2013-10-24 12:01:00,72.1,31.2,29.62,ENE,63,0.0,0.0,22,0.00,,CLR,0.00,VWS V14.01,2013-10-24 17:01:00,
2013-10-24 12:02:00,72.3,31.4,29.62,ENE,63,0.0,0.0,22,0.00,,CLR,0.00,VWS V14.01,2013-10-24 17:02:00,
2013-10-24 12:03:00,72.5,31.5,29.62,ENE,63,0.0,0.0,22,0.00,,CLR,0.00,VWS V14.01,2013-10-24 17:03:00,
2013-10-24 12:04:00,72.5,31.5,29.62,ENE,63,0.0,0.0,22,0.00,,CLR,0.00,VWS V14.01,2013-10-24 17:04:00,
2013-10-24 12:05:00,72.7,31.7,29.62,ENE,63,0.0,0.0,22,0.00,,BKN250,0.00,VWS V14.01,2013-10-24 17:05:00,
2013-10-24 12:06:00,72.7,31.7,29.62,ENE,63,0.0,0.0,22,0.00,,CLR,0.00,VWS V14.01,2013-10-24 17:06:00,
2013-10-24 12:07:00,72.7,31.7,29.62,ENE,63,0.0,0.0,22,0.00,,CLR,0.00,VWS V14.01,2013-10-24 17:07:00,
2013-10-24 12:08:00,72.7,31.7,29.62,ENE,63,0.0,0.0,22,0.00,,CLR,0.00,VWS V14.01,2013-10-24 17:08:00,
2013-10-24 12:09:00,72.7,31.7,29.62,ENE,63,0.0,0.0,22,0.00,,CLR,0.00,VWS V14.01,2013-10-24 17:09:00,
2013-10-24 12:10:00,72.7,31.7,29.62,ENE,63,0.0,0.0,22,0.00,,BKN250,0.00,VWS V14.01,2013-10-24 17:10:00,
2013-10-24 12:11:00,72.7,31.7,29.62,ENE,63,0.0,0.0,22,0.00,,CLR,0.00,VWS V14.01,2013-10-24 17:11:00,
2013-10-24 12:12:00,72.7,31.7,29.62,ENE,63,0.0,0.0,22,0.00,,CLR,0.00,VWS V14.01,2013-10-24 17:12:00,
2013-10-24 12:13:00,72.7,31.7,29.62,ENE,63,0.0,0.0,22,0.00,,CLR,0.00,VWS V14.01,2013-10-24 17:13:00,
2013-10-24 12:14:00,72.7,31.7,29.62,ENE,63,0.0,0.0,22,0.00,,CLR,0.00,VWS V14.01,2013-10-24 17:14:00,
2013-10-24 12:15:00,73.6,32.4,29.62,ENE,63,0.0,0.0,22,0.00,,BKN250,0.00,VWS V14.01,2013-10-24 17:15:00,
2013-10-24 12:16:00,73.8,32.6,29.62,ENE,63,0.0,0.0,22,0.00,,CLR,0.00,VWS V14.01,2013-10-24 17:16:00,
2013-10-24 12:17:00,73.8,32.6,29.62,ENE,63,0.0,0.0,22,0.00,,CLR,0.00,VWS V14.01,2013-10-24 17:17:00,
2013-10-24 12:18:00,73.8,32.6,29.62,ENE,63,0.0,0.0,22,0.00,,CLR,0.00,VWS V14.01,2013-10-24 17:18:00,
2013-10-24 12:19:00,73.8,32.6,29.62,ENE,63,0.0,0.0,22,0.00,,CLR,0.00,VWS V14.01,2013-10-24 17:19:00,
2013-10-24 12:20:00,74.1,32.9,29.62,ENE,63,0.0,0.0,22,0.00,,BKN250,0.00,VWS V14.01,2013-10-24 17:20:00,
2013-10-24 12:21:00,74.1,32.9,29.62,ENE,63,0.0,0.0,22,0.00,,CLR,0.00,VWS V14.01,2013-10-24 17:21:00,
2013-10-24 12:22:00,74.1,32.9,29.62,ENE,63,0.0,0.0,22,0.00,,CLR,0.00,VWS V14.01,2013-10-24 17:22:00,
2013-10-24 12:23:00,74.1,32.9,29.62,ENE,63,0.0,0.0,22,0.00,,CLR,0.00,VWS V14.01,2013-10-24 17:23:00,
2013-10-24 12:24:00,74.1,32.9,29.62,ENE,63,0.0,0.0,22,0.00,,CLR,0.00,VWS V14.01,2013-10-24 17:24:00,
2013-10-24 12:25:00,74.1,32.9,29.62,ENE,63,0.0,0.0,22,0.00,,BKN250,0.00,VWS V14.01,2013-10-24 17:25:00,
2013-10-24 12:26:00,74.1,32.9,29.62,ENE,63,0.0,0.0,22,0.00,,CLR,0.00,VWS V14.01,2013-10-24 17:26:00,
2013-10-24 12:27:00,74.1,32.9,29.62,ENE,63,0.0,0.0,22,0.00,,CLR,0.00,VWS V14.01,2013-10-24 17:27:00,
2013-10-24 12:28:00,74.3,33.0,29.62,ENE,63,0.0,0.0,22,0.00,,CLR,0.00,VWS V14.01,2013-10-24 17:28:00,
2013-10-24 12:29:00,74.3,33.0,29.62,ENE,63,0.0,0.0,22,0.00,,CLR,0.00,VWS V14.01,2013-10-24 17:29:00,
2013-10-24 12:30:00,74.5,33.2,29.62,ENE,63,0.0,0.0,22,0.00,,BKN250,0.00,VWS V14.01,2013-10-24 17:30:00,
2013-10-24 12:31:00,74.5,33.2,29.62,ENE,63,0.0,0.0,22,0.00,,CLR,0.00,VWS V14.01,2013-10-24 17:31:00,
2013-10-24 12:32:00,74.5,33.2,29.62,ENE,63,0.0,0.0,22,0.00,,CLR,0.00,VWS V14.01,2013-10-24 17:32:00,
2013-10-24 12:33:00,74.5,33.2,29.62,ENE,63,0.0,0.0,22,0.00,,CLR,0.00,VWS V14.01,2013-10-24 17:33:00,
2013-10-24 12:34:00,74.5,33.2,29.62,ENE,63,0.0,0.0,22,0.00,,CLR,0.00,VWS V14.01,2013-10-24 17:34:00,
2013-10-24 12:35:00,74.5,33.2,29.62,ENE,63,0.0,0.0,22,0.00,,BKN250,0.00,VWS V14.01,2013-10-24 17:35:00,
2013-10-24 12:36:00,74.5,33.2,29.62,ENE,63,0.0,0.0,22,0.00,,CLR,0.00,VWS V14.01,2013-10-24 17:36:00,
2013-10-24 12:37:00,74.7,33.3,29.62,ENE,63,0.0,0.0,22,0.00,,CLR,0.00,VWS V14.01,2013-10-24 17:37:00,
2013-10-24 12:38:00,74.7,33.3,29.62,ENE,63,0.0,0.0,22,0.00,,CLR,0.00,VWS V14.01,2013-10-24 17:38:00,
2013-10-24 12:39:00,74.7,33.3,29.62,ENE,63,0.0,0.0,22,0.00,,CLR,0.00,VWS V14.01,2013-10-24 17:39:00,
2013-10-24 12:40:00,74.7,33.3,29.62,ENE,63,0.0,0.0,22,0.00,,BKN250,0.00,VWS V14.01,2013-10-24 17:40:00,
2013-10-24 12:41:00,75.0,33.6,29.62,ENE,63,0.0,0.0,22,0.00,,CLR,0.00,VWS V14.01,2013-10-24 17:41:00,
2013-10-24 12:42:00,75.0,33.6,29.62,ENE,63,0.0,0.0,22,0.00,,CLR,0.00,VWS V14.01,2013-10-24 17:42:00,
2013-10-24 12:43:00,75.0,33.6,29.62,ENE,63,0.0,0.0,22,0.00,,CLR,0.00,VWS V14.01,2013-10-24 17:43:00,
2013-10-24 12:44:00,75.0,33.6,29.62,ENE,63,0.0,0.0,22,0.00,,CLR,0.00,VWS V14.01,2013-10-24 17:44:00,
2013-10-24 12:45:00,75.0,33.6,29.62,ESE,123,3.1,3.1,22,0.00,,BKN250,0.00,VWS V14.01,2013-10-24 17:45:00,
2013-10-24 12:46:00,75.0,33.6,29.62,ESE,123,3.1,3.1,22,0.00,,CLR,0.00,VWS V14.01,2013-10-24 17:46:00,
2013-10-24 12:47:00,75.0,33.6,29.62,ESE,123,3.1,3.1,22,0.00,,CLR,0.00,VWS V14.01,2013-10-24 17:47:00,
2013-10-24 12:48:00,74.7,33.3,29.62,WNW,285,3.1,3.1,22,0.00,,CLR,0.00,VWS V14.01,2013-10-24 17:48:00,
2013-10-24 12:49:00,74.7,33.3,29.62,WNW,285,3.1,3.1,22,0.00,,CLR,0.00,VWS V14.01,2013-10-24 17:49:00,
2013-10-24 12:50:00,74.7,33.3,29.62,WNW,285,3.1,3.1,22,0.00,,BKN250,0.00,VWS V14.01,2013-10-24 17:50:00,
2013-10-24 12:51:00,74.7,33.3,29.62,WNW,285,3.1,3.1,22,0.00,,CLR,0.00,VWS V14.01,2013-10-24 17:51:00,
2013-10-24 12:52:00,74.7,33.3,29.62,WNW,285,3.1,3.1,22,0.00,,CLR,0.00,VWS V14.01,2013-10-24 17:52:00,
2013-10-24 12:53:00,74.7,33.3,29.62,NE,55,3.1,3.1,22,0.00,,CLR,0.00,VWS V14.01,2013-10-24 17:53:00,
2013-10-24 12:54:00,74.8,33.5,29.62,NE,55,3.1,3.1,22,0.00,,CLR,0.00,VWS V14.01,2013-10-24 17:54:00,
2013-10-24 12:55:00,74.8,33.5,29.62,NE,39,4.9,4.9,22,0.00,,BKN250,0.00,VWS V14.01,2013-10-24 17:55:00,
2013-10-24 12:56:00,75.0,33.6,29.62,NE,39,4.9,4.9,22,0.00,,CLR,0.00,VWS V14.01,2013-10-24 17:56:00,
2013-10-24 12:57:00,75.0,33.6,29.62,WSW,241,2.7,4.9,22,0.00,,CLR,0.00,VWS V14.01,2013-10-24 17:57:00,
2013-10-24 12:58:00,75.2,33.8,29.62,WSW,241,2.7,2.7,22,0.00,,CLR,0.00,VWS V14.01,2013-10-24 17:58:00,
2013-10-24 12:59:00,75.2,33.8,29.62,WSW,241,2.7,2.7,22,0.00,,CLR,0.00,VWS V14.01,2013-10-24 17:59:00,
2013-10-24 13:00:00,75.4,33.9,29.62,WSW,241,2.7,2.7,22,0.00,,BKN250,0.00,VWS V14.01,2013-10-24 18:00:00,
2013-10-24 13:01:00,75.4,33.9,29.62,WSW,241,2.7,2.7,22,0.00,,CLR,0.00,VWS V14.01,2013-10-24 18:01:00,
2013-10-24 13:02:00,75.4,33.9,29.62,WSW,241,2.7,2.7,22,0.00,,CLR,0.00,VWS V14.01,2013-10-24 18:02:00,
2013-10-24 13:03:00,75.6,34.1,29.62,WSW,241,2.7,2.7,22,0.00,,CLR,0.00,VWS V14.01,2013-10-24 18:03:00,
2013-10-24 13:04:00,75.6,34.1,29.62,WSW,241,2.7,2.7,22,0.00,,CLR,0.00,VWS V14.01,2013-10-24 18:04:00,
2013-10-24 13:05:00,75.7,34.2,29.62,WSW,241,2.7,2.7,22,0.00,,BKN250,0.00,VWS V14.01,2013-10-24 18:05:00,
2013-10-24 13:06:00,75.7,34.2,29.62,WSW,241,2.7,2.7,22,0.00,,CLR,0.00,VWS V14.01,2013-10-24 18:06:00,
2013-10-24 13:07:00,75.7,34.2,29.62,WSW,241,2.7,2.7,22,0.00,,CLR,0.00,VWS V14.01,2013-10-24 18:07:00,
2013-10-24 13:08:00,75.7,34.2,29.62,NE,46,2.7,2.7,22,0.00,,CLR,0.00,VWS V14.01,2013-10-24 18:08:00,
2013-10-24 13:09:00,75.7,34.2,29.62,NE,46,2.7,2.7,22,0.00,,CLR,0.00,VWS V14.01,2013-10-24 18:09:00,
2013-10-24 13:10:00,75.7,34.2,29.62,NE,46,2.7,2.7,22,0.00,,BKN250,0.00,VWS V14.01,2013-10-24 18:10:00,
2013-10-24 13:11:00,75.7,33.1,29.62,NE,46,2.7,2.7,21,0.00,,CLR,0.00,VWS V14.01,2013-10-24 18:11:00,
2013-10-24 13:12:00,75.7,33.1,29.62,NW,308,2.7,2.7,21,0.00,,CLR,0.00,VWS V14.01,2013-10-24 18:12:00,
2013-10-24 13:13:00,75.7,33.1,29.62,East,84,3.1,3.1,21,0.00,,CLR,0.00,VWS V14.01,2013-10-24 18:13:00,
2013-10-24 13:14:00,75.7,33.1,29.62,East,84,3.1,3.1,21,0.00,,CLR,0.00,VWS V14.01,2013-10-24 18:14:00,
2013-10-24 13:15:00,75.7,33.1,29.62,NW,316,2.7,3.1,21,0.00,,BKN250,0.00,VWS V14.01,2013-10-24 18:15:00,
2013-10-24 13:16:00,75.7,33.1,29.62,WNW,303,2.7,3.1,21,0.00,,CLR,0.00,VWS V14.01,2013-10-24 18:16:00,
2013-10-24 13:17:00,75.7,33.1,29.62,NW,310,2.7,3.1,21,0.00,,CLR,0.00,VWS V14.01,2013-10-24 18:17:00,
2013-10-24 13:18:00,75.7,33.1,29.62,ENE,72,0.0,2.7,21,0.00,,CLR,0.00,VWS V14.01,2013-10-24 18:18:00,
2013-10-24 13:19:00,75.7,33.1,29.62,North,0,2.2,2.2,21,0.00,,CLR,0.00,VWS V14.01,2013-10-24 18:19:00,
2013-10-24 13:20:00,75.7,33.1,29.62,WNW,298,2.2,2.2,21,0.00,,BKN250,0.00,VWS V14.01,2013-10-24 18:20:00,
2013-10-24 13:21:00,75.7,33.1,29.62,NW,323,3.1,3.1,21,0.00,,CLR,0.00,VWS V14.01,2013-10-24 18:21:00,
2013-10-24 13:22:00,75.7,33.1,29.62,WNW,294,2.7,3.1,21,0.00,,CLR,0.00,VWS V14.01,2013-10-24 18:22:00,
2013-10-24 13:23:00,75.7,33.1,29.62,WNW,294,2.7,2.7,21,0.00,,CLR,0.00,VWS V14.01,2013-10-24 18:23:00,
2013-10-24 13:24:00,75.7,33.1,29.62,WNW,294,2.7,2.7,21,0.00,,CLR,0.00,VWS V14.01,2013-10-24 18:24:00,
2013-10-24 13:25:00,75.7,33.1,29.59,WNW,294,2.7,2.7,21,0.00,,BKN250,0.00,VWS V14.01,2013-10-24 18:25:00,
2013-10-24 13:26:00,75.9,33.2,29.59,WNW,294,2.7,2.7,21,0.00,,CLR,0.00,VWS V14.01,2013-10-24 18:26:00,
2013-10-24 13:27:00,76.1,33.4,29.59,WNW,294,2.7,2.7,21,0.00,,CLR,0.00,VWS V14.01,2013-10-24 18:27:00,
2013-10-24 13:28:00,76.1,33.4,29.59,NW,317,4.9,4.9,21,0.00,,CLR,0.00,VWS V14.01,2013-10-24 18:28:00,
2013-10-24 13:29:00,76.3,33.5,29.59,North,353,2.7,4.9,21,0.00,,CLR,0.00,VWS V14.01,2013-10-24 18:29:00,
2013-10-24 13:30:00,76.3,33.5,29.59,West,269,2.2,2.2,21,0.00,,BKN250,0.00,VWS V14.01,2013-10-24 18:30:00,
2013-10-24 13:31:00,76.3,33.5,29.59,West,269,2.2,2.2,21,0.00,,CLR,0.00,VWS V14.01,2013-10-24 18:31:00,
2013-10-24 13:32:00,76.3,33.5,29.59,West,269,2.2,2.2,21,0.00,,CLR,0.00,VWS V14.01,2013-10-24 18:32:00,
2013-10-24 13:33:00,76.3,33.5,29.59,NNE,31,0.0,2.2,21,0.00,,CLR,0.00,VWS V14.01,2013-10-24 18:33:00,
2013-10-24 13:34:00,76.3,33.5,29.59,North,0,5.4,5.4,21,0.00,,CLR,0.00,VWS V14.01,2013-10-24 18:34:00,
2013-10-24 13:35:00,76.3,33.5,29.59,North,0,5.4,5.4,21,0.00,,BKN250,0.00,VWS V14.01,2013-10-24 18:35:00,
2013-10-24 13:36:00,76.3,33.5,29.59,North,0,5.4,5.4,21,0.00,,CLR,0.00,VWS V14.01,2013-10-24 18:36:00,
2013-10-24 13:37:00,76.3,33.5,29.59,North,0,5.4,5.4,21,0.00,,CLR,0.00,VWS V14.01,2013-10-24 18:37:00,
2013-10-24 13:38:00,76.3,33.5,29.59,North,0,5.4,5.4,21,0.00,,CLR,0.00,VWS V14.01,2013-10-24 18:38:00,
2013-10-24 13:39:00,76.3,33.5,29.59,North,0,5.4,5.4,21,0.00,,CLR,0.00,VWS V14.01,2013-10-24 18:39:00,
2013-10-24 13:40:00,76.3,33.5,29.59,North,0,5.4,5.4,21,0.00,,BKN250,0.00,VWS V14.01,2013-10-24 18:40:00,
2013-10-24 13:41:00,76.3,33.5,29.59,North,0,5.4,5.4,21,0.00,,CLR,0.00,VWS V14.01,2013-10-24 18:41:00,
2013-10-24 13:42:00,76.3,33.5,29.59,North,0,5.4,5.4,21,0.00,,CLR,0.00,VWS V14.01,2013-10-24 18:42:00,
2013-10-24 13:43:00,76.3,33.5,29.59,North,0,5.4,5.4,21,0.00,,CLR,0.00,VWS V14.01,2013-10-24 18:43:00,
2013-10-24 13:44:00,76.3,33.5,29.59,North,0,5.4,5.4,21,0.00,,CLR,0.00,VWS V14.01,2013-10-24 18:44:00,
2013-10-24 13:45:00,76.5,33.7,29.59,North,0,5.4,5.4,21,0.00,,BKN250,0.00,VWS V14.01,2013-10-24 18:45:00,
2013-10-24 13:46:00,76.5,33.7,29.59,North,0,5.4,5.4,21,0.00,,CLR,0.00,VWS V14.01,2013-10-24 18:46:00,
2013-10-24 13:47:00,76.5,33.7,29.59,North,0,5.4,5.4,21,0.00,,CLR,0.00,VWS V14.01,2013-10-24 18:47:00,
2013-10-24 13:48:00,76.5,33.7,29.59,North,0,5.4,5.4,21,0.00,,CLR,0.00,VWS V14.01,2013-10-24 18:48:00,
2013-10-24 13:49:00,76.5,33.7,29.59,North,0,5.4,5.4,21,0.00,,CLR,0.00,VWS V14.01,2013-10-24 18:49:00,
2013-10-24 13:50:00,76.6,33.8,29.59,North,0,5.4,5.4,21,0.00,,BKN250,0.00,VWS V14.01,2013-10-24 18:50:00,
2013-10-24 13:51:00,76.6,33.8,29.59,North,0,5.4,5.4,21,0.00,,CLR,0.00,VWS V14.01,2013-10-24 18:51:00,
2013-10-24 13:52:00,76.6,33.8,29.59,North,0,5.4,5.4,21,0.00,,CLR,0.00,VWS V14.01,2013-10-24 18:52:00,
2013-10-24 13:53:00,76.6,33.8,29.59,North,0,5.4,5.4,21,0.00,,CLR,0.00,VWS V14.01,2013-10-24 18:53:00,
2013-10-24 13:54:00,76.6,33.8,29.59,North,0,5.4,5.4,21,0.00,,CLR,0.00,VWS V14.01,2013-10-24 18:54:00,
2013-10-24 13:55:00,76.6,33.8,29.59,North,0,5.4,5.4,21,0.00,,BKN250,0.00,VWS V14.01,2013-10-24 18:55:00,
2013-10-24 13:56:00,76.6,33.8,29.59,North,0,5.4,5.4,21,0.00,,CLR,0.00,VWS V14.01,2013-10-24 18:56:00,
2013-10-24 13:57:00,76.6,33.8,29.59,North,0,5.4,5.4,21,0.00,,CLR,0.00,VWS V14.01,2013-10-24 18:57:00,
2013-10-24 13:58:00,76.8,34.0,29.59,North,0,5.4,5.4,21,0.00,,CLR,0.00,VWS V14.01,2013-10-24 18:58:00,
2013-10-24 13:59:00,76.8,34.0,29.59,North,0,5.4,5.4,21,0.00,,CLR,0.00,VWS V14.01,2013-10-24 18:59:00,
2013-10-24 14:00:00,76.6,33.8,29.59,North,0,5.4,5.4,21,0.00,,BKN250,0.00,VWS V14.01,2013-10-24 19:00:00,
2013-10-24 14:01:00,76.6,33.8,29.59,North,0,5.4,5.4,21,0.00,,CLR,0.00,VWS V14.01,2013-10-24 19:01:00,
2013-10-24 14:02:00,76.6,33.8,29.59,North,0,5.4,5.4,21,0.00,,CLR,0.00,VWS V14.01,2013-10-24 19:02:00,
2013-10-24 14:03:00,76.6,33.8,29.59,North,0,5.4,5.4,21,0.00,,CLR,0.00,VWS V14.01,2013-10-24 19:03:00,
2013-10-24 14:04:00,76.6,33.8,29.59,North,0,5.4,5.4,21,0.00,,CLR,0.00,VWS V14.01,2013-10-24 19:04:00,
2013-10-24 14:05:00,76.6,33.8,29.59,North,0,5.4,5.4,21,0.00,,BKN250,0.00,VWS V14.01,2013-10-24 19:05:00,
2013-10-24 14:06:00,76.6,33.8,29.59,North,0,5.4,5.4,21,0.00,,CLR,0.00,VWS V14.01,2013-10-24 19:06:00,
2013-10-24 14:07:00,76.8,34.0,29.59,North,0,5.4,5.4,21,0.00,,CLR,0.00,VWS V14.01,2013-10-24 19:07:00,
2013-10-24 14:08:00,76.8,34.0,29.59,North,0,5.4,5.4,21,0.00,,CLR,0.00,VWS V14.01,2013-10-24 19:08:00,
2013-10-24 14:09:00,76.8,34.0,29.59,North,0,5.4,5.4,21,0.00,,CLR,0.00,VWS V14.01,2013-10-24 19:09:00,
2013-10-24 14:10:00,76.8,34.0,29.59,North,0,5.4,5.4,21,0.00,,BKN250,0.00,VWS V14.01,2013-10-24 19:10:00,
2013-10-24 14:11:00,76.8,34.0,29.59,North,0,5.4,5.4,21,0.00,,CLR,0.00,VWS V14.01,2013-10-24 19:11:00,
2013-10-24 14:12:00,76.8,34.0,29.59,North,0,5.4,5.4,21,0.00,,CLR,0.00,VWS V14.01,2013-10-24 19:12:00,
2013-10-24 14:13:00,76.8,34.0,29.59,North,0,5.4,5.4,21,0.00,,CLR,0.00,VWS V14.01,2013-10-24 19:13:00,
2013-10-24 14:14:00,76.8,34.0,29.59,North,0,5.4,5.4,21,0.00,,CLR,0.00,VWS V14.01,2013-10-24 19:14:00,
2013-10-24 14:15:00,76.5,33.7,29.59,North,0,5.4,5.4,21,0.00,,BKN250,0.00,VWS V14.01,2013-10-24 19:15:00,
2013-10-24 14:16:00,76.5,33.7,29.59,NNE,31,0.0,5.4,21,0.00,,CLR,0.00,VWS V14.01,2013-10-24 19:16:00,
2013-10-24 14:17:00,76.3,33.5,29.59,NNE,31,0.0,0.0,21,0.00,,CLR,0.00,VWS V14.01,2013-10-24 19:17:00,
2013-10-24 14:18:00,76.3,33.5,29.59,NNE,31,0.0,0.0,21,0.00,,CLR,0.00,VWS V14.01,2013-10-24 19:18:00,
2013-10-24 14:19:00,76.3,33.5,29.59,NNE,31,0.0,0.0,21,0.00,,CLR,0.00,VWS V14.01,2013-10-24 19:19:00,
2013-10-24 14:20:00,75.9,33.2,29.59,NNE,31,0.0,0.0,21,0.00,,BKN250,0.00,VWS V14.01,2013-10-24 19:20:00,
2013-10-24 14:21:00,75.9,33.2,29.59,NNE,31,0.0,0.0,21,0.00,,CLR,0.00,VWS V14.01,2013-10-24 19:21:00,
2013-10-24 14:22:00,75.9,33.2,29.59,NNE,31,0.0,0.0,21,0.00,,CLR,0.00,VWS V14.01,2013-10-24 19:22:00,
2013-10-24 14:23:00,75.7,33.1,29.59,NNE,31,0.0,0.0,21,0.00,,CLR,0.00,VWS V14.01,2013-10-24 19:23:00,
2013-10-24 14:24:00,75.7,33.1,29.59,NNE,31,0.0,0.0,21,0.00,,CLR,0.00,VWS V14.01,2013-10-24 19:24:00,
2013-10-24 14:25:00,75.7,33.1,29.59,NNE,31,0.0,0.0,21,0.00,,BKN250,0.00,VWS V14.01,2013-10-24 19:25:00,
2013-10-24 14:26:00,75.7,33.1,29.59,NNE,31,0.0,0.0,21,0.00,,CLR,0.00,VWS V14.01,2013-10-24 19:26:00,
2013-10-24 14:27:00,75.7,33.1,29.59,NNE,31,0.0,0.0,21,0.00,,CLR,0.00,VWS V14.01,2013-10-24 19:27:00,
2013-10-24 14:28:00,75.7,33.1,29.59,NNE,31,0.0,0.0,21,0.00,,CLR,0.00,VWS V14.01,2013-10-24 19:28:00,
2013-10-24 14:29:00,75.7,33.1,29.59,NNE,31,0.0,0.0,21,0.00,,CLR,0.00,VWS V14.01,2013-10-24 19:29:00,
2013-10-24 14:30:00,75.6,32.9,29.59,NNE,31,0.0,0.0,21,0.00,,BKN250,0.00,VWS V14.01,2013-10-24 19:30:00,
2013-10-24 14:31:00,75.7,33.1,29.59,NNE,31,0.0,0.0,21,0.00,,CLR,0.00,VWS V14.01,2013-10-24 19:31:00,
2013-10-24 14:32:00,75.9,33.2,29.59,NNE,31,0.0,0.0,21,0.00,,CLR,0.00,VWS V14.01,2013-10-24 19:32:00,
2013-10-24 14:33:00,75.9,33.2,29.59,NNE,31,0.0,0.0,21,0.00,,CLR,0.00,VWS V14.01,2013-10-24 19:33:00,
2013-10-24 14:34:00,76.1,33.4,29.59,NNE,31,0.0,0.0,21,0.00,,CLR,0.00,VWS V14.01,2013-10-24 19:34:00,
2013-10-24 14:35:00,76.3,33.5,29.59,NNE,31,0.0,0.0,21,0.00,,BKN250,0.00,VWS V14.01,2013-10-24 19:35:00,
2013-10-24 14:36:00,76.5,33.7,29.59,NNE,31,0.0,0.0,21,0.00,,CLR,0.00,VWS V14.01,2013-10-24 19:36:00,
2013-10-24 14:37:00,76.5,33.7,29.59,NNE,31,0.0,0.0,21,0.00,,CLR,0.00,VWS V14.01,2013-10-24 19:37:00,
2013-10-24 14:38:00,76.6,33.8,29.59,NNE,31,0.0,0.0,21,0.00,,CLR,0.00,VWS V14.01,2013-10-24 19:38:00,
2013-10-24 14:39:00,76.6,33.8,29.59,NNE,31,0.0,0.0,21,0.00,,CLR,0.00,VWS V14.01,2013-10-24 19:39:00,
2013-10-24 14:40:00,76.8,34.0,29.59,NNE,31,0.0,0.0,21,0.00,,BKN250,0.00,VWS V14.01,2013-10-24 19:40:00,
2013-10-24 14:41:00,76.8,34.0,29.59,NNE,31,0.0,0.0,21,0.00,,CLR,0.00,VWS V14.01,2013-10-24 19:41:00,
2013-10-24 14:42:00,76.8,34.0,29.59,NNE,31,0.0,0.0,21,0.00,,CLR,0.00,VWS V14.01,2013-10-24 19:42:00,
2013-10-24 14:43:00,77.0,34.1,29.59,NNE,31,0.0,0.0,21,0.00,,CLR,0.00,VWS V14.01,2013-10-24 19:43:00,
2013-10-24 14:44:00,77.0,34.1,29.59,NNE,31,0.0,0.0,21,0.00,,CLR,0.00,VWS V14.01,2013-10-24 19:44:00,
2013-10-24 14:45:00,77.0,32.9,29.59,NNE,31,0.0,0.0,20,0.00,,BKN250,0.00,VWS V14.01,2013-10-24 19:45:00,
2013-10-24 14:46:00,77.0,34.1,29.59,NNE,31,0.0,0.0,21,0.00,,CLR,0.00,VWS V14.01,2013-10-24 19:46:00,
2013-10-24 14:47:00,77.2,34.3,29.59,NNE,31,0.0,0.0,21,0.00,,CLR,0.00,VWS V14.01,2013-10-24 19:47:00,
2013-10-24 14:48:00,77.2,33.0,29.59,NNE,31,0.0,0.0,20,0.00,,CLR,0.00,VWS V14.01,2013-10-24 19:48:00,
2013-10-24 14:49:00,77.2,33.0,29.59,NNE,31,0.0,0.0,20,0.00,,CLR,0.00,VWS V14.01,2013-10-24 19:49:00,
2013-10-24 14:50:00,77.2,33.0,29.59,NNE,31,0.0,0.0,20,0.00,,BKN250,0.00,VWS V14.01,2013-10-24 19:50:00,
2013-10-24 14:51:00,77.4,33.2,29.59,NNE,31,0.0,0.0,20,0.00,,CLR,0.00,VWS V14.01,2013-10-24 19:51:00,
2013-10-24 14:52:00,77.4,34.4,29.59,NNE,31,0.0,0.0,21,0.00,,CLR,0.00,VWS V14.01,2013-10-24 19:52:00,
2013-10-24 14:53:00,77.5,33.3,29.59,NNE,31,0.0,0.0,20,0.00,,CLR,0.00,VWS V14.01,2013-10-24 19:53:00,
2013-10-24 14:54:00,77.7,33.5,29.59,NNE,31,0.0,0.0,20,0.00,,CLR,0.00,VWS V14.01,2013-10-24 19:54:00,
2013-10-24 14:55:00,77.7,33.5,29.59,NNE,31,0.0,0.0,20,0.00,,BKN250,0.00,VWS V14.01,2013-10-24 19:55:00,
2013-10-24 14:56:00,77.7,33.5,29.59,NNE,31,0.0,0.0,20,0.00,,CLR,0.00,VWS V14.01,2013-10-24 19:56:00,
2013-10-24 14:57:00,77.7,33.5,29.59,NNE,31,0.0,0.0,20,0.00,,CLR,0.00,VWS V14.01,2013-10-24 19:57:00,
2013-10-24 14:58:00,77.7,33.5,29.59,North,9,3.1,4.0,20,0.00,,CLR,0.00,VWS V14.01,2013-10-24 19:58:00,
2013-10-24 14:59:00,77.7,33.5,29.59,North,9,3.1,3.1,20,0.00,,CLR,0.00,VWS V14.01,2013-10-24 19:59:00,
2013-10-24 15:00:00,77.7,33.5,29.59,North,9,3.1,3.1,20,0.00,,BKN250,0.00,VWS V14.01,2013-10-24 20:00:00,
2013-10-24 15:01:00,77.7,33.5,29.59,North,9,3.1,3.1,20,0.00,,CLR,0.00,VWS V14.01,2013-10-24 20:01:00,
2013-10-24 15:02:00,77.7,33.5,29.59,North,9,3.1,3.1,20,0.00,,CLR,0.00,VWS V14.01,2013-10-24 20:02:00,
2013-10-24 15:03:00,77.7,33.5,29.59,North,9,3.1,3.1,20,0.00,,CLR,0.00,VWS V14.01,2013-10-24 20:03:00,
2013-10-24 15:04:00,77.7,33.5,29.59,North,9,3.1,3.1,20,0.00,,CLR,0.00,VWS V14.01,2013-10-24 20:04:00,
2013-10-24 15:05:00,77.7,33.5,29.59,North,9,3.1,3.1,20,0.00,,BKN250,0.00,VWS V14.01,2013-10-24 20:05:00,
2013-10-24 15:06:00,77.7,33.5,29.59,North,9,3.1,3.1,20,0.00,,CLR,0.00,VWS V14.01,2013-10-24 20:06:00,
2013-10-24 15:07:00,77.7,33.5,29.59,North,9,3.1,3.1,20,0.00,,CLR,0.00,VWS V14.01,2013-10-24 20:07:00,
2013-10-24 15:08:00,77.7,33.5,29.59,North,9,3.1,3.1,20,0.00,,CLR,0.00,VWS V14.01,2013-10-24 20:08:00,
2013-10-24 15:09:00,77.7,33.5,29.59,North,9,3.1,3.1,20,0.00,,CLR,0.00,VWS V14.01,2013-10-24 20:09:00,
2013-10-24 15:10:00,77.7,33.5,29.59,North,9,3.1,3.1,20,0.00,,BKN250,0.00,VWS V14.01,2013-10-24 20:10:00,
2013-10-24 15:11:00,77.7,33.5,29.59,North,9,3.1,3.1,20,0.00,,CLR,0.00,VWS V14.01,2013-10-24 20:11:00,
2013-10-24 15:12:00,77.7,33.5,29.59,North,9,3.1,3.1,20,0.00,,CLR,0.00,VWS V14.01,2013-10-24 20:12:00,
2013-10-24 15:13:00,77.7,33.5,29.59,North,9,3.1,3.1,20,0.00,,CLR,0.00,VWS V14.01,2013-10-24 20:13:00,
2013-10-24 15:14:00,77.5,33.3,29.59,North,9,3.1,3.1,20,0.00,,CLR,0.00,VWS V14.01,2013-10-24 20:14:00,
2013-10-24 15:15:00,77.5,33.3,29.59,North,9,3.1,3.1,20,0.00,,BKN250,0.00,VWS V14.01,2013-10-24 20:15:00,
2013-10-24 15:16:00,77.9,33.6,29.59,North,9,3.1,3.1,20,0.00,,CLR,0.00,VWS V14.01,2013-10-24 20:16:00,
2013-10-24 15:17:00,77.9,33.6,29.59,North,9,3.1,3.1,20,0.00,,CLR,0.00,VWS V14.01,2013-10-24 20:17:00,
2013-10-24 15:18:00,77.9,33.6,29.59,North,9,3.1,3.1,20,0.00,,CLR,0.00,VWS V14.01,2013-10-24 20:18:00,
2013-10-24 15:19:00,77.9,33.6,29.59,North,9,3.1,3.1,20,0.00,,CLR,0.00,VWS V14.01,2013-10-24 20:19:00,
2013-10-24 15:20:00,78.1,33.8,29.59,North,9,3.1,3.1,20,0.00,,BKN250,0.00,VWS V14.01,2013-10-24 20:20:00,
2013-10-24 15:21:00,78.3,33.9,29.59,North,9,3.1,3.1,20,0.00,,CLR,0.00,VWS V14.01,2013-10-24 20:21:00,
2013-10-24 15:22:00,78.4,34.1,29.59,North,9,3.1,3.1,20,0.00,,CLR,0.00,VWS V14.01,2013-10-24 20:22:00,
2013-10-24 15:23:00,78.4,34.1,29.59,North,9,3.1,3.1,20,0.00,,CLR,0.00,VWS V14.01,2013-10-24 20:23:00,
2013-10-24 15:24:00,78.4,34.1,29.59,North,9,3.1,3.1,20,0.00,,CLR,0.00,VWS V14.01,2013-10-24 20:24:00,
2013-10-24 15:25:00,78.4,34.1,29.59,North,9,3.1,3.1,20,0.00,,BKN250,0.00,VWS V14.01,2013-10-24 20:25:00,
2013-10-24 15:26:00,78.4,34.1,29.59,North,9,3.1,3.1,20,0.00,,CLR,0.00,VWS V14.01,2013-10-24 20:26:00,
2013-10-24 15:27:00,78.4,34.1,29.59,North,9,3.1,3.1,20,0.00,,CLR,0.00,VWS V14.01,2013-10-24 20:27:00,
2013-10-24 15:28:00,78.4,31.5,29.59,North,9,3.1,3.1,18,0.00,,CLR,0.00,VWS V14.01,2013-10-24 20:28:00,
2013-10-24 15:29:00,78.4,31.5,29.59,North,9,3.1,3.1,18,0.00,,CLR,0.00,VWS V14.01,2013-10-24 20:29:00,
2013-10-24 15:30:00,78.4,31.5,29.59,North,9,3.1,3.1,18,0.00,,BKN250,0.00,VWS V14.01,2013-10-24 20:30:00,
2013-10-24 15:31:00,78.4,31.5,29.59,North,9,3.1,3.1,18,0.00,,CLR,0.00,VWS V14.01,2013-10-24 20:31:00,
2013-10-24 15:32:00,78.4,31.5,29.59,North,9,3.1,3.1,18,0.00,,CLR,0.00,VWS V14.01,2013-10-24 20:32:00,
2013-10-24 15:33:00,78.4,31.5,29.59,North,9,3.1,3.1,18,0.00,,CLR,0.00,VWS V14.01,2013-10-24 20:33:00,
2013-10-24 15:34:00,78.3,31.3,29.59,North,9,3.1,3.1,18,0.00,,CLR,0.00,VWS V14.01,2013-10-24 20:34:00,
2013-10-24 15:35:00,78.3,31.3,29.59,North,9,3.1,3.1,18,0.00,,BKN250,0.00,VWS V14.01,2013-10-24 20:35:00,
2013-10-24 15:36:00,78.3,31.3,29.59,North,9,3.1,3.1,18,0.00,,CLR,0.00,VWS V14.01,2013-10-24 20:36:00,
2013-10-24 15:37:00,78.4,31.5,29.59,North,9,3.1,3.1,18,0.00,,CLR,0.00,VWS V14.01,2013-10-24 20:37:00,
2013-10-24 15:38:00,78.4,34.1,29.59,North,9,3.1,3.1,20,0.00,,CLR,0.00,VWS V14.01,2013-10-24 20:38:00,
2013-10-24 15:39:00,78.4,34.1,29.59,North,9,3.1,3.1,20,0.00,,CLR,0.00,VWS V14.01,2013-10-24 20:39:00,
2013-10-24 15:40:00,78.4,34.1,29.59,North,9,3.1,3.1,20,0.00,,SCT250,0.00,VWS V14.01,2013-10-24 20:40:00,
2013-10-24 15:41:00,78.4,31.5,29.59,North,9,3.1,3.1,18,0.00,,CLR,0.00,VWS V14.01,2013-10-24 20:41:00,
2013-10-24 15:42:00,78.4,31.5,29.59,North,9,3.1,3.1,18,0.00,,CLR,0.00,VWS V14.01,2013-10-24 20:42:00,
2013-10-24 15:43:00,78.6,31.6,29.59,North,9,3.1,3.1,18,0.00,,CLR,0.00,VWS V14.01,2013-10-24 20:43:00,
2013-10-24 15:44:00,78.6,31.6,29.59,North,9,3.1,3.1,18,0.00,,CLR,0.00,VWS V14.01,2013-10-24 20:44:00,
2013-10-24 15:45:00,78.6,31.6,29.59,North,9,3.1,3.1,18,0.00,,SCT250,0.00,VWS V14.01,2013-10-24 20:45:00,
2013-10-24 15:46:00,78.6,31.6,29.59,North,9,3.1,3.1,18,0.00,,CLR,0.00,VWS V14.01,2013-10-24 20:46:00,
2013-10-24 15:47:00,78.6,31.6,29.59,North,9,3.1,3.1,18,0.00,,CLR,0.00,VWS V14.01,2013-10-24 20:47:00,
2013-10-24 15:48:00,78.6,31.6,29.59,North,9,3.1,3.1,18,0.00,,CLR,0.00,VWS V14.01,2013-10-24 20:48:00,
2013-10-24 15:49:00,78.6,31.6,29.59,North,9,3.1,3.1,18,0.00,,CLR,0.00,VWS V14.01,2013-10-24 20:49:00,
2013-10-24 15:50:00,78.6,34.2,29.59,North,9,3.1,3.1,20,0.00,,SCT250,0.00,VWS V14.01,2013-10-24 20:50:00,
2013-10-24 15:51:00,78.6,34.2,29.59,North,9,3.1,3.1,20,0.00,,CLR,0.00,VWS V14.01,2013-10-24 20:51:00,
2013-10-24 15:52:00,78.6,34.2,29.59,North,9,3.1,3.1,20,0.00,,CLR,0.00,VWS V14.01,2013-10-24 20:52:00,
2013-10-24 15:53:00,78.8,34.4,29.59,North,9,3.1,3.1,20,0.00,,CLR,0.00,VWS V14.01,2013-10-24 20:53:00,
2013-10-24 15:54:00,78.8,34.4,29.59,North,9,3.1,3.1,20,0.00,,CLR,0.00,VWS V14.01,2013-10-24 20:54:00,
2013-10-24 15:55:00,78.8,34.4,29.59,North,9,3.1,3.1,20,0.00,,SCT250,0.00,VWS V14.01,2013-10-24 20:55:00,
2013-10-24 15:56:00,78.8,30.4,29.59,North,9,3.1,3.1,17,0.00,,CLR,0.00,VWS V14.01,2013-10-24 20:56:00,
2013-10-24 15:57:00,78.6,34.2,29.59,North,9,3.1,3.1,20,0.00,,CLR,0.00,VWS V14.01,2013-10-24 20:57:00,
2013-10-24 15:58:00,78.6,34.2,29.59,North,9,3.1,3.1,20,0.00,,CLR,0.00,VWS V14.01,2013-10-24 20:58:00,
2013-10-24 15:59:00,78.6,34.2,29.59,North,9,3.1,3.1,20,0.00,,CLR,0.00,VWS V14.01,2013-10-24 20:59:00,
2013-10-24 16:00:00,78.8,30.4,29.59,North,9,3.1,3.1,17,0.00,,SCT250,0.00,VWS V14.01,2013-10-24 21:00:00,
2013-10-24 16:01:00,78.8,34.4,29.59,North,9,3.1,3.1,20,0.00,,CLR,0.00,VWS V14.01,2013-10-24 21:01:00,
2013-10-24 16:02:00,78.8,34.4,29.59,North,9,3.1,3.1,20,0.00,,CLR,0.00,VWS V14.01,2013-10-24 21:02:00,
2013-10-24 16:03:00,78.8,30.4,29.59,North,9,3.1,3.1,17,0.00,,CLR,0.00,VWS V14.01,2013-10-24 21:03:00,
2013-10-24 16:04:00,78.8,30.4,29.59,North,9,3.1,3.1,17,0.00,,CLR,0.00,VWS V14.01,2013-10-24 21:04:00,
2013-10-24 16:05:00,78.8,30.4,29.59,North,9,3.1,3.1,17,0.00,,SCT250,0.00,VWS V14.01,2013-10-24 21:05:00,
2013-10-24 16:06:00,78.8,30.4,29.59,North,9,3.1,3.1,17,0.00,,CLR,0.00,VWS V14.01,2013-10-24 21:06:00,
2013-10-24 16:07:00,78.6,31.6,29.59,North,9,3.1,3.1,18,0.00,,CLR,0.00,VWS V14.01,2013-10-24 21:07:00,
2013-10-24 16:08:00,78.6,31.6,29.59,North,9,3.1,3.1,18,0.00,,CLR,0.00,VWS V14.01,2013-10-24 21:08:00,
2013-10-24 16:09:00,78.6,31.6,29.59,North,9,3.1,3.1,18,0.00,,CLR,0.00,VWS V14.01,2013-10-24 21:09:00,
2013-10-24 16:10:00,78.6,31.6,29.59,North,9,3.1,3.1,18,0.00,,SCT250,0.00,VWS V14.01,2013-10-24 21:10:00,
2013-10-24 16:11:00,78.6,31.6,29.59,North,9,3.1,3.1,18,0.00,,CLR,0.00,VWS V14.01,2013-10-24 21:11:00,
2013-10-24 16:12:00,78.6,31.6,29.59,North,9,3.1,3.1,18,0.00,,CLR,0.00,VWS V14.01,2013-10-24 21:12:00,
2013-10-24 16:13:00,78.6,31.6,29.59,North,9,3.1,3.1,18,0.00,,CLR,0.00,VWS V14.01,2013-10-24 21:13:00,
2013-10-24 16:14:00,78.6,31.6,29.59,North,9,3.1,3.1,18,0.00,,CLR,0.00,VWS V14.01,2013-10-24 21:14:00,
2013-10-24 16:15:00,78.6,31.6,29.59,North,9,3.1,3.1,18,0.00,,SCT250,0.00,VWS V14.01,2013-10-24 21:15:00,
2013-10-24 16:16:00,78.6,31.6,29.59,North,9,3.1,3.1,18,0.00,,CLR,0.00,VWS V14.01,2013-10-24 21:16:00,
2013-10-24 16:17:00,78.6,31.6,29.59,North,353,0.0,3.1,18,0.00,,CLR,0.00,VWS V14.01,2013-10-24 21:17:00,
2013-10-24 16:18:00,78.6,31.6,29.59,NNE,30,0.0,2.2,18,0.00,,CLR,0.00,VWS V14.01,2013-10-24 21:18:00,
2013-10-24 16:19:00,78.8,34.4,29.59,NE,46,0.0,2.2,20,0.00,,CLR,0.00,VWS V14.01,2013-10-24 21:19:00,
2013-10-24 16:20:00,78.8,30.4,29.59,North,5,2.7,4.0,17,0.00,,SCT250,0.00,VWS V14.01,2013-10-24 21:20:00,
2013-10-24 16:21:00,78.8,30.4,29.59,North,6,0.0,3.6,17,0.00,,CLR,0.00,VWS V14.01,2013-10-24 21:21:00,
2013-10-24 16:22:00,78.8,30.4,29.59,North,8,2.7,2.7,17,0.00,,CLR,0.00,VWS V14.01,2013-10-24 21:22:00,
2013-10-24 16:23:00,78.8,30.4,29.59,NE,42,4.0,4.0,17,0.00,,CLR,0.00,VWS V14.01,2013-10-24 21:23:00,
2013-10-24 16:24:00,78.6,31.6,29.59,NNE,20,4.0,5.4,18,0.00,,CLR,0.00,VWS V14.01,2013-10-24 21:24:00,
2013-10-24 16:25:00,78.6,31.6,29.59,NNE,19,2.7,5.4,18,0.00,,SCT250,0.00,VWS V14.01,2013-10-24 21:25:00,
2013-10-24 16:26:00,78.4,31.5,29.59,NNW,333,0.0,2.7,18,0.00,,CLR,0.00,VWS V14.01,2013-10-24 21:26:00,
2013-10-24 16:27:00,78.4,31.5,29.59,North,357,0.0,4.0,18,0.00,,CLR,0.00,VWS V14.01,2013-10-24 21:27:00,
2013-10-24 16:28:00,78.4,31.5,29.59,North,0,0.0,0.0,18,0.00,,CLR,0.00,VWS V14.01,2013-10-24 21:28:00,
2013-10-24 16:29:00,78.4,31.5,29.59,WNW,290,2.2,3.1,18,0.00,,CLR,0.00,VWS V14.01,2013-10-24 21:29:00,
2013-10-24 16:30:00,78.4,31.5,29.59,ENE,57,3.6,4.0,18,0.00,,SCT250,0.00,VWS V14.01,2013-10-24 21:30:00,
2013-10-24 16:31:00,78.4,31.5,29.59,ENE,68,3.1,4.0,18,0.00,,CLR,0.00,VWS V14.01,2013-10-24 21:31:00,
2013-10-24 16:32:00,78.3,31.3,29.59,WNW,282,3.6,3.6,18,0.00,,CLR,0.00,VWS V14.01,2013-10-24 21:32:00,
2013-10-24 16:33:00,78.3,31.3,29.59,North,0,2.7,3.6,18,0.00,,CLR,0.00,VWS V14.01,2013-10-24 21:33:00,
2013-10-24 16:34:00,78.3,31.3,29.59,NE,47,4.0,4.0,18,0.00,,CLR,0.00,VWS V14.01,2013-10-24 21:34:00,
2013-10-24 16:35:00,78.3,31.3,29.59,West,268,3.1,4.0,18,0.00,,SCT250,0.00,VWS V14.01,2013-10-24 21:35:00,
2013-10-24 16:36:00,78.1,31.2,29.59,ESE,107,0.0,3.6,18,0.00,,CLR,0.00,VWS V14.01,2013-10-24 21:36:00,
2013-10-24 16:37:00,78.1,31.2,29.59,North,350,2.2,3.1,18,0.00,,CLR,0.00,VWS V14.01,2013-10-24 21:37:00,
2013-10-24 16:38:00,78.1,31.2,29.59,NNW,332,2.7,4.0,18,0.00,,CLR,0.00,VWS V14.01,2013-10-24 21:38:00,
2013-10-24 16:39:00,78.1,31.2,29.59,East,81,0.0,2.7,18,0.00,,CLR,0.00,VWS V14.01,2013-10-24 21:39:00,
2013-10-24 16:40:00,78.1,31.2,29.59,NE,46,2.2,2.2,18,0.00,,FEW250,0.00,VWS V14.01,2013-10-24 21:40:00,
2013-10-24 16:41:00,78.1,31.2,29.59,ENE,57,0.0,2.7,18,0.00,,CLR,0.00,VWS V14.01,2013-10-24 21:41:00,
2013-10-24 16:42:00,78.1,31.2,29.59,NW,310,2.7,2.7,18,0.00,,CLR,0.00,VWS V14.01,2013-10-24 21:42:00,
2013-10-24 16:43:00,78.1,31.2,29.59,North,353,3.6,4.0,18,0.00,,CLR,0.00,VWS V14.01,2013-10-24 21:43:00,
2013-10-24 16:44:00,78.1,31.2,29.59,WNW,294,3.6,3.6,18,0.00,,CLR,0.00,VWS V14.01,2013-10-24 21:44:00,
2013-10-24 16:45:00,77.9,31.0,29.59,East,80,3.1,3.1,18,0.00,,FEW250,0.00,VWS V14.01,2013-10-24 21:45:00,
2013-10-24 16:46:00,77.9,31.0,29.59,NNE,24,0.0,4.0,18,0.00,,CLR,0.00,VWS V14.01,2013-10-24 21:46:00,
2013-10-24 16:47:00,77.9,31.0,29.59,North,357,2.2,3.1,18,0.00,,CLR,0.00,VWS V14.01,2013-10-24 21:47:00,
2013-10-24 16:48:00,77.7,30.9,29.59,North,5,2.7,3.1,18,0.00,,CLR,0.00,VWS V14.01,2013-10-24 21:48:00,
2013-10-24 16:49:00,77.7,30.9,29.59,NW,321,2.2,2.7,18,0.00,,CLR,0.00,VWS V14.01,2013-10-24 21:49:00,
2013-10-24 16:50:00,77.7,30.9,29.59,East,89,0.0,2.7,18,0.00,,FEW250,0.00,VWS V14.01,2013-10-24 21:50:00,
2013-10-24 16:51:00,77.7,30.9,29.59,South,184,2.7,2.7,18,0.00,,CLR,0.00,VWS V14.01,2013-10-24 21:51:00,
2013-10-24 16:52:00,77.7,30.9,29.59,NNW,341,2.7,2.7,18,0.00,,CLR,0.00,VWS V14.01,2013-10-24 21:52:00,
2013-10-24 16:53:00,77.7,30.9,29.59,NNW,339,3.1,3.6,18,0.00,,CLR,0.00,VWS V14.01,2013-10-24 21:53:00,
2013-10-24 16:54:00,77.7,30.9,29.59,NE,47,4.9,5.8,18,0.00,,CLR,0.00,VWS V14.01,2013-10-24 21:54:00,
2013-10-24 16:55:00,77.7,30.9,29.59,NE,44,0.0,0.0,18,0.00,,FEW250,0.00,VWS V14.01,2013-10-24 21:55:00,
2013-10-24 16:56:00,77.7,30.9,29.59,ENE,74,3.1,3.6,18,0.00,,CLR,0.00,VWS V14.01,2013-10-24 21:56:00,
2013-10-24 16:57:00,77.5,30.7,29.59,ENE,64,3.6,4.9,18,0.00,,CLR,0.00,VWS V14.01,2013-10-24 21:57:00,
2013-10-24 16:58:00,77.5,30.7,29.59,North,357,0.0,4.0,18,0.00,,CLR,0.00,VWS V14.01,2013-10-24 21:58:00,
2013-10-24 16:59:00,77.5,30.7,29.59,NNW,344,2.2,2.2,18,0.00,,CLR,0.00,VWS V14.01,2013-10-24 21:59:00,
2013-10-24 17:00:00,77.5,30.7,29.59,North,350,2.7,2.7,18,0.00,,FEW250,0.00,VWS V14.01,2013-10-24 22:00:00,
2013-10-24 17:01:00,77.5,30.7,29.59,NW,317,2.7,3.6,18,0.00,,CLR,0.00,VWS V14.01,2013-10-24 22:01:00,
2013-10-24 17:02:00,77.5,30.7,29.59,WSW,258,0.0,2.7,18,0.00,,CLR,0.00,VWS V14.01,2013-10-24 22:02:00,
2013-10-24 17:03:00,77.5,30.7,29.59,NNE,31,4.0,4.0,18,0.00,,CLR,0.00,VWS V14.01,2013-10-24 22:03:00,
2013-10-24 17:04:00,77.5,30.7,29.59,NW,308,2.7,4.0,18,0.00,,CLR,0.00,VWS V14.01,2013-10-24 22:04:00,
2013-10-24 17:05:00,77.5,30.7,29.59,North,11,2.2,2.7,18,0.00,,FEW250,0.00,VWS V14.01,2013-10-24 22:05:00,
2013-10-24 17:06:00,77.5,30.7,29.59,NW,326,0.0,2.7,18,0.00,,CLR,0.00,VWS V14.01,2013-10-24 22:06:00,
2013-10-24 17:07:00,77.5,30.7,29.59,ENE,62,2.7,3.1,18,0.00,,CLR,0.00,VWS V14.01,2013-10-24 22:07:00,
2013-10-24 17:08:00,77.5,30.7,29.59,NNW,329,2.2,5.4,18,0.00,,CLR,0.00,VWS V14.01,2013-10-24 22:08:00,
2013-10-24 17:09:00,77.5,30.7,29.59,NNE,22,3.1,3.1,18,0.00,,CLR,0.00,VWS V14.01,2013-10-24 22:09:00,
2013-10-24 17:10:00,77.5,30.7,29.59,NW,324,0.0,3.1,18,0.00,,FEW250,0.00,VWS V14.01,2013-10-24 22:10:00,
2013-10-24 17:11:00,77.4,30.6,29.59,NNE,23,2.7,4.0,18,0.00,,CLR,0.00,VWS V14.01,2013-10-24 22:11:00,
2013-10-24 17:12:00,77.4,30.6,29.59,WNW,286,2.2,3.6,18,0.00,,CLR,0.00,VWS V14.01,2013-10-24 22:12:00,
2013-10-24 17:13:00,77.4,30.6,29.59,North,4,2.2,2.7,18,0.00,,CLR,0.00,VWS V14.01,2013-10-24 22:13:00,
2013-10-24 17:14:00,77.2,30.4,29.59,NNW,334,3.1,4.0,18,0.00,,CLR,0.00,VWS V14.01,2013-10-24 22:14:00,
2013-10-24 17:15:00,77.2,30.4,29.59,North,4,2.7,3.1,18,0.00,,FEW250,0.00,VWS V14.01,2013-10-24 22:15:00,
2013-10-24 17:16:00,77.2,30.4,29.59,NE,38,2.7,2.7,18,0.00,,CLR,0.00,VWS V14.01,2013-10-24 22:16:00,
2013-10-24 17:17:00,77.2,30.4,29.59,ENE,78,2.2,2.7,18,0.00,,CLR,0.00,VWS V14.01,2013-10-24 22:17:00,
2013-10-24 17:18:00,77.2,30.4,29.59,NE,42,4.0,4.0,18,0.00,,CLR,0.00,VWS V14.01,2013-10-24 22:18:00,
2013-10-24 17:19:00,77.0,30.3,29.59,NW,316,3.1,4.0,18,0.00,,CLR,0.00,VWS V14.01,2013-10-24 22:19:00,
2013-10-24 17:20:00,77.0,30.3,29.59,NE,41,4.9,5.8,18,0.00,,FEW250,0.00,VWS V14.01,2013-10-24 22:20:00,
2013-10-24 17:21:00,76.8,30.1,29.59,NNW,345,2.7,3.1,18,0.00,,CLR,0.00,VWS V14.01,2013-10-24 22:21:00,
2013-10-24 17:22:00,76.8,30.1,29.59,NNW,341,4.0,4.0,18,0.00,,CLR,0.00,VWS V14.01,2013-10-24 22:22:00,
2013-10-24 17:23:00,76.8,30.1,29.59,NE,41,5.8,5.8,18,0.00,,CLR,0.00,VWS V14.01,2013-10-24 22:23:00,
2013-10-24 17:24:00,76.6,30.0,29.59,NW,324,0.0,5.8,18,0.00,,CLR,0.00,VWS V14.01,2013-10-24 22:24:00,
2013-10-24 17:25:00,76.6,30.0,29.56,NW,315,2.2,3.1,18,0.00,,FEW250,0.00,VWS V14.01,2013-10-24 22:25:00,
2013-10-24 17:26:00,76.6,30.0,29.56,North,5,4.0,4.0,18,0.00,,CLR,0.00,VWS V14.01,2013-10-24 22:26:00,
2013-10-24 17:27:00,76.5,29.9,29.56,NE,49,2.2,4.0,18,0.00,,CLR,0.00,VWS V14.01,2013-10-24 22:27:00,
2013-10-24 17:28:00,76.5,29.9,29.56,West,280,2.7,5.4,18,0.00,,CLR,0.00,VWS V14.01,2013-10-24 22:28:00,
2013-10-24 17:29:00,76.3,29.7,29.56,West,280,2.7,2.7,18,0.00,,CLR,0.00,VWS V14.01,2013-10-24 22:29:00,
2013-10-24 17:30:00,76.1,29.6,29.56,West,279,0.0,2.7,18,0.00,,FEW250,0.00,VWS V14.01,2013-10-24 22:30:00,
2013-10-24 17:31:00,76.1,29.6,29.56,North,349,0.0,3.1,18,0.00,,CLR,0.00,VWS V14.01,2013-10-24 22:31:00,
2013-10-24 17:32:00,76.1,32.2,29.56,NNW,340,0.0,2.2,20,0.00,,CLR,0.00,VWS V14.01,2013-10-24 22:32:00,
2013-10-24 17:33:00,75.9,32.0,29.56,West,270,4.0,5.4,20,0.00,,CLR,0.00,VWS V14.01,2013-10-24 22:33:00,
2013-10-24 17:34:00,75.9,32.0,29.56,WNW,289,0.0,4.0,20,0.00,,CLR,0.00,VWS V14.01,2013-10-24 22:34:00,
2013-10-24 17:35:00,75.7,31.9,29.56,NNW,327,0.0,2.2,20,0.00,,FEW250,0.00,VWS V14.01,2013-10-24 22:35:00,
2013-10-24 17:36:00,75.7,31.9,29.56,NNE,25,0.0,3.1,20,0.00,,CLR,0.00,VWS V14.01,2013-10-24 22:36:00,
2013-10-24 17:37:00,75.6,31.7,29.56,NNW,327,0.0,3.6,20,0.00,,CLR,0.00,VWS V14.01,2013-10-24 22:37:00,
2013-10-24 17:38:00,75.4,31.6,29.56,NW,319,0.0,3.1,20,0.00,,CLR,0.00,VWS V14.01,2013-10-24 22:38:00,
2013-10-24 17:39:00,75.4,31.6,29.56,NE,55,2.2,2.2,20,0.00,,CLR,0.00,VWS V14.01,2013-10-24 22:39:00,
2013-10-24 17:40:00,75.2,31.4,29.56,NNE,32,2.7,5.4,20,0.00,,FEW250,0.00,VWS V14.01,2013-10-24 22:40:00,
2013-10-24 17:41:00,75.0,32.5,29.56,NE,38,0.0,2.7,21,0.00,,CLR,0.00,VWS V14.01,2013-10-24 22:41:00,
2013-10-24 17:42:00,75.0,32.5,29.56,WNW,284,4.0,4.0,21,0.00,,CLR,0.00,VWS V14.01,2013-10-24 22:42:00,
2013-10-24 17:43:00,74.8,32.3,29.56,East,88,0.0,4.0,21,0.00,,CLR,0.00,VWS V14.01,2013-10-24 22:43:00,
2013-10-24 17:44:00,74.8,32.3,29.56,NW,326,2.7,3.1,21,0.00,,CLR,0.00,VWS V14.01,2013-10-24 22:44:00,
2013-10-24 17:45:00,74.7,32.2,29.56,WNW,300,2.7,3.6,21,0.00,,FEW250,0.00,VWS V14.01,2013-10-24 22:45:00,
2013-10-24 17:46:00,74.7,32.2,29.56,West,279,3.1,3.1,21,0.00,,CLR,0.00,VWS V14.01,2013-10-24 22:46:00,
2013-10-24 17:47:00,74.5,32.0,29.56,NE,51,4.0,4.0,21,0.00,,CLR,0.00,VWS V14.01,2013-10-24 22:47:00,
2013-10-24 17:48:00,74.5,32.0,29.56,NE,55,3.1,4.0,21,0.00,,CLR,0.00,VWS V14.01,2013-10-24 22:48:00,
2013-10-24 17:49:00,74.5,32.0,29.56,NNE,21,3.1,3.6,21,0.00,,CLR,0.00,VWS V14.01,2013-10-24 22:49:00,
2013-10-24 17:50:00,74.3,31.9,29.56,NNW,344,5.4,5.4,21,0.00,,FEW250,0.00,VWS V14.01,2013-10-24 22:50:00,
2013-10-24 17:51:00,74.3,31.9,29.56,NE,52,3.6,3.6,21,0.00,,CLR,0.00,VWS V14.01,2013-10-24 22:51:00,
2013-10-24 17:52:00,74.3,31.9,29.56,East,86,2.2,3.6,21,0.00,,CLR,0.00,VWS V14.01,2013-10-24 22:52:00,
2013-10-24 17:53:00,74.1,31.7,29.56,NNE,23,2.7,2.7,21,0.00,,CLR,0.00,VWS V14.01,2013-10-24 22:53:00,
2013-10-24 17:54:00,74.1,31.7,29.56,NE,42,2.7,3.6,21,0.00,,CLR,0.00,VWS V14.01,2013-10-24 22:54:00,
2013-10-24 17:55:00,74.1,31.7,29.56,North,11,2.7,3.1,21,0.00,,FEW250,0.00,VWS V14.01,2013-10-24 22:55:00,
2013-10-24 17:56:00,73.9,31.6,29.56,NE,43,2.7,3.6,21,0.00,,CLR,0.00,VWS V14.01,2013-10-24 22:56:00,
2013-10-24 17:57:00,73.9,31.6,29.56,ENE,70,0.0,2.7,21,0.00,,CLR,0.00,VWS V14.01,2013-10-24 22:57:00,
2013-10-24 17:58:00,73.8,31.4,29.56,ENE,69,0.0,0.0,21,0.00,,CLR,0.00,VWS V14.01,2013-10-24 22:58:00,
2013-10-24 17:59:00,73.8,31.4,29.56,NW,325,2.2,4.0,21,0.00,,CLR,0.00,VWS V14.01,2013-10-24 22:59:00,
2013-10-24 18:00:00,73.8,31.4,29.56,North,9,0.0,2.2,21,0.00,,FEW250,0.00,VWS V14.01,2013-10-24 23:00:00,
2013-10-24 18:01:00,73.6,31.3,29.56,North,9,0.0,0.0,21,0.00,,CLR,0.00,VWS V14.01,2013-10-24 23:01:00,
2013-10-24 18:02:00,73.6,31.3,29.56,NNE,23,4.9,4.9,21,0.00,,CLR,0.00,VWS V14.01,2013-10-24 23:02:00,
2013-10-24 18:03:00,73.4,31.1,29.56,WSW,253,0.0,4.9,21,0.00,,CLR,0.00,VWS V14.01,2013-10-24 23:03:00,
2013-10-24 18:04:00,73.4,31.1,29.56,ENE,61,0.0,2.7,21,0.00,,CLR,0.00,VWS V14.01,2013-10-24 23:04:00,
2013-10-24 18:05:00,73.4,31.1,29.56,North,353,0.0,2.2,21,0.00,,FEW250,0.00,VWS V14.01,2013-10-24 23:05:00,
2013-10-24 18:06:00,73.2,32.1,29.56,NW,312,2.7,2.7,22,0.00,,CLR,0.00,VWS V14.01,2013-10-24 23:06:00,
2013-10-24 18:07:00,73.2,32.1,29.56,NE,55,2.7,3.6,22,0.00,,CLR,0.00,VWS V14.01,2013-10-24 23:07:00,
2013-10-24 18:08:00,73.2,32.1,29.56,NE,35,2.2,4.0,22,0.00,,CLR,0.00,VWS V14.01,2013-10-24 23:08:00,
2013-10-24 18:09:00,73.0,32.0,29.56,NNE,17,0.0,2.2,22,0.00,,CLR,0.00,VWS V14.01,2013-10-24 23:09:00,
2013-10-24 18:10:00,73.0,32.0,29.56,ENE,60,3.1,3.1,22,0.00,,FEW250,0.00,VWS V14.01,2013-10-24 23:10:00,
2013-10-24 18:11:00,73.0,32.0,29.59,North,353,2.2,4.0,22,0.00,,CLR,0.00,VWS V14.01,2013-10-24 23:11:00,
2013-10-24 18:12:00,72.9,31.8,29.59,NNW,348,3.1,3.1,22,0.00,,CLR,0.00,VWS V14.01,2013-10-24 23:12:00,
2013-10-24 18:13:00,72.9,31.8,29.59,NW,311,2.7,3.1,22,0.00,,CLR,0.00,VWS V14.01,2013-10-24 23:13:00,
2013-10-24 18:14:00,72.9,31.8,29.59,NE,48,0.0,3.6,22,0.00,,CLR,0.00,VWS V14.01,2013-10-24 23:14:00,
2013-10-24 18:15:00,72.9,31.8,29.59,WNW,294,2.7,2.7,22,0.00,,FEW250,0.00,VWS V14.01,2013-10-24 23:15:00,
2013-10-24 18:16:00,72.7,31.7,29.59,WNW,283,2.2,2.7,22,0.00,,CLR,0.00,VWS V14.01,2013-10-24 23:16:00,
2013-10-24 18:17:00,72.7,31.7,29.59,North,2,0.0,2.7,22,0.00,,CLR,0.00,VWS V14.01,2013-10-24 23:17:00,
2013-10-24 18:18:00,72.7,31.7,29.59,North,3,0.0,0.0,22,0.00,,CLR,0.00,VWS V14.01,2013-10-24 23:18:00,
2013-10-24 18:19:00,72.7,31.7,29.59,NE,36,0.0,0.0,22,0.00,,CLR,0.00,VWS V14.01,2013-10-24 23:19:00,
2013-10-24 18:20:00,72.5,31.5,29.59,NW,326,4.0,4.0,22,0.00,,FEW250,0.00,VWS V14.01,2013-10-24 23:20:00,
2013-10-24 18:21:00,72.5,31.5,29.59,NE,45,2.7,5.4,22,0.00,,CLR,0.00,VWS V14.01,2013-10-24 23:21:00,
2013-10-24 18:22:00,72.3,31.4,29.59,NNW,344,3.1,3.1,22,0.00,,CLR,0.00,VWS V14.01,2013-10-24 23:22:00,
2013-10-24 18:23:00,72.3,31.4,29.59,North,357,3.1,3.1,22,0.00,,CLR,0.00,VWS V14.01,2013-10-24 23:23:00,
2013-10-24 18:24:00,72.3,31.4,29.59,NE,39,2.7,3.1,22,0.00,,CLR,0.00,VWS V14.01,2013-10-24 23:24:00,
2013-10-24 18:25:00,72.3,31.4,29.59,WNW,284,0.0,2.7,22,0.00,,FEW250,0.00,VWS V14.01,2013-10-24 23:25:00,
2013-10-24 18:26:00,72.3,31.4,29.59,NW,323,0.0,3.1,22,0.00,,CLR,0.00,VWS V14.01,2013-10-24 23:26:00,
2013-10-24 18:27:00,72.1,31.2,29.59,NW,310,0.0,3.1,22,0.00,,CLR,0.00,VWS V14.01,2013-10-24 23:27:00,
2013-10-24 18:28:00,72.1,31.2,29.59,North,0,0.0,4.0,22,0.00,,CLR,0.00,VWS V14.01,2013-10-24 23:28:00,
2013-10-24 18:29:00,72.1,31.2,29.59,North,9,0.0,0.0,22,0.00,,CLR,0.00,VWS V14.01,2013-10-24 23:29:00,
2013-10-24 18:30:00,72.0,31.1,29.59,NNE,30,0.0,0.0,22,0.00,,FEW250,0.00,VWS V14.01,2013-10-24 23:30:00,
2013-10-24 18:31:00,72.0,31.1,29.59,NE,34,3.1,5.8,22,0.00,,CLR,0.00,VWS V14.01,2013-10-24 23:31:00,
2013-10-24 18:32:00,71.8,30.9,29.59,NNE,26,0.0,3.6,22,0.00,,CLR,0.00,VWS V14.01,2013-10-24 23:32:00,
2013-10-24 18:33:00,71.8,30.9,29.59,NNW,332,2.7,2.7,22,0.00,,CLR,0.00,VWS V14.01,2013-10-24 23:33:00,
2013-10-24 18:34:00,71.8,30.9,29.59,NNE,27,4.0,4.0,22,0.00,,CLR,0.00,VWS V14.01,2013-10-24 23:34:00,
2013-10-24 18:35:00,71.6,30.8,29.59,NNW,337,0.0,4.0,22,0.00,,FEW250,0.00,VWS V14.01,2013-10-24 23:35:00,
2013-10-24 18:36:00,71.6,30.8,29.59,NNE,33,0.0,0.0,22,0.00,,CLR,0.00,VWS V14.01,2013-10-24 23:36:00,
2013-10-24 18:37:00,71.6,30.8,29.59,NNE,33,0.0,2.2,22,0.00,,CLR,0.00,VWS V14.01,2013-10-24 23:37:00,
2013-10-24 18:38:00,71.4,31.7,29.59,NE,35,0.0,2.7,23,0.00,,CLR,0.00,VWS V14.01,2013-10-24 23:38:00,
2013-10-24 18:39:00,71.4,31.7,29.59,NE,34,0.0,0.0,23,0.00,,CLR,0.00,VWS V14.01,2013-10-24 23:39:00,
2013-10-24 18:40:00,71.2,31.6,29.59,NE,34,0.0,0.0,23,0.00,,FEW250,0.00,VWS V14.01,2013-10-24 23:40:00,
2013-10-24 18:41:00,71.2,31.6,29.59,NE,35,0.0,3.1,23,0.00,,CLR,0.00,VWS V14.01,2013-10-24 23:41:00,
2013-10-24 18:42:00,71.1,31.4,29.59,North,353,2.2,2.7,23,0.00,,CLR,0.00,VWS V14.01,2013-10-24 23:42:00,
2013-10-24 18:43:00,71.1,31.4,29.59,NNW,339,3.1,4.9,23,0.00,,CLR,0.00,VWS V14.01,2013-10-24 23:43:00,
2013-10-24 18:44:00,71.1,31.4,29.59,NNE,20,2.2,3.6,23,0.00,,CLR,0.00,VWS V14.01,2013-10-24 23:44:00,
2013-10-24 18:45:00,71.1,31.4,29.59,NNE,19,0.0,2.2,23,0.00,,FEW250,0.00,VWS V14.01,2013-10-24 23:45:00,
2013-10-24 18:46:00,70.9,31.3,29.59,NNE,30,0.0,0.0,23,0.00,,CLR,0.00,VWS V14.01,2013-10-24 23:46:00,
2013-10-24 18:47:00,70.9,31.3,29.59,North,4,2.2,2.7,23,0.00,,CLR,0.00,VWS V14.01,2013-10-24 23:47:00,
2013-10-24 18:48:00,70.9,31.3,29.59,North,357,0.0,2.2,23,0.00,,CLR,0.00,VWS V14.01,2013-10-24 23:48:00,
2013-10-24 18:49:00,70.7,31.1,29.59,North,357,0.0,0.0,23,0.00,,FEW250,0.00,VWS V14.01,2013-10-24 23:49:00,
2013-10-24 18:50:00,70.7,31.1,29.59,North,357,0.0,0.0,23,0.00,,CLR,0.00,VWS V14.01,2013-10-24 23:50:00,
2013-10-24 18:51:00,70.7,31.1,29.59,NE,49,2.2,2.2,23,0.00,,CLR,0.00,VWS V14.01,2013-10-24 23:51:00,
2013-10-24 18:52:00,70.5,31.0,29.59,North,353,2.2,2.2,23,0.00,,CLR,0.00,VWS V14.01,2013-10-24 23:52:00,
2013-10-24 18:53:00,70.5,31.0,29.59,NNE,26,0.0,4.0,23,0.00,,CLR,0.00,VWS V14.01,2013-10-24 23:53:00,
2013-10-24 18:54:00,70.3,30.8,29.59,North,349,0.0,2.2,23,0.00,,FEW250,0.00,VWS V14.01,2013-10-24 23:54:00,
2013-10-24 18:55:00,70.3,30.8,29.59,ENE,69,0.0,2.2,23,0.00,,CLR,0.00,VWS V14.01,2013-10-24 23:55:00,
2013-10-24 18:56:00,70.3,30.8,29.59,North,4,0.0,0.0,23,0.00,,CLR,0.00,VWS V14.01,2013-10-24 23:56:00,
2013-10-24 18:57:00,70.2,30.7,29.59,NNW,330,2.7,2.7,23,0.00,,CLR,0.00,VWS V14.01,2013-10-24 23:57:00,
2013-10-24 18:58:00,70.2,30.7,29.59,NNW,341,0.0,2.7,23,0.00,,CLR,0.00,VWS V14.01,2013-10-24 23:58:00,
2013-10-24 18:59:00,70.0,30.5,29.59,NW,325,2.2,3.1,23,0.00,,FEW250,0.00,VWS V14.01,2013-10-24 23:59:00,
2013-10-24 19:00:00,70.0,30.5,29.59,NW,324,0.0,3.1,23,0.00,,CLR,0.00,VWS V14.01,2013-10-25 00:00:00,
2013-10-24 19:01:00,70.0,30.5,29.59,NW,325,2.2,2.2,23,0.00,,CLR,0.00,VWS V14.01,2013-10-25 00:01:00,
2013-10-24 19:02:00,70.0,30.5,29.59,North,6,0.0,2.2,23,0.00,,CLR,0.00,VWS V14.01,2013-10-25 00:02:00,
2013-10-24 19:03:00,70.0,30.5,29.59,NW,326,0.0,0.0,23,0.00,,CLR,0.00,VWS V14.01,2013-10-25 00:03:00,
2013-10-24 19:04:00,69.8,30.4,29.59,East,82,0.0,0.0,23,0.00,,FEW250,0.00,VWS V14.01,2013-10-25 00:04:00,
2013-10-24 19:05:00,69.8,30.4,29.59,East,82,0.0,0.0,23,0.00,,CLR,0.00,VWS V14.01,2013-10-25 00:05:00,
2013-10-24 19:06:00,69.8,30.4,29.59,East,81,0.0,0.0,23,0.00,,CLR,0.00,VWS V14.01,2013-10-25 00:06:00,
2013-10-24 19:07:00,69.6,31.3,29.59,NE,43,0.0,2.2,24,0.00,,CLR,0.00,VWS V14.01,2013-10-25 00:07:00,
2013-10-24 19:08:00,69.6,31.3,29.59,West,261,0.0,0.0,24,0.00,,CLR,0.00,VWS V14.01,2013-10-25 00:08:00,
2013-10-24 19:09:00,69.4,31.1,29.59,NNW,327,2.2,3.1,24,0.00,,CLR,0.00,VWS V14.01,2013-10-25 00:09:00,
2013-10-24 19:10:00,69.4,31.1,29.59,NNW,327,0.0,3.1,24,0.00,,CLR,0.00,VWS V14.01,2013-10-25 00:10:00,
2013-10-24 19:11:00,69.4,31.1,29.59,NNW,327,0.0,0.0,24,0.00,,CLR,0.00,VWS V14.01,2013-10-25 00:11:00,
2013-10-24 19:12:00,69.4,31.1,29.59,NW,322,0.0,0.0,24,0.00,,CLR,0.00,VWS V14.01,2013-10-25 00:12:00,
2013-10-24 19:13:00,69.3,31.0,29.59,North,1,2.2,3.6,24,0.00,,CLR,0.00,VWS V14.01,2013-10-25 00:13:00,
2013-10-24 19:14:00,69.3,31.0,29.59,North,6,0.0,0.0,24,0.00,,CLR,0.00,VWS V14.01,2013-10-25 00:14:00,
2013-10-24 19:15:00,69.3,31.0,29.59,North,7,0.0,0.0,24,0.00,,CLR,0.00,VWS V14.01,2013-10-25 00:15:00,
2013-10-24 19:16:00,69.3,31.0,29.59,NE,44,0.0,0.0,24,0.00,,CLR,0.00,VWS V14.01,2013-10-25 00:16:00,
2013-10-24 19:17:00,69.1,30.8,29.59,NE,40,2.7,2.7,24,0.00,,CLR,0.00,VWS V14.01,2013-10-25 00:17:00,
2013-10-24 19:18:00,69.1,30.8,29.59,NW,318,2.7,2.7,24,0.00,,CLR,0.00,VWS V14.01,2013-10-25 00:18:00,
2013-10-24 19:19:00,69.1,30.8,29.59,NE,51,3.6,3.6,24,0.00,,CLR,0.00,VWS V14.01,2013-10-25 00:19:00,
2013-10-24 19:20:00,69.1,30.8,29.59,NE,43,4.0,4.0,24,0.00,,CLR,0.00,VWS V14.01,2013-10-25 00:20:00,
2013-10-24 19:21:00,69.1,30.8,29.59,NE,43,0.0,4.0,24,0.00,,CLR,0.00,VWS V14.01,2013-10-25 00:21:00,
2013-10-24 19:22:00,68.9,30.6,29.59,North,6,2.2,2.2,24,0.00,,CLR,0.00,VWS V14.01,2013-10-25 00:22:00,
2013-10-24 19:23:00,68.9,30.6,29.59,North,6,0.0,2.2,24,0.00,,CLR,0.00,VWS V14.01,2013-10-25 00:23:00,
2013-10-24 19:24:00,68.7,31.5,29.59,East,82,0.0,2.7,25,0.00,,CLR,0.00,VWS V14.01,2013-10-25 00:24:00,
2013-10-24 19:25:00,68.7,31.5,29.59,East,82,0.0,2.7,25,0.00,,CLR,0.00,VWS V14.01,2013-10-25 00:25:00,
2013-10-24 19:26:00,68.7,31.5,29.59,North,353,0.0,0.0,25,0.00,,CLR,0.00,VWS V14.01,2013-10-25 00:26:00,
2013-10-24 19:27:00,68.7,31.5,29.59,North,353,0.0,0.0,25,0.00,,CLR,0.00,VWS V14.01,2013-10-25 00:27:00,
2013-10-24 19:28:00,68.7,31.5,29.59,NNE,18,0.0,0.0,25,0.00,,CLR,0.00,VWS V14.01,2013-10-25 00:28:00,
2013-10-24 19:29:00,68.5,31.4,29.59,ENE,68,0.0,0.0,25,0.00,,CLR,0.00,VWS V14.01,2013-10-25 00:29:00,
2013-10-24 19:30:00,68.5,31.4,29.59,ENE,68,0.0,0.0,25,0.00,,CLR,0.00,VWS V14.01,2013-10-25 00:30:00,
2013-10-24 19:31:00,68.5,31.4,29.59,NNW,345,2.7,2.7,25,0.00,,CLR,0.00,VWS V14.01,2013-10-25 00:31:00,
2013-10-24 19:32:00,68.4,31.2,29.59,North,353,2.7,2.7,25,0.00,,CLR,0.00,VWS V14.01,2013-10-25 00:32:00,
2013-10-24 19:33:00,68.4,31.2,29.59,NW,326,2.7,3.6,25,0.00,,CLR,0.00,VWS V14.01,2013-10-25 00:33:00,
2013-10-24 19:34:00,68.4,31.2,29.59,NNE,27,4.0,4.0,25,0.00,,CLR,0.00,VWS V14.01,2013-10-25 00:34:00,
2013-10-24 19:35:00,68.4,31.2,29.59,North,0,3.1,4.0,25,0.00,,CLR,0.00,VWS V14.01,2013-10-25 00:35:00,
2013-10-24 19:36:00,68.4,31.2,29.59,North,357,2.7,3.1,25,0.00,,BKN250,0.00,VWS V14.01,2013-10-25 00:36:00,
2013-10-24 19:37:00,68.4,31.2,29.59,NNE,29,0.0,3.1,25,0.00,,CLR,0.00,VWS V14.01,2013-10-25 00:37:00,
2013-10-24 19:38:00,68.4,31.2,29.59,NNE,24,0.0,0.0,25,0.00,,CLR,0.00,VWS V14.01,2013-10-25 00:38:00,
2013-10-24 19:39:00,68.4,31.2,29.59,NNW,331,0.0,0.0,25,0.00,,CLR,0.00,VWS V14.01,2013-10-25 00:39:00,
2013-10-24 19:40:00,68.4,31.2,29.62,NNW,331,0.0,0.0,25,0.00,,CLR,0.00,VWS V14.01,2013-10-25 00:40:00,
2013-10-24 19:41:00,68.4,31.2,29.62,NE,51,2.7,2.7,25,0.00,,CLR,0.00,VWS V14.01,2013-10-25 00:41:00,
2013-10-24 19:42:00,68.2,31.0,29.62,North,11,0.0,2.7,25,0.00,,CLR,0.00,VWS V14.01,2013-10-25 00:42:00,
2013-10-24 19:43:00,68.2,31.0,29.62,NW,324,0.0,2.2,25,0.00,,CLR,0.00,VWS V14.01,2013-10-25 00:43:00,
2013-10-24 19:44:00,68.2,31.0,29.62,North,2,0.0,2.7,25,0.00,,CLR,0.00,VWS V14.01,2013-10-25 00:44:00,
2013-10-24 19:45:00,68.2,31.0,29.62,North,2,0.0,2.7,25,0.00,,CLR,0.00,VWS V14.01,2013-10-25 00:45:00,
2013-10-24 19:46:00,68.2,31.0,29.62,ENE,72,2.7,2.7,25,0.00,,CLR,0.00,VWS V14.01,2013-10-25 00:46:00,
2013-10-24 19:47:00,68.2,31.0,29.62,NNE,16,0.0,2.7,25,0.00,,CLR,0.00,VWS V14.01,2013-10-25 00:47:00,
2013-10-24 19:48:00,68.0,30.9,29.62,ENE,58,2.7,2.7,25,0.00,,CLR,0.00,VWS V14.01,2013-10-25 00:48:00,
2013-10-24 19:49:00,68.0,30.9,29.62,NNW,329,2.7,2.7,25,0.00,,CLR,0.00,VWS V14.01,2013-10-25 00:49:00,
2013-10-24 19:50:00,68.0,30.9,29.62,North,1,2.7,2.7,25,0.00,,CLR,0.00,VWS V14.01,2013-10-25 00:50:00,
2013-10-24 19:51:00,68.0,30.9,29.62,NNW,333,2.7,3.6,25,0.00,,CLR,0.00,VWS V14.01,2013-10-25 00:51:00,
2013-10-24 19:52:00,68.0,30.9,29.62,NW,317,2.2,2.7,25,0.00,,CLR,0.00,VWS V14.01,2013-10-25 00:52:00,
2013-10-24 19:53:00,68.0,30.9,29.62,NNW,337,3.1,3.1,25,0.00,,CLR,0.00,VWS V14.01,2013-10-25 00:53:00,
2013-10-24 19:54:00,68.0,30.9,29.62,NW,305,3.1,4.0,25,0.00,,CLR,0.00,VWS V14.01,2013-10-25 00:54:00,
2013-10-24 19:55:00,67.8,30.7,29.62,NNE,18,4.0,4.0,25,0.00,,CLR,0.00,VWS V14.01,2013-10-25 00:55:00,
2013-10-24 19:56:00,67.8,30.7,29.62,North,349,4.0,4.9,25,0.00,,CLR,0.00,VWS V14.01,2013-10-25 00:56:00,
2013-10-24 19:57:00,67.8,30.7,29.62,NW,308,2.2,4.0,25,0.00,,CLR,0.00,VWS V14.01,2013-10-25 00:57:00,
2013-10-24 19:58:00,67.8,30.7,29.62,NNW,328,3.1,4.0,25,0.00,,CLR,0.00,VWS V14.01,2013-10-25 00:58:00,
2013-10-24 19:59:00,67.8,30.7,29.62,NNW,348,3.1,3.1,25,0.00,,CLR,0.00,VWS V14.01,2013-10-25 00:59:00,
2013-10-24 20:00:00,67.8,30.7,29.62,NNW,340,2.7,3.6,25,0.00,,CLR,0.00,VWS V14.01,2013-10-25 01:00:00,
2013-10-24 20:01:00,67.8,30.7,29.62,NNE,15,2.7,3.1,25,0.00,,CLR,0.00,VWS V14.01,2013-10-25 01:01:00,
2013-10-24 20:02:00,67.8,30.7,29.62,SW,225,0.0,2.7,25,0.00,,CLR,0.00,VWS V14.01,2013-10-25 01:02:00,
2013-10-24 20:03:00,67.8,30.7,29.62,North,349,2.2,4.9,25,0.00,,CLR,0.00,VWS V14.01,2013-10-25 01:03:00,
2013-10-24 20:04:00,67.6,30.6,29.62,NNE,29,0.0,2.2,25,0.00,,CLR,0.00,VWS V14.01,2013-10-25 01:04:00,
2013-10-24 20:05:00,67.6,30.6,29.62,NNE,29,0.0,2.2,25,0.00,,CLR,0.00,VWS V14.01,2013-10-25 01:05:00,
2013-10-24 20:06:00,67.6,30.6,29.62,NNW,335,3.1,3.1,25,0.00,,CLR,0.00,VWS V14.01,2013-10-25 01:06:00,
2013-10-24 20:07:00,67.6,30.6,29.62,ENE,72,2.2,3.1,25,0.00,,CLR,0.00,VWS V14.01,2013-10-25 01:07:00,
2013-10-24 20:08:00,67.5,30.4,29.62,ENE,72,0.0,2.2,25,0.00,,CLR,0.00,VWS V14.01,2013-10-25 01:08:00,
2013-10-24 20:09:00,67.5,30.4,29.62,NNE,30,0.0,2.7,25,0.00,,CLR,0.00,VWS V14.01,2013-10-25 01:09:00,
2013-10-24 20:10:00,67.5,30.4,29.62,North,357,3.1,3.1,25,0.00,,CLR,0.00,VWS V14.01,2013-10-25 01:10:00,
2013-10-24 20:11:00,67.3,30.3,29.62,North,1,0.0,3.6,25,0.00,,CLR,0.00,VWS V14.01,2013-10-25 01:11:00,
2013-10-24 20:12:00,67.3,30.3,29.62,NW,326,0.0,2.2,25,0.00,,CLR,0.00,VWS V14.01,2013-10-25 01:12:00,
2013-10-24 20:13:00,67.3,30.3,29.62,NNW,338,2.7,3.1,25,0.00,,CLR,0.00,VWS V14.01,2013-10-25 01:13:00,
2013-10-24 20:14:00,67.1,30.1,29.62,NNW,344,4.0,4.0,25,0.00,,CLR,0.00,VWS V14.01,2013-10-25 01:14:00,
2013-10-24 20:15:00,67.1,30.1,29.62,West,274,4.9,4.9,25,0.00,,CLR,0.00,VWS V14.01,2013-10-25 01:15:00,
2013-10-24 20:16:00,67.1,30.1,29.62,NNW,330,2.2,4.9,25,0.00,,CLR,0.00,VWS V14.01,2013-10-25 01:16:00,
2013-10-24 20:17:00,67.1,30.1,29.62,North,2,3.6,3.6,25,0.00,,CLR,0.00,VWS V14.01,2013-10-25 01:17:00,
2013-10-24 20:18:00,67.1,30.1,29.62,NNW,344,0.0,3.6,25,0.00,,CLR,0.00,VWS V14.01,2013-10-25 01:18:00,
2013-10-24 20:19:00,66.9,30.0,29.62,NNW,330,2.2,2.7,25,0.00,,CLR,0.00,VWS V14.01,2013-10-25 01:19:00,
2013-10-24 20:20:00,66.9,30.0,29.62,NW,318,2.2,2.7,25,0.00,,CLR,0.00,VWS V14.01,2013-10-25 01:20:00,
2013-10-24 20:21:00,66.9,30.0,29.62,North,350,3.6,3.6,25,0.00,,CLR,0.00,VWS V14.01,2013-10-25 01:21:00,
2013-10-24 20:22:00,66.9,30.0,29.62,NW,310,3.6,3.6,25,0.00,,CLR,0.00,VWS V14.01,2013-10-25 01:22:00,
2013-10-24 20:23:00,66.7,29.8,29.62,ENE,72,2.7,3.6,25,0.00,,CLR,0.00,VWS V14.01,2013-10-25 01:23:00,
2013-10-24 20:24:00,66.7,28.8,29.62,NW,311,3.1,5.8,24,0.00,,CLR,0.00,VWS V14.01,2013-10-25 01:24:00,
2013-10-24 20:25:00,66.7,28.8,29.62,North,357,4.0,5.8,24,0.00,,CLR,0.00,VWS V14.01,2013-10-25 01:25:00,
2013-10-24 20:26:00,66.7,28.8,29.62,NNE,33,3.1,4.0,24,0.00,,CLR,0.00,VWS V14.01,2013-10-25 01:26:00,
2013-10-24 20:27:00,66.7,28.8,29.62,NE,55,0.0,4.0,24,0.00,,CLR,0.00,VWS V14.01,2013-10-25 01:27:00,
2013-10-24 20:28:00,66.7,28.8,29.62,NNE,16,0.0,0.0,24,0.00,,CLR,0.00,VWS V14.01,2013-10-25 01:28:00,
2013-10-24 20:29:00,66.7,28.8,29.62,NW,326,3.1,3.6,24,0.00,,CLR,0.00,VWS V14.01,2013-10-25 01:29:00,
2013-10-24 20:30:00,66.6,28.7,29.62,NW,326,2.2,3.6,24,0.00,,CLR,0.00,VWS V14.01,2013-10-25 01:30:00,
2013-10-24 20:31:00,66.6,28.7,29.62,NE,39,4.0,4.0,24,0.00,,CLR,0.00,VWS V14.01,2013-10-25 01:31:00,
2013-10-24 20:32:00,66.6,28.7,29.62,North,1,3.1,8.3,24,0.00,,CLR,0.00,VWS V14.01,2013-10-25 01:32:00,
2013-10-24 20:33:00,66.6,28.7,29.62,NNE,29,2.2,4.9,24,0.00,,CLR,0.00,VWS V14.01,2013-10-25 01:33:00,
2013-10-24 20:34:00,66.6,28.7,29.62,North,7,2.2,3.6,24,0.00,,CLR,0.00,VWS V14.01,2013-10-25 01:34:00,
2013-10-24 20:35:00,66.6,28.7,29.62,NW,321,0.0,3.6,24,0.00,,CLR,0.00,VWS V14.01,2013-10-25 01:35:00,
2013-10-24 20:36:00,66.4,28.5,29.62,North,7,2.7,4.9,24,0.00,,CLR,0.00,VWS V14.01,2013-10-25 01:36:00,
2013-10-24 20:37:00,66.4,28.5,29.62,NW,312,3.1,3.1,24,0.00,,CLR,0.00,VWS V14.01,2013-10-25 01:37:00,
2013-10-24 20:38:00,66.4,28.5,29.62,WNW,298,0.0,5.4,24,0.00,,CLR,0.00,VWS V14.01,2013-10-25 01:38:00,
2013-10-24 20:39:00,66.4,28.5,29.62,NE,36,2.7,3.6,24,0.00,,CLR,0.00,VWS V14.01,2013-10-25 01:39:00,
2013-10-24 20:40:00,66.4,28.5,29.62,NE,36,0.0,3.6,24,0.00,,CLR,0.00,VWS V14.01,2013-10-25 01:40:00,
2013-10-24 20:41:00,66.2,28.4,29.62,NE,39,2.2,4.9,24,0.00,,CLR,0.00,VWS V14.01,2013-10-25 01:41:00,
2013-10-24 20:42:00,66.2,28.4,29.62,NW,306,2.7,4.0,24,0.00,,CLR,0.00,VWS V14.01,2013-10-25 01:42:00,
2013-10-24 20:43:00,66.2,28.4,29.62,East,85,0.0,3.1,24,0.00,,CLR,0.00,VWS V14.01,2013-10-25 01:43:00,
2013-10-24 20:44:00,66.0,29.2,29.62,North,1,2.7,4.9,25,0.00,,CLR,0.00,VWS V14.01,2013-10-25 01:44:00,
2013-10-24 20:45:00,66.0,29.2,29.62,WNW,298,0.0,4.9,25,0.00,,CLR,0.00,VWS V14.01,2013-10-25 01:45:00,
2013-10-24 20:46:00,66.0,29.2,29.62,NNE,17,2.7,2.7,25,0.00,,CLR,0.00,VWS V14.01,2013-10-25 01:46:00,
2013-10-24 20:47:00,66.0,29.2,29.62,NNE,33,0.0,2.7,25,0.00,,CLR,0.00,VWS V14.01,2013-10-25 01:47:00,
2013-10-24 20:48:00,66.0,29.2,29.62,NE,34,0.0,0.0,25,0.00,,CLR,0.00,VWS V14.01,2013-10-25 01:48:00,
2013-10-24 20:49:00,65.8,29.1,29.62,NE,52,2.7,2.7,25,0.00,,CLR,0.00,VWS V14.01,2013-10-25 01:49:00,
2013-10-24 20:50:00,65.8,29.1,29.62,NNW,338,2.2,2.7,25,0.00,,CLR,0.00,VWS V14.01,2013-10-25 01:50:00,
2013-10-24 20:51:00,65.8,29.1,29.62,NNW,341,2.7,7.6,25,0.00,,CLR,0.00,VWS V14.01,2013-10-25 01:51:00,
2013-10-24 20:52:00,65.7,28.9,29.62,WSW,254,2.7,3.6,25,0.00,,CLR,0.00,VWS V14.01,2013-10-25 01:52:00,
2013-10-24 20:53:00,65.7,28.9,29.62,NNW,338,0.0,3.6,25,0.00,,CLR,0.00,VWS V14.01,2013-10-25 01:53:00,
2013-10-24 20:54:00,65.5,28.8,29.65,NNE,27,5.8,5.8,25,0.00,,CLR,0.00,VWS V14.01,2013-10-25 01:54:00,
2013-10-24 20:55:00,65.5,28.8,29.65,East,95,5.8,5.8,25,0.00,,CLR,0.00,VWS V14.01,2013-10-25 01:55:00,
2013-10-24 20:56:00,65.5,28.8,29.65,East,100,2.2,5.8,25,0.00,,CLR,0.00,VWS V14.01,2013-10-25 01:56:00,
2013-10-24 20:57:00,65.5,28.8,29.65,NE,51,4.0,4.0,25,0.00,,CLR,0.00,VWS V14.01,2013-10-25 01:57:00,
2013-10-24 20:58:00,65.5,28.8,29.65,NE,52,6.3,6.3,25,0.00,,CLR,0.00,VWS V14.01,2013-10-25 01:58:00,
2013-10-24 20:59:00,65.5,28.8,29.65,North,0,3.6,4.5,25,0.00,,CLR,0.00,VWS V14.01,2013-10-25 01:59:00,
2013-10-24 21:00:00,65.5,28.8,29.65,East,100,3.1,4.5,25,0.00,,CLR,0.00,VWS V14.01,2013-10-25 02:00:00,
2013-10-24 21:01:00,65.3,28.6,29.65,NE,54,3.6,4.0,25,0.00,,CLR,0.00,VWS V14.01,2013-10-25 02:01:00,
2013-10-24 21:02:00,65.3,28.6,29.65,NE,41,0.0,3.6,25,0.00,,CLR,0.00,VWS V14.01,2013-10-25 02:02:00,
2013-10-24 21:03:00,65.3,28.6,29.65,North,0,4.0,4.0,25,0.00,,CLR,0.00,VWS V14.01,2013-10-25 02:03:00,
2013-10-24 21:04:00,65.1,28.5,29.65,ESE,105,0.0,4.0,25,0.00,,CLR,0.00,VWS V14.01,2013-10-25 02:04:00,
2013-10-24 21:05:00,65.1,28.5,29.65,North,353,3.6,4.0,25,0.00,,CLR,0.00,VWS V14.01,2013-10-25 02:05:00,
2013-10-24 21:06:00,65.1,28.5,29.65,ESE,104,0.0,3.6,25,0.00,,CLR,0.00,VWS V14.01,2013-10-25 02:06:00,
2013-10-24 21:07:00,65.1,28.5,29.65,North,5,2.7,3.6,25,0.00,,CLR,0.00,VWS V14.01,2013-10-25 02:07:00,
2013-10-24 21:08:00,65.1,28.5,29.65,NNE,33,2.7,6.3,25,0.00,,CLR,0.00,VWS V14.01,2013-10-25 02:08:00,
2013-10-24 21:09:00,65.1,28.5,29.65,NNE,24,3.6,3.6,25,0.00,,CLR,0.00,VWS V14.01,2013-10-25 02:09:00,
2013-10-24 21:10:00,65.1,28.5,29.65,East,94,3.6,3.6,25,0.00,,CLR,0.00,VWS V14.01,2013-10-25 02:10:00,
2013-10-24 21:11:00,64.9,28.3,29.65,NNE,18,3.1,5.4,25,0.00,,CLR,0.00,VWS V14.01,2013-10-25 02:11:00,
2013-10-24 21:12:00,64.9,28.3,29.65,NE,43,0.0,3.6,25,0.00,,CLR,0.00,VWS V14.01,2013-10-25 02:12:00,
2013-10-24 21:13:00,64.9,28.3,29.65,North,357,3.1,3.1,25,0.00,,CLR,0.00,VWS V14.01,2013-10-25 02:13:00,
2013-10-24 21:14:00,64.8,28.1,29.65,ENE,78,3.6,3.6,25,0.00,,CLR,0.00,VWS V14.01,2013-10-25 02:14:00,
2013-10-24 21:15:00,64.8,28.1,29.65,NNW,340,3.1,3.6,25,0.00,,CLR,0.00,VWS V14.01,2013-10-25 02:15:00,
2013-10-24 21:16:00,64.8,28.1,29.65,NNW,327,3.6,3.6,25,0.00,,CLR,0.00,VWS V14.01,2013-10-25 02:16:00,
2013-10-24 21:17:00,64.8,28.1,29.65,ENE,73,4.0,4.0,25,0.00,,CLR,0.00,VWS V14.01,2013-10-25 02:17:00,
2013-10-24 21:18:00,64.8,28.1,29.65,North,7,3.1,4.0,25,0.00,,CLR,0.00,VWS V14.01,2013-10-25 02:18:00,
2013-10-24 21:19:00,64.6,28.0,29.65,NNE,13,2.2,2.7,25,0.00,,CLR,0.00,VWS V14.01,2013-10-25 02:19:00,
2013-10-24 21:20:00,64.6,28.0,29.65,NNE,13,0.0,2.7,25,0.00,,CLR,0.00,VWS V14.01,2013-10-25 02:20:00,
2013-10-24 21:21:00,64.6,28.0,29.65,WNW,294,0.0,3.6,25,0.00,,CLR,0.00,VWS V14.01,2013-10-25 02:21:00,
2013-10-24 21:22:00,64.4,27.8,29.65,NE,51,2.7,2.7,25,0.00,,CLR,0.00,VWS V14.01,2013-10-25 02:22:00,
2013-10-24 21:23:00,64.4,27.8,29.65,NNE,17,2.7,5.4,25,0.00,,CLR,0.00,VWS V14.01,2013-10-25 02:23:00,
2013-10-24 21:24:00,64.4,27.8,29.65,NNW,333,2.7,5.4,25,0.00,,CLR,0.00,VWS V14.01,2013-10-25 02:24:00,
2013-10-24 21:25:00,64.4,27.8,29.65,ENE,57,2.2,5.4,25,0.00,,CLR,0.00,VWS V14.01,2013-10-25 02:25:00,
2013-10-24 21:26:00,64.4,27.8,29.65,North,357,0.0,2.2,25,0.00,,CLR,0.00,VWS V14.01,2013-10-25 02:26:00,
2013-10-24 21:27:00,64.2,27.7,29.65,NE,39,3.1,3.6,25,0.00,,CLR,0.00,VWS V14.01,2013-10-25 02:27:00,
2013-10-24 21:28:00,64.2,27.7,29.65,NNE,18,5.8,6.3,25,0.00,,CLR,0.00,VWS V14.01,2013-10-25 02:28:00,
2013-10-24 21:29:00,64.2,27.7,29.65,North,357,0.0,0.0,25,0.00,,CLR,0.00,VWS V14.01,2013-10-25 02:29:00,
2013-10-24 21:30:00,64.2,27.7,29.65,NE,51,0.0,0.0,25,0.00,,CLR,0.00,VWS V14.01,2013-10-25 02:30:00,
2013-10-24 21:31:00,64.2,27.7,29.65,NE,54,2.2,5.4,25,0.00,,CLR,0.00,VWS V14.01,2013-10-25 02:31:00,
2013-10-24 21:32:00,64.0,27.5,29.65,West,266,2.7,4.9,25,0.00,,CLR,0.00,VWS V14.01,2013-10-25 02:32:00,
2013-10-24 21:33:00,64.0,27.5,29.65,NNE,16,3.1,5.4,25,0.00,,CLR,0.00,VWS V14.01,2013-10-25 02:33:00,
2013-10-24 21:34:00,64.0,27.5,29.65,ENE,75,3.6,4.0,25,0.00,,CLR,0.00,VWS V14.01,2013-10-25 02:34:00,
2013-10-24 21:35:00,63.9,27.4,29.65,NNE,30,3.1,4.0,25,0.00,,CLR,0.00,VWS V14.01,2013-10-25 02:35:00,
2013-10-24 21:36:00,63.9,27.4,29.65,NE,40,3.1,3.1,25,0.00,,CLR,0.00,VWS V14.01,2013-10-25 02:36:00,
2013-10-24 21:37:00,63.9,27.4,29.65,NE,41,3.6,4.0,25,0.00,,CLR,0.00,VWS V14.01,2013-10-25 02:37:00,
2013-10-24 21:38:00,63.9,27.4,29.65,East,82,4.0,4.0,25,0.00,,CLR,0.00,VWS V14.01,2013-10-25 02:38:00,
2013-10-24 21:39:00,63.7,27.2,29.65,WNW,290,2.7,3.6,25,0.00,,CLR,0.00,VWS V14.01,2013-10-25 02:39:00,
2013-10-24 21:40:00,63.7,27.2,29.65,South,176,2.7,3.6,25,0.00,,CLR,0.00,VWS V14.01,2013-10-25 02:40:00,
2013-10-24 21:41:00,63.7,27.2,29.65,NE,38,3.1,3.1,25,0.00,,CLR,0.00,VWS V14.01,2013-10-25 02:41:00,
2013-10-24 21:42:00,63.5,27.1,29.65,NNE,15,2.2,3.6,25,0.00,,CLR,0.00,VWS V14.01,2013-10-25 02:42:00,
2013-10-24 21:43:00,63.5,27.1,29.65,NNE,31,4.0,4.0,25,0.00,,CLR,0.00,VWS V14.01,2013-10-25 02:43:00,
2013-10-24 21:44:00,63.5,27.1,29.65,ESE,111,2.2,3.1,25,0.00,,CLR,0.00,VWS V14.01,2013-10-25 02:44:00,
2013-10-24 21:45:00,63.5,27.1,29.65,NNE,24,3.1,3.1,25,0.00,,CLR,0.00,VWS V14.01,2013-10-25 02:45:00,
2013-10-24 21:46:00,63.3,26.9,29.65,NNE,21,2.2,3.1,25,0.00,,CLR,0.00,VWS V14.01,2013-10-25 02:46:00,
2013-10-24 21:47:00,63.3,26.9,29.65,North,0,2.2,2.2,25,0.00,,CLR,0.00,VWS V14.01,2013-10-25 02:47:00,
2013-10-24 21:48:00,63.3,26.9,29.65,NNW,334,2.7,2.7,25,0.00,,CLR,0.00,VWS V14.01,2013-10-25 02:48:00,
2013-10-24 21:49:00,63.1,26.8,29.65,North,10,3.1,5.4,25,0.00,,CLR,0.00,VWS V14.01,2013-10-25 02:49:00,
2013-10-24 21:50:00,63.1,26.8,29.65,NNW,346,2.2,5.4,25,0.00,,CLR,0.00,VWS V14.01,2013-10-25 02:50:00,
2013-10-24 21:51:00,63.1,26.8,29.65,SSE,147,0.0,2.2,25,0.00,,CLR,0.00,VWS V14.01,2013-10-25 02:51:00,
2013-10-24 21:52:00,63.1,26.8,29.65,North,5,3.6,4.0,25,0.00,,CLR,0.00,VWS V14.01,2013-10-25 02:52:00,
2013-10-24 21:53:00,63.0,26.6,29.65,WSW,252,2.2,3.6,25,0.00,,CLR,0.00,VWS V14.01,2013-10-25 02:53:00,
2013-10-24 21:54:00,63.0,27.6,29.65,North,3,0.0,0.0,26,0.00,,CLR,0.00,VWS V14.01,2013-10-25 02:54:00,
2013-10-24 21:55:00,63.0,27.6,29.65,NNW,340,2.2,2.2,26,0.00,,CLR,0.00,VWS V14.01,2013-10-25 02:55:00,
2013-10-24 21:56:00,63.0,27.6,29.65,North,357,3.1,3.1,26,0.00,,CLR,0.00,VWS V14.01,2013-10-25 02:56:00,
2013-10-24 21:57:00,62.8,27.4,29.65,ENE,60,2.7,3.6,26,0.00,,CLR,0.00,VWS V14.01,2013-10-25 02:57:00,
2013-10-24 21:58:00,62.8,27.4,29.65,West,264,0.0,5.4,26,0.00,,CLR,0.00,VWS V14.01,2013-10-25 02:58:00,
2013-10-24 21:59:00,62.8,27.4,29.65,North,357,4.0,4.0,26,0.00,,CLR,0.00,VWS V14.01,2013-10-25 02:59:00,
2013-10-24 22:00:00,62.8,27.4,29.65,NW,324,2.7,4.0,26,0.00,,CLR,0.00,VWS V14.01,2013-10-25 03:00:00,
2013-10-24 22:01:00,62.6,27.3,29.65,NW,310,4.0,8.3,26,0.00,,CLR,0.00,VWS V14.01,2013-10-25 03:01:00,
2013-10-24 22:02:00,62.6,27.3,29.65,WNW,284,2.7,8.3,26,0.00,,CLR,0.00,VWS V14.01,2013-10-25 03:02:00,
2013-10-24 22:03:00,62.6,27.3,29.65,NNE,33,4.0,4.0,26,0.00,,CLR,0.00,VWS V14.01,2013-10-25 03:03:00,
2013-10-24 22:04:00,62.6,27.3,29.65,North,8,3.1,3.1,26,0.00,,CLR,0.00,VWS V14.01,2013-10-25 03:04:00,
2013-10-24 22:05:00,62.6,27.3,29.65,NW,310,2.7,3.1,26,0.00,,CLR,0.00,VWS V14.01,2013-10-25 03:05:00,
2013-10-24 22:06:00,62.4,27.1,29.65,NNW,335,2.7,3.6,26,0.00,,CLR,0.00,VWS V14.01,2013-10-25 03:06:00,
2013-10-24 22:07:00,62.4,27.1,29.65,NW,322,3.6,3.6,26,0.00,,CLR,0.00,VWS V14.01,2013-10-25 03:07:00,
2013-10-24 22:08:00,62.4,27.1,29.65,NE,49,2.7,3.6,26,0.00,,CLR,0.00,VWS V14.01,2013-10-25 03:08:00,
2013-10-24 22:09:00,62.4,27.1,29.65,West,280,2.2,3.1,26,0.00,,CLR,0.00,VWS V14.01,2013-10-25 03:09:00,
2013-10-24 22:10:00,62.2,27.0,29.65,NE,46,3.1,3.1,26,0.00,,CLR,0.00,VWS V14.01,2013-10-25 03:10:00,
2013-10-24 22:11:00,62.2,27.0,29.65,SW,220,3.6,3.6,26,0.00,,CLR,0.00,VWS V14.01,2013-10-25 03:11:00,
2013-10-24 22:12:00,62.2,27.0,29.65,East,95,2.7,3.6,26,0.00,,CLR,0.00,VWS V14.01,2013-10-25 03:12:00,
2013-10-24 22:13:00,62.2,27.0,29.65,NE,52,3.1,3.1,26,0.00,,CLR,0.00,VWS V14.01,2013-10-25 03:13:00,
2013-10-24 22:14:00,62.2,27.0,29.65,ENE,71,2.7,4.0,26,0.00,,CLR,0.00,VWS V14.01,2013-10-25 03:14:00,
2013-10-24 22:15:00,62.1,26.8,29.65,ENE,59,3.1,4.0,26,0.00,,CLR,0.00,VWS V14.01,2013-10-25 03:15:00,
2013-10-24 22:16:00,62.1,26.8,29.65,East,100,3.1,4.9,26,0.00,,CLR,0.00,VWS V14.01,2013-10-25 03:16:00,
2013-10-24 22:17:00,62.1,27.7,29.65,NE,47,5.4,5.4,27,0.00,,CLR,0.00,VWS V14.01,2013-10-25 03:17:00,
2013-10-24 22:18:00,62.1,27.7,29.65,NW,325,3.6,5.4,27,0.00,,CLR,0.00,VWS V14.01,2013-10-25 03:18:00,
2013-10-24 22:19:00,61.9,27.6,29.65,NNE,26,2.7,2.7,27,0.00,,CLR,0.00,VWS V14.01,2013-10-25 03:19:00,
2013-10-24 22:20:00,61.9,27.6,29.65,NE,41,2.7,2.7,27,0.00,,CLR,0.00,VWS V14.01,2013-10-25 03:20:00,
2013-10-24 22:21:00,61.9,27.6,29.65,ESE,114,2.2,4.9,27,0.00,,CLR,0.00,VWS V14.01,2013-10-25 03:21:00,
2013-10-24 22:22:00,61.9,27.6,29.65,North,3,4.0,4.0,27,0.00,,CLR,0.00,VWS V14.01,2013-10-25 03:22:00,
2013-10-24 22:23:00,61.7,27.4,29.65,NE,49,0.0,4.0,27,0.00,,CLR,0.00,VWS V14.01,2013-10-25 03:23:00,
2013-10-24 22:24:00,61.7,27.4,29.68,NW,314,2.2,4.0,27,0.00,,CLR,0.00,VWS V14.01,2013-10-25 03:24:00,
2013-10-24 22:25:00,61.7,27.4,29.68,NNE,25,2.7,4.0,27,0.00,,CLR,0.00,VWS V14.01,2013-10-25 03:25:00,
2013-10-24 22:26:00,61.7,27.4,29.68,WNW,298,0.0,4.0,27,0.00,,CLR,0.00,VWS V14.01,2013-10-25 03:26:00,
2013-10-24 22:27:00,61.7,27.4,29.68,East,101,2.7,2.7,27,0.00,,CLR,0.00,VWS V14.01,2013-10-25 03:27:00,
2013-10-24 22:28:00,61.5,27.2,29.68,NE,44,2.7,5.8,27,0.00,,CLR,0.00,VWS V14.01,2013-10-25 03:28:00,
2013-10-24 22:29:00,61.5,27.2,29.68,NW,325,2.2,2.7,27,0.00,,CLR,0.00,VWS V14.01,2013-10-25 03:29:00,
2013-10-24 22:30:00,61.5,27.2,29.68,West,280,2.2,2.7,27,0.00,,CLR,0.00,VWS V14.01,2013-10-25 03:30:00,
2013-10-24 22:31:00,61.3,27.1,29.68,NE,55,3.1,3.1,27,0.00,,CLR,0.00,VWS V14.01,2013-10-25 03:31:00,
2013-10-24 22:32:00,61.3,27.1,29.68,North,357,3.1,3.6,27,0.00,,CLR,0.00,VWS V14.01,2013-10-25 03:32:00,
2013-10-24 22:33:00,61.3,27.1,29.68,North,1,2.2,3.6,27,0.00,,CLR,0.00,VWS V14.01,2013-10-25 03:33:00,
2013-10-24 22:34:00,61.3,27.1,29.68,North,1,0.0,0.0,27,0.00,,CLR,0.00,VWS V14.01,2013-10-25 03:34:00,
2013-10-24 22:35:00,61.3,27.1,29.68,NNE,28,2.2,2.2,27,0.00,,CLR,0.00,VWS V14.01,2013-10-25 03:35:00,
2013-10-24 22:36:00,61.2,26.9,29.68,NE,48,2.7,3.6,27,0.00,,CLR,0.00,VWS V14.01,2013-10-25 03:36:00,
2013-10-24 22:37:00,61.2,26.9,29.68,ESE,116,2.7,4.0,27,0.00,,CLR,0.00,VWS V14.01,2013-10-25 03:37:00,
2013-10-24 22:38:00,61.0,26.8,29.68,NNE,19,2.2,3.1,27,0.00,,CLR,0.00,VWS V14.01,2013-10-25 03:38:00,
2013-10-24 22:39:00,61.0,26.8,29.68,NE,49,0.0,2.7,27,0.00,,CLR,0.00,VWS V14.01,2013-10-25 03:39:00,
2013-10-24 22:40:00,61.0,26.8,29.68,WNW,284,3.6,3.6,27,0.00,,CLR,0.00,VWS V14.01,2013-10-25 03:40:00,
2013-10-24 22:41:00,61.0,26.8,29.68,NNE,12,0.0,4.0,27,0.00,,CLR,0.00,VWS V14.01,2013-10-25 03:41:00,
2013-10-24 22:42:00,60.8,26.6,29.68,ENE,71,2.7,5.4,27,0.00,,CLR,0.00,VWS V14.01,2013-10-25 03:42:00,
2013-10-24 22:43:00,60.8,26.6,29.68,North,5,2.7,3.1,27,0.00,,CLR,0.00,VWS V14.01,2013-10-25 03:43:00,
2013-10-24 22:44:00,60.8,26.6,29.68,NE,45,2.7,3.1,27,0.00,,CLR,0.00,VWS V14.01,2013-10-25 03:44:00,
2013-10-24 22:45:00,60.6,27.4,29.68,NE,48,2.2,3.1,28,0.00,,CLR,0.00,VWS V14.01,2013-10-25 03:45:00,
2013-10-24 22:46:00,60.6,27.4,29.68,North,357,0.0,3.1,28,0.00,,CLR,0.00,VWS V14.01,2013-10-25 03:46:00,
2013-10-24 22:47:00,60.6,27.4,29.68,NNE,15,3.1,3.6,28,0.00,,CLR,0.00,VWS V14.01,2013-10-25 03:47:00,
2013-10-24 22:48:00,60.6,27.4,29.68,ENE,63,0.0,5.8,28,0.00,,CLR,0.00,VWS V14.01,2013-10-25 03:48:00,
2013-10-24 22:49:00,60.6,27.4,29.68,WNW,284,4.0,5.8,28,0.00,,CLR,0.00,VWS V14.01,2013-10-25 03:49:00,
2013-10-24 22:50:00,60.4,27.2,29.68,NNW,344,3.6,5.8,28,0.00,,CLR,0.00,VWS V14.01,2013-10-25 03:50:00,
2013-10-24 22:51:00,60.4,27.2,29.68,NE,48,2.7,3.6,28,0.00,,CLR,0.00,VWS V14.01,2013-10-25 03:51:00,
2013-10-24 22:52:00,60.4,27.2,29.68,NNW,338,2.7,3.6,28,0.00,,CLR,0.00,VWS V14.01,2013-10-25 03:52:00,
2013-10-24 22:53:00,60.4,27.2,29.68,NNW,340,0.0,2.7,28,0.00,,CLR,0.00,VWS V14.01,2013-10-25 03:53:00,
2013-10-24 22:54:00,60.4,27.2,29.68,ENE,68,2.7,3.6,28,0.00,,CLR,0.00,VWS V14.01,2013-10-25 03:54:00,
2013-10-24 22:55:00,60.4,27.2,29.68,NE,50,5.4,5.4,28,0.00,,CLR,0.00,VWS V14.01,2013-10-25 03:55:00,
2013-10-24 22:56:00,60.4,27.2,29.68,NE,35,3.1,5.4,28,0.00,,CLR,0.00,VWS V14.01,2013-10-25 03:56:00,
2013-10-24 22:57:00,60.3,27.0,29.68,NE,50,2.7,3.1,28,0.00,,CLR,0.00,VWS V14.01,2013-10-25 03:57:00,
2013-10-24 22:58:00,60.3,27.0,29.68,NE,49,3.1,4.0,28,0.00,,CLR,0.00,VWS V14.01,2013-10-25 03:58:00,
2013-10-24 22:59:00,60.3,27.0,29.68,WNW,291,0.0,2.2,28,0.00,,CLR,0.00,VWS V14.01,2013-10-25 03:59:00,
2013-10-24 23:00:00,60.3,27.0,29.68,NNE,15,0.0,3.1,28,0.00,,CLR,0.00,VWS V14.01,2013-10-25 04:00:00,
2013-10-24 23:01:00,60.3,27.0,29.68,ENE,65,4.0,4.0,28,0.00,,CLR,0.00,VWS V14.01,2013-10-25 04:01:00,
2013-10-24 23:02:00,60.1,26.9,29.68,North,9,2.2,2.2,28,0.00,,CLR,0.00,VWS V14.01,2013-10-25 04:02:00,
2013-10-24 23:03:00,60.1,26.9,29.68,NW,324,2.7,4.0,28,0.00,,CLR,0.00,VWS V14.01,2013-10-25 04:03:00,
2013-10-24 23:04:00,60.1,26.9,29.68,East,86,0.0,3.1,28,0.00,,CLR,0.00,VWS V14.01,2013-10-25 04:04:00,
2013-10-24 23:05:00,60.1,26.9,29.68,NE,46,3.6,3.6,28,0.00,,CLR,0.00,VWS V14.01,2013-10-25 04:05:00,
2013-10-24 23:06:00,60.1,26.9,29.68,NW,317,2.2,5.4,28,0.00,,CLR,0.00,VWS V14.01,2013-10-25 04:06:00,
2013-10-24 23:07:00,59.9,26.7,29.68,NNE,29,0.0,0.0,28,0.00,,CLR,0.00,VWS V14.01,2013-10-25 04:07:00,
2013-10-24 23:08:00,59.9,26.7,29.68,NE,48,3.1,4.0,28,0.00,,CLR,0.00,VWS V14.01,2013-10-25 04:08:00,
2013-10-24 23:09:00,59.9,26.7,29.68,NNW,335,0.0,5.8,28,0.00,,CLR,0.00,VWS V14.01,2013-10-25 04:09:00,
2013-10-24 23:10:00,59.9,26.7,29.68,SW,221,2.7,2.7,28,0.00,,CLR,0.00,VWS V14.01,2013-10-25 04:10:00,
2013-10-24 23:11:00,59.7,26.6,29.68,NE,56,2.7,3.6,28,0.00,,CLR,0.00,VWS V14.01,2013-10-25 04:11:00,
2013-10-24 23:12:00,59.7,26.6,29.68,East,92,2.7,2.7,28,0.00,,CLR,0.00,VWS V14.01,2013-10-25 04:12:00,
2013-10-24 23:13:00,59.7,26.6,29.68,ENE,62,0.0,2.7,28,0.00,,CLR,0.00,VWS V14.01,2013-10-25 04:13:00,
2013-10-24 23:14:00,59.7,26.6,29.68,NNE,32,2.7,3.1,28,0.00,,CLR,0.00,VWS V14.01,2013-10-25 04:14:00,
2013-10-24 23:15:00,59.7,26.6,29.68,NNW,345,2.7,5.4,28,0.00,,CLR,0.00,VWS V14.01,2013-10-25 04:15:00,
2013-10-24 23:16:00,59.5,27.3,29.68,SE,130,2.2,2.7,29,0.00,,CLR,0.00,VWS V14.01,2013-10-25 04:16:00,
2013-10-24 23:17:00,59.5,26.4,29.68,North,11,2.7,2.7,28,0.00,,CLR,0.00,VWS V14.01,2013-10-25 04:17:00,
2013-10-24 23:18:00,59.5,27.3,29.68,North,8,3.6,4.9,29,0.00,,CLR,0.00,VWS V14.01,2013-10-25 04:18:00,
2013-10-24 23:19:00,59.5,27.3,29.68,North,357,6.3,6.3,29,0.00,,CLR,0.00,VWS V14.01,2013-10-25 04:19:00,
2013-10-24 23:20:00,59.5,27.3,29.68,NE,44,3.6,6.3,29,0.00,,CLR,0.00,VWS V14.01,2013-10-25 04:20:00,
2013-10-24 23:21:00,59.4,27.1,29.68,NW,324,0.0,3.6,29,0.00,,CLR,0.00,VWS V14.01,2013-10-25 04:21:00,
2013-10-24 23:22:00,59.4,27.1,29.68,NE,47,3.1,3.1,29,0.00,,CLR,0.00,VWS V14.01,2013-10-25 04:22:00,
2013-10-24 23:23:00,59.4,27.1,29.68,NE,48,2.7,3.1,29,0.00,,CLR,0.00,VWS V14.01,2013-10-25 04:23:00,
2013-10-24 23:24:00,59.4,27.1,29.68,North,1,0.0,4.9,29,0.00,,CLR,0.00,VWS V14.01,2013-10-25 04:24:00,
2013-10-24 23:25:00,59.4,27.1,29.68,ENE,57,0.0,0.0,29,0.00,,CLR,0.00,VWS V14.01,2013-10-25 04:25:00,
2013-10-24 23:26:00,59.4,27.1,29.68,ENE,58,0.0,0.0,29,0.00,,CLR,0.00,VWS V14.01,2013-10-25 04:26:00,
2013-10-24 23:27:00,59.2,27.0,29.68,ENE,65,5.4,5.8,29,0.00,,CLR,0.00,VWS V14.01,2013-10-25 04:27:00,
2013-10-24 23:28:00,59.2,27.0,29.68,NW,312,0.0,5.8,29,0.00,,CLR,0.00,VWS V14.01,2013-10-25 04:28:00,
2013-10-24 23:29:00,59.2,27.0,29.68,East,90,0.0,3.1,29,0.00,,CLR,0.00,VWS V14.01,2013-10-25 04:29:00,
2013-10-24 23:30:00,59.2,27.0,29.68,East,90,0.0,0.0,29,0.00,,CLR,0.00,VWS V14.01,2013-10-25 04:30:00,
2013-10-24 23:31:00,59.2,27.0,29.68,ENE,67,2.7,2.7,29,0.00,,CLR,0.00,VWS V14.01,2013-10-25 04:31:00,
2013-10-24 23:32:00,59.2,27.0,29.68,NE,38,3.6,6.3,29,0.00,,CLR,0.00,VWS V14.01,2013-10-25 04:32:00,
2013-10-24 23:33:00,59.0,26.8,29.68,North,353,0.0,3.6,29,0.00,,CLR,0.00,VWS V14.01,2013-10-25 04:33:00,
2013-10-24 23:34:00,59.0,26.8,29.68,NE,38,2.2,2.7,29,0.00,,CLR,0.00,VWS V14.01,2013-10-25 04:34:00,
2013-10-24 23:35:00,59.0,26.8,29.68,North,1,3.6,3.6,29,0.00,,CLR,0.00,VWS V14.01,2013-10-25 04:35:00,
2013-10-24 23:36:00,59.0,26.8,29.68,North,0,2.7,3.6,29,0.00,,CLR,0.00,VWS V14.01,2013-10-25 04:36:00,
2013-10-24 23:37:00,58.8,27.5,29.68,NNW,338,2.2,3.6,30,0.00,,CLR,0.00,VWS V14.01,2013-10-25 04:37:00,
2013-10-24 23:38:00,58.8,27.5,29.68,WNW,290,2.7,2.7,30,0.00,,CLR,0.00,VWS V14.01,2013-10-25 04:38:00,
2013-10-24 23:39:00,58.8,27.5,29.68,ENE,61,2.2,3.1,30,0.00,,CLR,0.00,VWS V14.01,2013-10-25 04:39:00,
2013-10-24 23:40:00,58.8,27.5,29.68,NNE,14,3.1,3.6,30,0.00,,CLR,0.00,VWS V14.01,2013-10-25 04:40:00,
2013-10-24 23:41:00,58.8,27.5,29.68,ENE,74,2.7,3.1,30,0.00,,CLR,0.00,VWS V14.01,2013-10-25 04:41:00,
2013-10-24 23:42:00,58.6,27.3,29.68,NNW,341,2.2,2.7,30,0.00,,CLR,0.00,VWS V14.01,2013-10-25 04:42:00,
2013-10-24 23:43:00,58.6,27.3,29.68,West,271,3.1,6.3,30,0.00,,CLR,0.00,VWS V14.01,2013-10-25 04:43:00,
2013-10-24 23:44:00,58.6,27.3,29.68,SE,127,2.7,3.1,30,0.00,,CLR,0.00,VWS V14.01,2013-10-25 04:44:00,
2013-10-24 23:45:00,58.5,27.2,29.68,NW,304,2.7,3.1,30,0.00,,CLR,0.00,VWS V14.01,2013-10-25 04:45:00,
2013-10-24 23:46:00,58.5,27.2,29.68,NNE,12,2.7,2.7,30,0.00,,CLR,0.00,VWS V14.01,2013-10-25 04:46:00,
2013-10-24 23:47:00,58.5,27.2,29.68,NNW,334,2.2,3.1,30,0.00,,CLR,0.00,VWS V14.01,2013-10-25 04:47:00,
2013-10-24 23:48:00,58.5,27.2,29.68,ENE,68,0.0,3.1,30,0.00,,CLR,0.00,VWS V14.01,2013-10-25 04:48:00,
2013-10-24 23:49:00,58.5,27.2,29.68,NE,42,2.7,2.7,30,0.00,,CLR,0.00,VWS V14.01,2013-10-25 04:49:00,
2013-10-24 23:50:00,58.5,27.2,29.68,NE,48,2.7,4.9,30,0.00,,CLR,0.00,VWS V14.01,2013-10-25 04:50:00,
2013-10-24 23:51:00,58.5,27.2,29.68,NE,36,2.2,2.7,30,0.00,,CLR,0.00,VWS V14.01,2013-10-25 04:51:00,
2013-10-24 23:52:00,58.3,27.0,29.68,NNE,17,6.3,6.3,30,0.00,,CLR,0.00,VWS V14.01,2013-10-25 04:52:00,
2013-10-24 23:53:00,58.3,27.0,29.68,North,8,3.6,6.3,30,0.00,,CLR,0.00,VWS V14.01,2013-10-25 04:53:00,
2013-10-24 23:54:00,58.3,27.0,29.68,North,7,2.7,3.6,30,0.00,,CLR,0.00,VWS V14.01,2013-10-25 04:54:00,
2013-10-24 23:55:00,58.3,27.0,29.68,North,349,2.7,3.1,30,0.00,,CLR,0.00,VWS V14.01,2013-10-25 04:55:00,
2013-10-24 23:56:00,58.3,27.0,29.68,NNE,13,4.0,4.0,30,0.00,,CLR,0.00,VWS V14.01,2013-10-25 04:56:00,
2013-10-24 23:57:00,58.3,27.0,29.68,NNW,340,2.7,4.0,30,0.00,,CLR,0.00,VWS V14.01,2013-10-25 04:57:00,
2013-10-24 23:58:00,58.1,26.9,29.68,NNE,26,0.0,2.7,30,0.00,,CLR,0.00,VWS V14.01,2013-10-25 04:58:00,
2013-10-24 23:59:00,58.1,26.9,29.68,NE,42,2.7,2.7,30,0.00,,CLR,0.00,VWS V14.01,2013-10-25 04:59:00,